<?xml version="1.0" encoding="UTF-8"?>
<gpx creator="Wikiloc - http://www.wikiloc.com" version="1.1" xmlns="http://www.topografix.com/GPX/1/1" xmlns:xsi="http://www.w3.org/2001/XMLSchema-instance" xsi:schemaLocation="http://www.topografix.com/GPX/1/1 http://www.topografix.com/GPX/1/1/gpx.xsd">
  <wpt lat="43.242561" lon="-3.315881">
    <ele>356.0</ele>
    <time>2012-04-12T04:47:12Z</time>
    <name>Baserri Tipico Karrantza</name>
    <cmt></cmt>
    <desc></desc>
  </wpt>
  <wpt lat="43.228292" lon="-3.296408">
    <ele>532.0</ele>
    <time>2012-04-12T04:47:12Z</time>
    <name>Dolmen de Hormaza</name>
    <cmt></cmt>
    <desc></desc>
  </wpt>
  <wpt lat="43.202270" lon="-3.289874">
    <ele>711.0</ele>
    <time>2012-04-12T04:47:12Z</time>
    <name>Trincheras G. Civil</name>
    <cmt></cmt>
    <desc></desc>
  </wpt>
  <wpt lat="43.198188" lon="-3.286382">
    <ele>720.0</ele>
    <time>2012-04-12T04:47:12Z</time>
    <name>Dolmen de Ribacoba</name>
    <cmt></cmt>
    <desc></desc>
  </wpt>
  <wpt lat="43.197191" lon="-3.284810">
    <ele>729.0</ele>
    <time>2012-04-12T04:47:12Z</time>
    <name>Ilsos de Ribacoba</name>
    <cmt></cmt>
    <desc></desc>
  </wpt>
  <wpt lat="43.197230" lon="-3.284606">
    <ele>729.0</ele>
    <time>2012-04-12T04:47:12Z</time>
    <name>Ilso de Ribacoba</name>
    <cmt></cmt>
    <desc></desc>
  </wpt>
  <wpt lat="43.190233" lon="-3.277456">
    <ele>1010.0</ele>
    <time>2012-04-12T04:47:12Z</time>
    <name>Burgüeno</name>
    <cmt></cmt>
    <desc></desc>
  </wpt>
  <wpt lat="43.196571" lon="-3.306324">
    <ele>484.0</ele>
    <time>2012-04-12T04:47:12Z</time>
    <name>Cabaña de Juarros</name>
    <cmt></cmt>
    <desc></desc>
  </wpt>
  <wpt lat="43.198561" lon="-3.312083">
    <ele>331.0</ele>
    <time>2012-04-12T04:47:12Z</time>
    <name>Linares erreka</name>
    <cmt></cmt>
    <desc></desc>
  </wpt>
  <wpt lat="43.205510" lon="-3.319003">
    <ele>494.0</ele>
    <time>2012-04-12T04:47:12Z</time>
    <name>Ermita San Isidro</name>
    <cmt></cmt>
    <desc></desc>
  </wpt>
  <wpt lat="43.205663" lon="-3.318904">
    <ele>494.0</ele>
    <time>2012-04-12T04:47:12Z</time>
    <name>Iturri Junto a ermita San isidro</name>
    <cmt></cmt>
    <desc></desc>
  </wpt>
  <trk>
    <name>Karrantza Mayo 2012</name>
    <cmt></cmt>
    <desc></desc>
    <trkseg>
      <trkpt lat="43.243487" lon="-3.312002">
        <ele>421.0</ele>
        <time>2012-04-12T11:09:53Z</time>
      </trkpt>
      <trkpt lat="43.243284" lon="-3.311960">
        <ele>420.0</ele>
        <time>2012-04-12T11:10:33Z</time>
      </trkpt>
      <trkpt lat="43.243222" lon="-3.311954">
        <ele>420.0</ele>
        <time>2012-04-12T11:11:13Z</time>
      </trkpt>
      <trkpt lat="43.243073" lon="-3.312002">
        <ele>418.0</ele>
        <time>2012-04-12T11:11:53Z</time>
      </trkpt>
      <trkpt lat="43.243018" lon="-3.312002">
        <ele>418.0</ele>
        <time>2012-04-12T11:12:33Z</time>
      </trkpt>
      <trkpt lat="43.242913" lon="-3.312094">
        <ele>413.0</ele>
        <time>2012-04-12T11:13:13Z</time>
      </trkpt>
      <trkpt lat="43.242882" lon="-3.312179">
        <ele>413.0</ele>
        <time>2012-04-12T11:13:53Z</time>
      </trkpt>
      <trkpt lat="43.242874" lon="-3.312378">
        <ele>411.0</ele>
        <time>2012-04-12T11:14:33Z</time>
      </trkpt>
      <trkpt lat="43.242928" lon="-3.312652">
        <ele>414.0</ele>
        <time>2012-04-12T11:15:13Z</time>
      </trkpt>
      <trkpt lat="43.242995" lon="-3.312989">
        <ele>412.0</ele>
        <time>2012-04-12T11:15:53Z</time>
      </trkpt>
      <trkpt lat="43.243054" lon="-3.313327">
        <ele>408.0</ele>
        <time>2012-04-12T11:16:33Z</time>
      </trkpt>
      <trkpt lat="43.243069" lon="-3.313563">
        <ele>404.0</ele>
        <time>2012-04-12T11:17:13Z</time>
      </trkpt>
      <trkpt lat="43.243151" lon="-3.314196">
        <ele>393.0</ele>
        <time>2012-04-12T11:17:53Z</time>
      </trkpt>
      <trkpt lat="43.243249" lon="-3.314583">
        <ele>398.0</ele>
        <time>2012-04-12T11:18:33Z</time>
      </trkpt>
      <trkpt lat="43.243436" lon="-3.315076">
        <ele>386.0</ele>
        <time>2012-04-12T11:19:13Z</time>
      </trkpt>
      <trkpt lat="43.243612" lon="-3.315516">
        <ele>386.0</ele>
        <time>2012-04-12T11:19:53Z</time>
      </trkpt>
      <trkpt lat="43.243659" lon="-3.315736">
        <ele>381.0</ele>
        <time>2012-04-12T11:20:33Z</time>
      </trkpt>
      <trkpt lat="43.243671" lon="-3.315870">
        <ele>381.0</ele>
        <time>2012-04-12T11:21:13Z</time>
      </trkpt>
      <trkpt lat="43.243616" lon="-3.315929">
        <ele>381.0</ele>
        <time>2012-04-12T11:21:53Z</time>
      </trkpt>
      <trkpt lat="43.243534" lon="-3.315983">
        <ele>377.0</ele>
        <time>2012-04-12T11:22:33Z</time>
      </trkpt>
      <trkpt lat="43.243276" lon="-3.315999">
        <ele>368.0</ele>
        <time>2012-04-12T11:23:13Z</time>
      </trkpt>
      <trkpt lat="43.243155" lon="-3.316004">
        <ele>362.0</ele>
        <time>2012-04-12T11:23:53Z</time>
      </trkpt>
      <trkpt lat="43.243042" lon="-3.315994">
        <ele>362.0</ele>
        <time>2012-04-12T11:24:33Z</time>
      </trkpt>
      <trkpt lat="43.242960" lon="-3.315999">
        <ele>362.0</ele>
        <time>2012-04-12T11:25:13Z</time>
      </trkpt>
      <trkpt lat="43.242858" lon="-3.315988">
        <ele>358.0</ele>
        <time>2012-04-12T11:25:53Z</time>
      </trkpt>
      <trkpt lat="43.242714" lon="-3.315977">
        <ele>358.0</ele>
        <time>2012-04-12T11:26:33Z</time>
      </trkpt>
      <trkpt lat="43.242659" lon="-3.315977">
        <ele>358.0</ele>
        <time>2012-04-12T11:27:13Z</time>
      </trkpt>
      <trkpt lat="43.242600" lon="-3.315988">
        <ele>355.0</ele>
        <time>2012-04-12T11:27:53Z</time>
      </trkpt>
      <trkpt lat="43.242510" lon="-3.316015">
        <ele>355.0</ele>
        <time>2012-04-12T11:28:33Z</time>
      </trkpt>
      <trkpt lat="43.242452" lon="-3.316026">
        <ele>355.0</ele>
        <time>2012-04-12T11:29:13Z</time>
      </trkpt>
      <trkpt lat="43.242346" lon="-3.316197">
        <ele>353.0</ele>
        <time>2012-04-12T11:29:53Z</time>
      </trkpt>
      <trkpt lat="43.242256" lon="-3.316332">
        <ele>351.0</ele>
        <time>2012-04-12T11:30:33Z</time>
      </trkpt>
      <trkpt lat="43.242198" lon="-3.316433">
        <ele>351.0</ele>
        <time>2012-04-12T11:31:13Z</time>
      </trkpt>
      <trkpt lat="43.242143" lon="-3.316514">
        <ele>351.0</ele>
        <time>2012-04-12T11:31:53Z</time>
      </trkpt>
      <trkpt lat="43.242084" lon="-3.316653">
        <ele>349.0</ele>
        <time>2012-04-12T11:32:33Z</time>
      </trkpt>
      <trkpt lat="43.241995" lon="-3.316739">
        <ele>345.0</ele>
        <time>2012-04-12T11:33:13Z</time>
      </trkpt>
      <trkpt lat="43.241889" lon="-3.316777">
        <ele>345.0</ele>
        <time>2012-04-12T11:33:53Z</time>
      </trkpt>
      <trkpt lat="43.241807" lon="-3.316782">
        <ele>345.0</ele>
        <time>2012-04-12T11:34:33Z</time>
      </trkpt>
      <trkpt lat="43.241713" lon="-3.316750">
        <ele>340.0</ele>
        <time>2012-04-12T11:35:13Z</time>
      </trkpt>
      <trkpt lat="43.241647" lon="-3.316605">
        <ele>340.0</ele>
        <time>2012-04-12T11:35:53Z</time>
      </trkpt>
      <trkpt lat="43.241502" lon="-3.316444">
        <ele>337.0</ele>
        <time>2012-04-12T11:36:33Z</time>
      </trkpt>
      <trkpt lat="43.241338" lon="-3.316310">
        <ele>337.0</ele>
        <time>2012-04-12T11:37:13Z</time>
      </trkpt>
      <trkpt lat="43.241068" lon="-3.316128">
        <ele>334.0</ele>
        <time>2012-04-12T11:37:53Z</time>
      </trkpt>
      <trkpt lat="43.240889" lon="-3.316042">
        <ele>329.0</ele>
        <time>2012-04-12T11:38:33Z</time>
      </trkpt>
      <trkpt lat="43.240650" lon="-3.316004">
        <ele>325.0</ele>
        <time>2012-04-12T11:39:13Z</time>
      </trkpt>
      <trkpt lat="43.240001" lon="-3.315972">
        <ele>321.0</ele>
        <time>2012-04-12T11:39:53Z</time>
      </trkpt>
      <trkpt lat="43.238966" lon="-3.315897">
        <ele>301.0</ele>
        <time>2012-04-12T11:40:33Z</time>
      </trkpt>
      <trkpt lat="43.238618" lon="-3.315784">
        <ele>297.0</ele>
        <time>2012-04-12T11:41:13Z</time>
      </trkpt>
      <trkpt lat="43.238278" lon="-3.316889">
        <ele>290.0</ele>
        <time>2012-04-12T11:41:53Z</time>
      </trkpt>
      <trkpt lat="43.238157" lon="-3.317356">
        <ele>286.0</ele>
        <time>2012-04-12T11:42:33Z</time>
      </trkpt>
      <trkpt lat="43.237665" lon="-3.317667">
        <ele>282.0</ele>
        <time>2012-04-12T11:43:13Z</time>
      </trkpt>
      <trkpt lat="43.237172" lon="-3.317705">
        <ele>277.0</ele>
        <time>2012-04-12T11:43:53Z</time>
      </trkpt>
      <trkpt lat="43.236926" lon="-3.317710">
        <ele>273.0</ele>
        <time>2012-04-12T11:44:33Z</time>
      </trkpt>
      <trkpt lat="43.236832" lon="-3.317742">
        <ele>273.0</ele>
        <time>2012-04-12T11:45:13Z</time>
      </trkpt>
      <trkpt lat="43.236770" lon="-3.317785">
        <ele>269.0</ele>
        <time>2012-04-12T11:45:53Z</time>
      </trkpt>
      <trkpt lat="43.236500" lon="-3.318011">
        <ele>265.0</ele>
        <time>2012-04-12T11:46:33Z</time>
      </trkpt>
      <trkpt lat="43.236336" lon="-3.318145">
        <ele>265.0</ele>
        <time>2012-04-12T11:47:13Z</time>
      </trkpt>
      <trkpt lat="43.236238" lon="-3.318172">
        <ele>261.0</ele>
        <time>2012-04-12T11:47:53Z</time>
      </trkpt>
      <trkpt lat="43.236070" lon="-3.318166">
        <ele>261.0</ele>
        <time>2012-04-12T11:48:33Z</time>
      </trkpt>
      <trkpt lat="43.235468" lon="-3.318032">
        <ele>253.0</ele>
        <time>2012-04-12T11:49:13Z</time>
      </trkpt>
      <trkpt lat="43.235152" lon="-3.318005">
        <ele>250.0</ele>
        <time>2012-04-12T11:49:53Z</time>
      </trkpt>
      <trkpt lat="43.234917" lon="-3.318037">
        <ele>247.0</ele>
        <time>2012-04-12T11:50:33Z</time>
      </trkpt>
      <trkpt lat="43.234534" lon="-3.318096">
        <ele>241.0</ele>
        <time>2012-04-12T11:51:13Z</time>
      </trkpt>
      <trkpt lat="43.234253" lon="-3.318032">
        <ele>238.0</ele>
        <time>2012-04-12T11:51:53Z</time>
      </trkpt>
      <trkpt lat="43.233760" lon="-3.317876">
        <ele>237.0</ele>
        <time>2012-04-12T11:52:33Z</time>
      </trkpt>
      <trkpt lat="43.233369" lon="-3.317753">
        <ele>229.0</ele>
        <time>2012-04-12T11:53:13Z</time>
      </trkpt>
      <trkpt lat="43.232834" lon="-3.317640">
        <ele>221.0</ele>
        <time>2012-04-12T11:53:53Z</time>
      </trkpt>
      <trkpt lat="43.232248" lon="-3.317490">
        <ele>217.0</ele>
        <time>2012-04-12T11:54:33Z</time>
      </trkpt>
      <trkpt lat="43.231982" lon="-3.317458">
        <ele>215.0</ele>
        <time>2012-04-12T11:55:13Z</time>
      </trkpt>
      <trkpt lat="43.231646" lon="-3.317383">
        <ele>212.0</ele>
        <time>2012-04-12T11:55:53Z</time>
      </trkpt>
      <trkpt lat="43.231427" lon="-3.317474">
        <ele>208.0</ele>
        <time>2012-04-12T11:56:33Z</time>
      </trkpt>
      <trkpt lat="43.231321" lon="-3.317522">
        <ele>208.0</ele>
        <time>2012-04-12T11:57:13Z</time>
      </trkpt>
      <trkpt lat="43.231220" lon="-3.317528">
        <ele>204.0</ele>
        <time>2012-04-12T11:57:53Z</time>
      </trkpt>
      <trkpt lat="43.231079" lon="-3.317340">
        <ele>205.0</ele>
        <time>2012-04-12T11:58:33Z</time>
      </trkpt>
      <trkpt lat="43.230899" lon="-3.316986">
        <ele>201.0</ele>
        <time>2012-04-12T11:59:13Z</time>
      </trkpt>
      <trkpt lat="43.230696" lon="-3.316702">
        <ele>203.0</ele>
        <time>2012-04-12T11:59:53Z</time>
      </trkpt>
      <trkpt lat="43.230563" lon="-3.316610">
        <ele>197.0</ele>
        <time>2012-04-12T12:00:33Z</time>
      </trkpt>
      <trkpt lat="43.230438" lon="-3.316514">
        <ele>199.0</ele>
        <time>2012-04-12T12:01:13Z</time>
      </trkpt>
      <trkpt lat="43.230231" lon="-3.316471">
        <ele>194.0</ele>
        <time>2012-04-12T12:01:53Z</time>
      </trkpt>
      <trkpt lat="43.229949" lon="-3.316396">
        <ele>191.0</ele>
        <time>2012-04-12T12:02:33Z</time>
      </trkpt>
      <trkpt lat="43.229824" lon="-3.316369">
        <ele>189.0</ele>
        <time>2012-04-12T12:03:13Z</time>
      </trkpt>
      <trkpt lat="43.229688" lon="-3.316380">
        <ele>189.0</ele>
        <time>2012-04-12T12:03:53Z</time>
      </trkpt>
      <trkpt lat="43.229645" lon="-3.316283">
        <ele>189.0</ele>
        <time>2012-04-12T12:04:33Z</time>
      </trkpt>
      <trkpt lat="43.229305" lon="-3.315672">
        <ele>189.0</ele>
        <time>2012-04-12T12:05:13Z</time>
      </trkpt>
      <trkpt lat="43.229136" lon="-3.315377">
        <ele>189.0</ele>
        <time>2012-04-12T12:05:53Z</time>
      </trkpt>
      <trkpt lat="43.228585" lon="-3.314486">
        <ele>190.0</ele>
        <time>2012-04-12T12:06:33Z</time>
      </trkpt>
      <trkpt lat="43.228081" lon="-3.313692">
        <ele>192.0</ele>
        <time>2012-04-12T12:07:13Z</time>
      </trkpt>
      <trkpt lat="43.227831" lon="-3.313429">
        <ele>194.0</ele>
        <time>2012-04-12T12:07:53Z</time>
      </trkpt>
      <trkpt lat="43.227550" lon="-3.313285">
        <ele>195.0</ele>
        <time>2012-04-12T12:08:33Z</time>
      </trkpt>
      <trkpt lat="43.227163" lon="-3.313360">
        <ele>198.0</ele>
        <time>2012-04-12T12:09:13Z</time>
      </trkpt>
      <trkpt lat="43.226666" lon="-3.313467">
        <ele>204.0</ele>
        <time>2012-04-12T12:09:53Z</time>
      </trkpt>
      <trkpt lat="43.226373" lon="-3.313440">
        <ele>205.0</ele>
        <time>2012-04-12T12:10:33Z</time>
      </trkpt>
      <trkpt lat="43.226029" lon="-3.313386">
        <ele>206.0</ele>
        <time>2012-04-12T12:11:13Z</time>
      </trkpt>
      <trkpt lat="43.225752" lon="-3.313327">
        <ele>206.0</ele>
        <time>2012-04-12T12:11:53Z</time>
      </trkpt>
      <trkpt lat="43.225564" lon="-3.313311">
        <ele>206.0</ele>
        <time>2012-04-12T12:12:33Z</time>
      </trkpt>
      <trkpt lat="43.225451" lon="-3.313354">
        <ele>206.0</ele>
        <time>2012-04-12T12:13:13Z</time>
      </trkpt>
      <trkpt lat="43.225036" lon="-3.313451">
        <ele>207.0</ele>
        <time>2012-04-12T12:13:53Z</time>
      </trkpt>
      <trkpt lat="43.224903" lon="-3.313478">
        <ele>205.0</ele>
        <time>2012-04-12T12:14:33Z</time>
      </trkpt>
      <trkpt lat="43.224821" lon="-3.313488">
        <ele>207.0</ele>
        <time>2012-04-12T12:15:13Z</time>
      </trkpt>
      <trkpt lat="43.224786" lon="-3.313311">
        <ele>209.0</ele>
        <time>2012-04-12T12:15:53Z</time>
      </trkpt>
      <trkpt lat="43.224841" lon="-3.313086">
        <ele>212.0</ele>
        <time>2012-04-12T12:16:33Z</time>
      </trkpt>
      <trkpt lat="43.224923" lon="-3.312882">
        <ele>214.0</ele>
        <time>2012-04-12T12:17:13Z</time>
      </trkpt>
      <trkpt lat="43.225150" lon="-3.312560">
        <ele>216.0</ele>
        <time>2012-04-12T12:17:53Z</time>
      </trkpt>
      <trkpt lat="43.225423" lon="-3.312276">
        <ele>218.0</ele>
        <time>2012-04-12T12:18:33Z</time>
      </trkpt>
      <trkpt lat="43.225787" lon="-3.311884">
        <ele>219.0</ele>
        <time>2012-04-12T12:19:13Z</time>
      </trkpt>
      <trkpt lat="43.225967" lon="-3.311605">
        <ele>222.0</ele>
        <time>2012-04-12T12:19:53Z</time>
      </trkpt>
      <trkpt lat="43.226224" lon="-3.311327">
        <ele>222.0</ele>
        <time>2012-04-12T12:20:33Z</time>
      </trkpt>
      <trkpt lat="43.226467" lon="-3.311128">
        <ele>221.0</ele>
        <time>2012-04-12T12:21:13Z</time>
      </trkpt>
      <trkpt lat="43.226623" lon="-3.310999">
        <ele>219.0</ele>
        <time>2012-04-12T12:21:53Z</time>
      </trkpt>
      <trkpt lat="43.226830" lon="-3.310817">
        <ele>220.0</ele>
        <time>2012-04-12T12:22:33Z</time>
      </trkpt>
      <trkpt lat="43.227030" lon="-3.310533">
        <ele>223.0</ele>
        <time>2012-04-12T12:23:13Z</time>
      </trkpt>
      <trkpt lat="43.227284" lon="-3.310077">
        <ele>229.0</ele>
        <time>2012-04-12T12:23:53Z</time>
      </trkpt>
      <trkpt lat="43.227358" lon="-3.309883">
        <ele>229.0</ele>
        <time>2012-04-12T12:24:33Z</time>
      </trkpt>
      <trkpt lat="43.227424" lon="-3.309610">
        <ele>232.0</ele>
        <time>2012-04-12T12:25:13Z</time>
      </trkpt>
      <trkpt lat="43.227464" lon="-3.309331">
        <ele>235.0</ele>
        <time>2012-04-12T12:25:53Z</time>
      </trkpt>
      <trkpt lat="43.227573" lon="-3.309138">
        <ele>238.0</ele>
        <time>2012-04-12T12:26:33Z</time>
      </trkpt>
      <trkpt lat="43.227804" lon="-3.309138">
        <ele>239.0</ele>
        <time>2012-04-12T12:27:13Z</time>
      </trkpt>
      <trkpt lat="43.228054" lon="-3.309272">
        <ele>240.0</ele>
        <time>2012-04-12T12:27:53Z</time>
      </trkpt>
      <trkpt lat="43.228226" lon="-3.309535">
        <ele>238.0</ele>
        <time>2012-04-12T12:28:33Z</time>
      </trkpt>
      <trkpt lat="43.228390" lon="-3.310087">
        <ele>232.0</ele>
        <time>2012-04-12T12:29:13Z</time>
      </trkpt>
      <trkpt lat="43.228449" lon="-3.310173">
        <ele>229.0</ele>
        <time>2012-04-12T12:29:53Z</time>
      </trkpt>
      <trkpt lat="43.228800" lon="-3.310463">
        <ele>231.0</ele>
        <time>2012-04-12T12:30:33Z</time>
      </trkpt>
      <trkpt lat="43.229156" lon="-3.310645">
        <ele>232.0</ele>
        <time>2012-04-12T12:31:13Z</time>
      </trkpt>
      <trkpt lat="43.229383" lon="-3.310720">
        <ele>231.0</ele>
        <time>2012-04-12T12:31:53Z</time>
      </trkpt>
      <trkpt lat="43.229527" lon="-3.310656">
        <ele>233.0</ele>
        <time>2012-04-12T12:32:33Z</time>
      </trkpt>
      <trkpt lat="43.229621" lon="-3.310543">
        <ele>235.0</ele>
        <time>2012-04-12T12:33:13Z</time>
      </trkpt>
      <trkpt lat="43.229695" lon="-3.310404">
        <ele>238.0</ele>
        <time>2012-04-12T12:33:53Z</time>
      </trkpt>
      <trkpt lat="43.229754" lon="-3.310259">
        <ele>238.0</ele>
        <time>2012-04-12T12:34:33Z</time>
      </trkpt>
      <trkpt lat="43.229801" lon="-3.310109">
        <ele>240.0</ele>
        <time>2012-04-12T12:35:13Z</time>
      </trkpt>
      <trkpt lat="43.229844" lon="-3.309959">
        <ele>240.0</ele>
        <time>2012-04-12T12:35:53Z</time>
      </trkpt>
      <trkpt lat="43.229906" lon="-3.309819">
        <ele>243.0</ele>
        <time>2012-04-12T12:36:33Z</time>
      </trkpt>
      <trkpt lat="43.229926" lon="-3.309680">
        <ele>243.0</ele>
        <time>2012-04-12T12:37:13Z</time>
      </trkpt>
      <trkpt lat="43.229887" lon="-3.309497">
        <ele>245.0</ele>
        <time>2012-04-12T12:37:53Z</time>
      </trkpt>
      <trkpt lat="43.229824" lon="-3.309277">
        <ele>247.0</ele>
        <time>2012-04-12T12:38:33Z</time>
      </trkpt>
      <trkpt lat="43.229809" lon="-3.309208">
        <ele>247.0</ele>
        <time>2012-04-12T12:39:13Z</time>
      </trkpt>
      <trkpt lat="43.229852" lon="-3.309111">
        <ele>247.0</ele>
        <time>2012-04-12T12:39:53Z</time>
      </trkpt>
      <trkpt lat="43.230004" lon="-3.309036">
        <ele>247.0</ele>
        <time>2012-04-12T12:40:33Z</time>
      </trkpt>
      <trkpt lat="43.230176" lon="-3.308950">
        <ele>248.0</ele>
        <time>2012-04-12T12:41:13Z</time>
      </trkpt>
      <trkpt lat="43.230262" lon="-3.308821">
        <ele>248.0</ele>
        <time>2012-04-12T12:41:53Z</time>
      </trkpt>
      <trkpt lat="43.230387" lon="-3.308714">
        <ele>249.0</ele>
        <time>2012-04-12T12:42:33Z</time>
      </trkpt>
      <trkpt lat="43.230532" lon="-3.308623">
        <ele>247.0</ele>
        <time>2012-04-12T12:43:13Z</time>
      </trkpt>
      <trkpt lat="43.230559" lon="-3.308516">
        <ele>247.0</ele>
        <time>2012-04-12T12:43:53Z</time>
      </trkpt>
      <trkpt lat="43.230571" lon="-3.308258">
        <ele>248.0</ele>
        <time>2012-04-12T12:44:33Z</time>
      </trkpt>
      <trkpt lat="43.230583" lon="-3.308140">
        <ele>248.0</ele>
        <time>2012-04-12T12:45:13Z</time>
      </trkpt>
      <trkpt lat="43.230614" lon="-3.307990">
        <ele>248.0</ele>
        <time>2012-04-12T12:45:53Z</time>
      </trkpt>
      <trkpt lat="43.230665" lon="-3.307861">
        <ele>249.0</ele>
        <time>2012-04-12T12:46:33Z</time>
      </trkpt>
      <trkpt lat="43.230676" lon="-3.307689">
        <ele>249.0</ele>
        <time>2012-04-12T12:47:13Z</time>
      </trkpt>
      <trkpt lat="43.230794" lon="-3.307491">
        <ele>247.0</ele>
        <time>2012-04-12T12:47:53Z</time>
      </trkpt>
      <trkpt lat="43.230845" lon="-3.307351">
        <ele>249.0</ele>
        <time>2012-04-12T12:48:33Z</time>
      </trkpt>
      <trkpt lat="43.230872" lon="-3.307217">
        <ele>249.0</ele>
        <time>2012-04-12T12:49:13Z</time>
      </trkpt>
      <trkpt lat="43.230868" lon="-3.307073">
        <ele>251.0</ele>
        <time>2012-04-12T12:49:53Z</time>
      </trkpt>
      <trkpt lat="43.230950" lon="-3.306944">
        <ele>251.0</ele>
        <time>2012-04-12T12:50:33Z</time>
      </trkpt>
      <trkpt lat="43.230993" lon="-3.306847">
        <ele>247.0</ele>
        <time>2012-04-12T12:51:13Z</time>
      </trkpt>
      <trkpt lat="43.231044" lon="-3.306724">
        <ele>250.0</ele>
        <time>2012-04-12T12:51:53Z</time>
      </trkpt>
      <trkpt lat="43.231052" lon="-3.306606">
        <ele>250.0</ele>
        <time>2012-04-12T12:52:33Z</time>
      </trkpt>
      <trkpt lat="43.231032" lon="-3.306466">
        <ele>252.0</ele>
        <time>2012-04-12T12:53:13Z</time>
      </trkpt>
      <trkpt lat="43.231020" lon="-3.306316">
        <ele>252.0</ele>
        <time>2012-04-12T12:53:53Z</time>
      </trkpt>
      <trkpt lat="43.230989" lon="-3.306220">
        <ele>255.0</ele>
        <time>2012-04-12T12:54:33Z</time>
      </trkpt>
      <trkpt lat="43.230938" lon="-3.306026">
        <ele>258.0</ele>
        <time>2012-04-12T12:55:13Z</time>
      </trkpt>
      <trkpt lat="43.230946" lon="-3.305812">
        <ele>261.0</ele>
        <time>2012-04-12T12:55:53Z</time>
      </trkpt>
      <trkpt lat="43.230950" lon="-3.305581">
        <ele>264.0</ele>
        <time>2012-04-12T12:56:33Z</time>
      </trkpt>
      <trkpt lat="43.230977" lon="-3.305367">
        <ele>265.0</ele>
        <time>2012-04-12T12:57:13Z</time>
      </trkpt>
      <trkpt lat="43.231017" lon="-3.305045">
        <ele>269.0</ele>
        <time>2012-04-12T12:57:53Z</time>
      </trkpt>
      <trkpt lat="43.231032" lon="-3.304927">
        <ele>269.0</ele>
        <time>2012-04-12T12:58:33Z</time>
      </trkpt>
      <trkpt lat="43.231126" lon="-3.304819">
        <ele>272.0</ele>
        <time>2012-04-12T12:59:13Z</time>
      </trkpt>
      <trkpt lat="43.231263" lon="-3.304734">
        <ele>270.0</ele>
        <time>2012-04-12T12:59:53Z</time>
      </trkpt>
      <trkpt lat="43.231243" lon="-3.304680">
        <ele>272.0</ele>
        <time>2012-04-12T13:00:33Z</time>
      </trkpt>
      <trkpt lat="43.231130" lon="-3.304594">
        <ele>272.0</ele>
        <time>2012-04-12T13:01:13Z</time>
      </trkpt>
      <trkpt lat="43.231067" lon="-3.304567">
        <ele>276.0</ele>
        <time>2012-04-12T13:01:53Z</time>
      </trkpt>
      <trkpt lat="43.230938" lon="-3.304422">
        <ele>278.0</ele>
        <time>2012-04-12T13:02:33Z</time>
      </trkpt>
      <trkpt lat="43.230845" lon="-3.304283">
        <ele>281.0</ele>
        <time>2012-04-12T13:03:13Z</time>
      </trkpt>
      <trkpt lat="43.230798" lon="-3.304181">
        <ele>281.0</ele>
        <time>2012-04-12T13:03:53Z</time>
      </trkpt>
      <trkpt lat="43.230798" lon="-3.304036">
        <ele>281.0</ele>
        <time>2012-04-12T13:04:33Z</time>
      </trkpt>
      <trkpt lat="43.230782" lon="-3.303891">
        <ele>283.0</ele>
        <time>2012-04-12T13:05:13Z</time>
      </trkpt>
      <trkpt lat="43.230719" lon="-3.303854">
        <ele>283.0</ele>
        <time>2012-04-12T13:05:53Z</time>
      </trkpt>
      <trkpt lat="43.230673" lon="-3.303881">
        <ele>286.0</ele>
        <time>2012-04-12T13:06:33Z</time>
      </trkpt>
      <trkpt lat="43.230544" lon="-3.304020">
        <ele>286.0</ele>
        <time>2012-04-12T13:07:13Z</time>
      </trkpt>
      <trkpt lat="43.230399" lon="-3.304192">
        <ele>288.0</ele>
        <time>2012-04-12T13:07:53Z</time>
      </trkpt>
      <trkpt lat="43.230278" lon="-3.304267">
        <ele>288.0</ele>
        <time>2012-04-12T13:08:33Z</time>
      </trkpt>
      <trkpt lat="43.230157" lon="-3.304422">
        <ele>285.0</ele>
        <time>2012-04-12T13:09:13Z</time>
      </trkpt>
      <trkpt lat="43.230106" lon="-3.304557">
        <ele>290.0</ele>
        <time>2012-04-12T13:09:53Z</time>
      </trkpt>
      <trkpt lat="43.230063" lon="-3.304739">
        <ele>287.0</ele>
        <time>2012-04-12T13:10:33Z</time>
      </trkpt>
      <trkpt lat="43.230020" lon="-3.304911">
        <ele>283.0</ele>
        <time>2012-04-12T13:11:13Z</time>
      </trkpt>
      <trkpt lat="43.229965" lon="-3.305007">
        <ele>283.0</ele>
        <time>2012-04-12T13:11:53Z</time>
      </trkpt>
      <trkpt lat="43.229828" lon="-3.305147">
        <ele>284.0</ele>
        <time>2012-04-12T13:12:33Z</time>
      </trkpt>
      <trkpt lat="43.229539" lon="-3.305410">
        <ele>287.0</ele>
        <time>2012-04-12T13:13:13Z</time>
      </trkpt>
      <trkpt lat="43.229473" lon="-3.305458">
        <ele>284.0</ele>
        <time>2012-04-12T13:13:53Z</time>
      </trkpt>
      <trkpt lat="43.229391" lon="-3.305458">
        <ele>284.0</ele>
        <time>2012-04-12T13:14:33Z</time>
      </trkpt>
      <trkpt lat="43.229316" lon="-3.305383">
        <ele>287.0</ele>
        <time>2012-04-12T13:15:13Z</time>
      </trkpt>
      <trkpt lat="43.229258" lon="-3.305324">
        <ele>290.0</ele>
        <time>2012-04-12T13:15:53Z</time>
      </trkpt>
      <trkpt lat="43.229160" lon="-3.305249">
        <ele>290.0</ele>
        <time>2012-04-12T13:16:33Z</time>
      </trkpt>
      <trkpt lat="43.229043" lon="-3.305222">
        <ele>290.0</ele>
        <time>2012-04-12T13:17:13Z</time>
      </trkpt>
      <trkpt lat="43.228984" lon="-3.305222">
        <ele>292.0</ele>
        <time>2012-04-12T13:17:53Z</time>
      </trkpt>
      <trkpt lat="43.228847" lon="-3.305254">
        <ele>292.0</ele>
        <time>2012-04-12T13:18:33Z</time>
      </trkpt>
      <trkpt lat="43.228777" lon="-3.305206">
        <ele>292.0</ele>
        <time>2012-04-12T13:19:13Z</time>
      </trkpt>
      <trkpt lat="43.228675" lon="-3.305190">
        <ele>293.0</ele>
        <time>2012-04-12T13:19:53Z</time>
      </trkpt>
      <trkpt lat="43.228566" lon="-3.305216">
        <ele>293.0</ele>
        <time>2012-04-12T13:20:33Z</time>
      </trkpt>
      <trkpt lat="43.228511" lon="-3.305249">
        <ele>293.0</ele>
        <time>2012-04-12T13:21:13Z</time>
      </trkpt>
      <trkpt lat="43.228445" lon="-3.305415">
        <ele>294.0</ele>
        <time>2012-04-12T13:21:53Z</time>
      </trkpt>
      <trkpt lat="43.228398" lon="-3.305522">
        <ele>292.0</ele>
        <time>2012-04-12T13:22:33Z</time>
      </trkpt>
      <trkpt lat="43.228335" lon="-3.305447">
        <ele>292.0</ele>
        <time>2012-04-12T13:23:13Z</time>
      </trkpt>
      <trkpt lat="43.228296" lon="-3.305356">
        <ele>294.0</ele>
        <time>2012-04-12T13:23:53Z</time>
      </trkpt>
      <trkpt lat="43.228234" lon="-3.305190">
        <ele>294.0</ele>
        <time>2012-04-12T13:24:33Z</time>
      </trkpt>
      <trkpt lat="43.228210" lon="-3.305061">
        <ele>297.0</ele>
        <time>2012-04-12T13:25:13Z</time>
      </trkpt>
      <trkpt lat="43.228198" lon="-3.304852">
        <ele>300.0</ele>
        <time>2012-04-12T13:25:53Z</time>
      </trkpt>
      <trkpt lat="43.228171" lon="-3.304685">
        <ele>300.0</ele>
        <time>2012-04-12T13:26:33Z</time>
      </trkpt>
      <trkpt lat="43.228152" lon="-3.304546">
        <ele>304.0</ele>
        <time>2012-04-12T13:27:13Z</time>
      </trkpt>
      <trkpt lat="43.228073" lon="-3.304433">
        <ele>304.0</ele>
        <time>2012-04-12T13:27:53Z</time>
      </trkpt>
      <trkpt lat="43.228011" lon="-3.304353">
        <ele>304.0</ele>
        <time>2012-04-12T13:28:33Z</time>
      </trkpt>
      <trkpt lat="43.227897" lon="-3.304294">
        <ele>307.0</ele>
        <time>2012-04-12T13:29:13Z</time>
      </trkpt>
      <trkpt lat="43.227753" lon="-3.304176">
        <ele>307.0</ele>
        <time>2012-04-12T13:29:53Z</time>
      </trkpt>
      <trkpt lat="43.227616" lon="-3.304074">
        <ele>307.0</ele>
        <time>2012-04-12T13:30:33Z</time>
      </trkpt>
      <trkpt lat="43.227522" lon="-3.303956">
        <ele>311.0</ele>
        <time>2012-04-12T13:31:13Z</time>
      </trkpt>
      <trkpt lat="43.227460" lon="-3.303924">
        <ele>311.0</ele>
        <time>2012-04-12T13:31:53Z</time>
      </trkpt>
      <trkpt lat="43.227397" lon="-3.303881">
        <ele>311.0</ele>
        <time>2012-04-12T13:32:33Z</time>
      </trkpt>
      <trkpt lat="43.227303" lon="-3.303736">
        <ele>317.0</ele>
        <time>2012-04-12T13:33:13Z</time>
      </trkpt>
      <trkpt lat="43.227206" lon="-3.303607">
        <ele>317.0</ele>
        <time>2012-04-12T13:33:53Z</time>
      </trkpt>
      <trkpt lat="43.227002" lon="-3.303414">
        <ele>326.0</ele>
        <time>2012-04-12T13:34:33Z</time>
      </trkpt>
      <trkpt lat="43.226713" lon="-3.303339">
        <ele>328.0</ele>
        <time>2012-04-12T13:35:13Z</time>
      </trkpt>
      <trkpt lat="43.226611" lon="-3.303323">
        <ele>328.0</ele>
        <time>2012-04-12T13:35:53Z</time>
      </trkpt>
      <trkpt lat="43.226549" lon="-3.303317">
        <ele>328.0</ele>
        <time>2012-04-12T13:36:33Z</time>
      </trkpt>
      <trkpt lat="43.226545" lon="-3.303253">
        <ele>328.0</ele>
        <time>2012-04-12T13:37:13Z</time>
      </trkpt>
      <trkpt lat="43.226529" lon="-3.303162">
        <ele>335.0</ele>
        <time>2012-04-12T13:37:53Z</time>
      </trkpt>
      <trkpt lat="43.226510" lon="-3.303097">
        <ele>338.0</ele>
        <time>2012-04-12T13:38:33Z</time>
      </trkpt>
      <trkpt lat="43.226416" lon="-3.303151">
        <ele>338.0</ele>
        <time>2012-04-12T13:39:13Z</time>
      </trkpt>
      <trkpt lat="43.226307" lon="-3.303162">
        <ele>338.0</ele>
        <time>2012-04-12T13:39:53Z</time>
      </trkpt>
      <trkpt lat="43.226236" lon="-3.303199">
        <ele>336.0</ele>
        <time>2012-04-12T13:40:33Z</time>
      </trkpt>
      <trkpt lat="43.226174" lon="-3.303242">
        <ele>336.0</ele>
        <time>2012-04-12T13:41:13Z</time>
      </trkpt>
      <trkpt lat="43.226131" lon="-3.303317">
        <ele>336.0</ele>
        <time>2012-04-12T13:41:53Z</time>
      </trkpt>
      <trkpt lat="43.226056" lon="-3.303323">
        <ele>336.0</ele>
        <time>2012-04-12T13:42:33Z</time>
      </trkpt>
      <trkpt lat="43.225963" lon="-3.303312">
        <ele>340.0</ele>
        <time>2012-04-12T13:43:13Z</time>
      </trkpt>
      <trkpt lat="43.225849" lon="-3.303173">
        <ele>345.0</ele>
        <time>2012-04-12T13:43:53Z</time>
      </trkpt>
      <trkpt lat="43.225767" lon="-3.303076">
        <ele>345.0</ele>
        <time>2012-04-12T13:44:33Z</time>
      </trkpt>
      <trkpt lat="43.225669" lon="-3.303028">
        <ele>349.0</ele>
        <time>2012-04-12T13:45:13Z</time>
      </trkpt>
      <trkpt lat="43.225501" lon="-3.302979">
        <ele>349.0</ele>
        <time>2012-04-12T13:45:53Z</time>
      </trkpt>
      <trkpt lat="43.225404" lon="-3.303033">
        <ele>353.0</ele>
        <time>2012-04-12T13:46:33Z</time>
      </trkpt>
      <trkpt lat="43.225333" lon="-3.303199">
        <ele>348.0</ele>
        <time>2012-04-12T13:47:13Z</time>
      </trkpt>
      <trkpt lat="43.225294" lon="-3.303285">
        <ele>348.0</ele>
        <time>2012-04-12T13:47:53Z</time>
      </trkpt>
      <trkpt lat="43.225185" lon="-3.303334">
        <ele>348.0</ele>
        <time>2012-04-12T13:48:33Z</time>
      </trkpt>
      <trkpt lat="43.224981" lon="-3.303221">
        <ele>351.0</ele>
        <time>2012-04-12T13:49:13Z</time>
      </trkpt>
      <trkpt lat="43.224825" lon="-3.303334">
        <ele>352.0</ele>
        <time>2012-04-12T13:49:53Z</time>
      </trkpt>
      <trkpt lat="43.224700" lon="-3.303285">
        <ele>352.0</ele>
        <time>2012-04-12T13:50:33Z</time>
      </trkpt>
      <trkpt lat="43.224630" lon="-3.303216">
        <ele>352.0</ele>
        <time>2012-04-12T13:51:13Z</time>
      </trkpt>
      <trkpt lat="43.224516" lon="-3.303312">
        <ele>352.0</ele>
        <time>2012-04-12T13:51:53Z</time>
      </trkpt>
      <trkpt lat="43.224438" lon="-3.303403">
        <ele>352.0</ele>
        <time>2012-04-12T13:52:33Z</time>
      </trkpt>
      <trkpt lat="43.224399" lon="-3.303414">
        <ele>352.0</ele>
        <time>2012-04-12T13:53:13Z</time>
      </trkpt>
      <trkpt lat="43.224313" lon="-3.303419">
        <ele>352.0</ele>
        <time>2012-04-12T13:53:53Z</time>
      </trkpt>
      <trkpt lat="43.224227" lon="-3.303441">
        <ele>351.0</ele>
        <time>2012-04-12T13:54:33Z</time>
      </trkpt>
      <trkpt lat="43.224079" lon="-3.303376">
        <ele>351.0</ele>
        <time>2012-04-12T13:55:13Z</time>
      </trkpt>
      <trkpt lat="43.223867" lon="-3.303366">
        <ele>351.0</ele>
        <time>2012-04-12T13:55:53Z</time>
      </trkpt>
      <trkpt lat="43.223735" lon="-3.303393">
        <ele>350.0</ele>
        <time>2012-04-12T13:56:33Z</time>
      </trkpt>
      <trkpt lat="43.223699" lon="-3.303393">
        <ele>350.0</ele>
        <time>2012-04-12T13:57:13Z</time>
      </trkpt>
      <trkpt lat="43.223488" lon="-3.303468">
        <ele>350.0</ele>
        <time>2012-04-12T13:57:53Z</time>
      </trkpt>
      <trkpt lat="43.223410" lon="-3.303419">
        <ele>351.0</ele>
        <time>2012-04-12T13:58:33Z</time>
      </trkpt>
      <trkpt lat="43.223359" lon="-3.303403">
        <ele>351.0</ele>
        <time>2012-04-12T13:59:13Z</time>
      </trkpt>
      <trkpt lat="43.223305" lon="-3.303393">
        <ele>351.0</ele>
        <time>2012-04-12T13:59:53Z</time>
      </trkpt>
      <trkpt lat="43.223238" lon="-3.303430">
        <ele>351.0</ele>
        <time>2012-04-12T14:00:33Z</time>
      </trkpt>
      <trkpt lat="43.223152" lon="-3.303484">
        <ele>348.0</ele>
        <time>2012-04-12T14:01:13Z</time>
      </trkpt>
      <trkpt lat="43.223039" lon="-3.303494">
        <ele>348.0</ele>
        <time>2012-04-12T14:01:53Z</time>
      </trkpt>
      <trkpt lat="43.222929" lon="-3.303414">
        <ele>352.0</ele>
        <time>2012-04-12T14:02:33Z</time>
      </trkpt>
      <trkpt lat="43.222871" lon="-3.303382">
        <ele>356.0</ele>
        <time>2012-04-12T14:03:13Z</time>
      </trkpt>
      <trkpt lat="43.222804" lon="-3.303462">
        <ele>356.0</ele>
        <time>2012-04-12T14:03:53Z</time>
      </trkpt>
      <trkpt lat="43.222722" lon="-3.303500">
        <ele>351.0</ele>
        <time>2012-04-12T14:04:33Z</time>
      </trkpt>
      <trkpt lat="43.222613" lon="-3.303559">
        <ele>355.0</ele>
        <time>2012-04-12T14:05:13Z</time>
      </trkpt>
      <trkpt lat="43.222558" lon="-3.303650">
        <ele>355.0</ele>
        <time>2012-04-12T14:05:53Z</time>
      </trkpt>
      <trkpt lat="43.222531" lon="-3.303747">
        <ele>355.0</ele>
        <time>2012-04-12T14:06:33Z</time>
      </trkpt>
      <trkpt lat="43.222511" lon="-3.303816">
        <ele>350.0</ele>
        <time>2012-04-12T14:07:13Z</time>
      </trkpt>
      <trkpt lat="43.222460" lon="-3.303832">
        <ele>350.0</ele>
        <time>2012-04-12T14:07:53Z</time>
      </trkpt>
      <trkpt lat="43.222398" lon="-3.303859">
        <ele>350.0</ele>
        <time>2012-04-12T14:08:33Z</time>
      </trkpt>
      <trkpt lat="43.222374" lon="-3.303913">
        <ele>350.0</ele>
        <time>2012-04-12T14:09:13Z</time>
      </trkpt>
      <trkpt lat="43.222366" lon="-3.303843">
        <ele>350.0</ele>
        <time>2012-04-12T14:09:53Z</time>
      </trkpt>
      <trkpt lat="43.222382" lon="-3.303730">
        <ele>355.0</ele>
        <time>2012-04-12T14:10:33Z</time>
      </trkpt>
      <trkpt lat="43.222390" lon="-3.303553">
        <ele>355.0</ele>
        <time>2012-04-12T14:11:13Z</time>
      </trkpt>
      <trkpt lat="43.222402" lon="-3.303425">
        <ele>361.0</ele>
        <time>2012-04-12T14:11:53Z</time>
      </trkpt>
      <trkpt lat="43.222405" lon="-3.303312">
        <ele>361.0</ele>
        <time>2012-04-12T14:12:33Z</time>
      </trkpt>
      <trkpt lat="43.222476" lon="-3.303173">
        <ele>367.0</ele>
        <time>2012-04-12T14:13:13Z</time>
      </trkpt>
      <trkpt lat="43.222488" lon="-3.303033">
        <ele>367.0</ele>
        <time>2012-04-12T14:13:53Z</time>
      </trkpt>
      <trkpt lat="43.222488" lon="-3.302867">
        <ele>373.0</ele>
        <time>2012-04-12T14:14:33Z</time>
      </trkpt>
      <trkpt lat="43.222531" lon="-3.302647">
        <ele>373.0</ele>
        <time>2012-04-12T14:15:13Z</time>
      </trkpt>
      <trkpt lat="43.222570" lon="-3.302464">
        <ele>380.0</ele>
        <time>2012-04-12T14:15:53Z</time>
      </trkpt>
      <trkpt lat="43.222613" lon="-3.302282">
        <ele>387.0</ele>
        <time>2012-04-12T14:16:33Z</time>
      </trkpt>
      <trkpt lat="43.222679" lon="-3.302202">
        <ele>380.0</ele>
        <time>2012-04-12T14:17:13Z</time>
      </trkpt>
      <trkpt lat="43.222781" lon="-3.302094">
        <ele>380.0</ele>
        <time>2012-04-12T14:17:53Z</time>
      </trkpt>
      <trkpt lat="43.222894" lon="-3.302030">
        <ele>386.0</ele>
        <time>2012-04-12T14:18:33Z</time>
      </trkpt>
      <trkpt lat="43.223011" lon="-3.301955">
        <ele>381.0</ele>
        <time>2012-04-12T14:19:13Z</time>
      </trkpt>
      <trkpt lat="43.223144" lon="-3.301858">
        <ele>381.0</ele>
        <time>2012-04-12T14:19:53Z</time>
      </trkpt>
      <trkpt lat="43.223105" lon="-3.301842">
        <ele>381.0</ele>
        <time>2012-04-12T14:20:33Z</time>
      </trkpt>
      <trkpt lat="43.223039" lon="-3.301713">
        <ele>387.0</ele>
        <time>2012-04-12T14:21:13Z</time>
      </trkpt>
      <trkpt lat="43.222996" lon="-3.301644">
        <ele>387.0</ele>
        <time>2012-04-12T14:21:53Z</time>
      </trkpt>
      <trkpt lat="43.222961" lon="-3.301601">
        <ele>387.0</ele>
        <time>2012-04-12T14:22:33Z</time>
      </trkpt>
      <trkpt lat="43.223043" lon="-3.301483">
        <ele>395.0</ele>
        <time>2012-04-12T14:23:13Z</time>
      </trkpt>
      <trkpt lat="43.223254" lon="-3.301338">
        <ele>393.0</ele>
        <time>2012-04-12T14:23:53Z</time>
      </trkpt>
      <trkpt lat="43.223457" lon="-3.301257">
        <ele>393.0</ele>
        <time>2012-04-12T14:24:33Z</time>
      </trkpt>
      <trkpt lat="43.223649" lon="-3.301209">
        <ele>401.0</ele>
        <time>2012-04-12T14:25:13Z</time>
      </trkpt>
      <trkpt lat="43.223727" lon="-3.301263">
        <ele>394.0</ele>
        <time>2012-04-12T14:25:53Z</time>
      </trkpt>
      <trkpt lat="43.223766" lon="-3.301354">
        <ele>395.0</ele>
        <time>2012-04-12T14:26:33Z</time>
      </trkpt>
      <trkpt lat="43.223891" lon="-3.301418">
        <ele>395.0</ele>
        <time>2012-04-12T14:27:13Z</time>
      </trkpt>
      <trkpt lat="43.224028" lon="-3.301429">
        <ele>395.0</ele>
        <time>2012-04-12T14:27:53Z</time>
      </trkpt>
      <trkpt lat="43.224208" lon="-3.301311">
        <ele>395.0</ele>
        <time>2012-04-12T14:28:33Z</time>
      </trkpt>
      <trkpt lat="43.224317" lon="-3.301220">
        <ele>400.0</ele>
        <time>2012-04-12T14:29:13Z</time>
      </trkpt>
      <trkpt lat="43.224399" lon="-3.301102">
        <ele>400.0</ele>
        <time>2012-04-12T14:29:53Z</time>
      </trkpt>
      <trkpt lat="43.224430" lon="-3.300941">
        <ele>406.0</ele>
        <time>2012-04-12T14:30:33Z</time>
      </trkpt>
      <trkpt lat="43.224438" lon="-3.300764">
        <ele>406.0</ele>
        <time>2012-04-12T14:31:13Z</time>
      </trkpt>
      <trkpt lat="43.224505" lon="-3.300555">
        <ele>413.0</ele>
        <time>2012-04-12T14:31:53Z</time>
      </trkpt>
      <trkpt lat="43.224563" lon="-3.300458">
        <ele>413.0</ele>
        <time>2012-04-12T14:32:33Z</time>
      </trkpt>
      <trkpt lat="43.224688" lon="-3.300399">
        <ele>417.0</ele>
        <time>2012-04-12T14:33:13Z</time>
      </trkpt>
      <trkpt lat="43.224739" lon="-3.300474">
        <ele>409.0</ele>
        <time>2012-04-12T14:33:53Z</time>
      </trkpt>
      <trkpt lat="43.224837" lon="-3.300582">
        <ele>409.0</ele>
        <time>2012-04-12T14:34:33Z</time>
      </trkpt>
      <trkpt lat="43.225021" lon="-3.300571">
        <ele>406.0</ele>
        <time>2012-04-12T14:35:13Z</time>
      </trkpt>
      <trkpt lat="43.225153" lon="-3.300458">
        <ele>403.0</ele>
        <time>2012-04-12T14:35:53Z</time>
      </trkpt>
      <trkpt lat="43.225333" lon="-3.300254">
        <ele>410.0</ele>
        <time>2012-04-12T14:36:33Z</time>
      </trkpt>
      <trkpt lat="43.225490" lon="-3.300083">
        <ele>416.0</ele>
        <time>2012-04-12T14:37:13Z</time>
      </trkpt>
      <trkpt lat="43.225646" lon="-3.300040">
        <ele>416.0</ele>
        <time>2012-04-12T14:37:53Z</time>
      </trkpt>
      <trkpt lat="43.225834" lon="-3.300088">
        <ele>413.0</ele>
        <time>2012-04-12T14:38:33Z</time>
      </trkpt>
      <trkpt lat="43.226072" lon="-3.300126">
        <ele>412.0</ele>
        <time>2012-04-12T14:39:13Z</time>
      </trkpt>
      <trkpt lat="43.226224" lon="-3.300040">
        <ele>412.0</ele>
        <time>2012-04-12T14:39:53Z</time>
      </trkpt>
      <trkpt lat="43.226342" lon="-3.299932">
        <ele>411.0</ele>
        <time>2012-04-12T14:40:33Z</time>
      </trkpt>
      <trkpt lat="43.226475" lon="-3.299713">
        <ele>421.0</ele>
        <time>2012-04-12T14:41:13Z</time>
      </trkpt>
      <trkpt lat="43.226674" lon="-3.299659">
        <ele>420.0</ele>
        <time>2012-04-12T14:41:53Z</time>
      </trkpt>
      <trkpt lat="43.226834" lon="-3.299605">
        <ele>419.0</ele>
        <time>2012-04-12T14:42:33Z</time>
      </trkpt>
      <trkpt lat="43.226948" lon="-3.299471">
        <ele>431.0</ele>
        <time>2012-04-12T14:43:13Z</time>
      </trkpt>
      <trkpt lat="43.227084" lon="-3.299385">
        <ele>431.0</ele>
        <time>2012-04-12T14:43:53Z</time>
      </trkpt>
      <trkpt lat="43.227354" lon="-3.299428">
        <ele>431.0</ele>
        <time>2012-04-12T14:44:33Z</time>
      </trkpt>
      <trkpt lat="43.227542" lon="-3.299514">
        <ele>433.0</ele>
        <time>2012-04-12T14:45:13Z</time>
      </trkpt>
      <trkpt lat="43.227706" lon="-3.299595">
        <ele>424.0</ele>
        <time>2012-04-12T14:45:53Z</time>
      </trkpt>
      <trkpt lat="43.227937" lon="-3.299589">
        <ele>426.0</ele>
        <time>2012-04-12T14:46:33Z</time>
      </trkpt>
      <trkpt lat="43.228081" lon="-3.299530">
        <ele>437.0</ele>
        <time>2012-04-12T14:47:13Z</time>
      </trkpt>
      <trkpt lat="43.228241" lon="-3.299428">
        <ele>437.0</ele>
        <time>2012-04-12T14:47:53Z</time>
      </trkpt>
      <trkpt lat="43.228421" lon="-3.299348">
        <ele>437.0</ele>
        <time>2012-04-12T14:48:33Z</time>
      </trkpt>
      <trkpt lat="43.228632" lon="-3.299224">
        <ele>445.0</ele>
        <time>2012-04-12T14:49:13Z</time>
      </trkpt>
      <trkpt lat="43.228769" lon="-3.299085">
        <ele>442.0</ele>
        <time>2012-04-12T14:49:53Z</time>
      </trkpt>
      <trkpt lat="43.228847" lon="-3.298913">
        <ele>453.0</ele>
        <time>2012-04-12T14:50:33Z</time>
      </trkpt>
      <trkpt lat="43.228937" lon="-3.298725">
        <ele>465.0</ele>
        <time>2012-04-12T14:51:13Z</time>
      </trkpt>
      <trkpt lat="43.229007" lon="-3.298602">
        <ele>465.0</ele>
        <time>2012-04-12T14:51:53Z</time>
      </trkpt>
      <trkpt lat="43.229101" lon="-3.298500">
        <ele>463.0</ele>
        <time>2012-04-12T14:52:33Z</time>
      </trkpt>
      <trkpt lat="43.229426" lon="-3.298452">
        <ele>474.0</ele>
        <time>2012-04-12T14:53:13Z</time>
      </trkpt>
      <trkpt lat="43.229660" lon="-3.298425">
        <ele>473.0</ele>
        <time>2012-04-12T14:53:53Z</time>
      </trkpt>
      <trkpt lat="43.229801" lon="-3.298280">
        <ele>473.0</ele>
        <time>2012-04-12T14:54:33Z</time>
      </trkpt>
      <trkpt lat="43.229926" lon="-3.298157">
        <ele>481.0</ele>
        <time>2012-04-12T14:55:13Z</time>
      </trkpt>
      <trkpt lat="43.230016" lon="-3.298012">
        <ele>481.0</ele>
        <time>2012-04-12T14:55:53Z</time>
      </trkpt>
      <trkpt lat="43.230188" lon="-3.297819">
        <ele>481.0</ele>
        <time>2012-04-12T14:56:33Z</time>
      </trkpt>
      <trkpt lat="43.230262" lon="-3.297642">
        <ele>481.0</ele>
        <time>2012-04-12T14:57:13Z</time>
      </trkpt>
      <trkpt lat="43.230348" lon="-3.297567">
        <ele>485.0</ele>
        <time>2012-04-12T14:57:53Z</time>
      </trkpt>
      <trkpt lat="43.230418" lon="-3.297449">
        <ele>476.0</ele>
        <time>2012-04-12T14:58:33Z</time>
      </trkpt>
      <trkpt lat="43.230446" lon="-3.297368">
        <ele>476.0</ele>
        <time>2012-04-12T14:59:13Z</time>
      </trkpt>
      <trkpt lat="43.230477" lon="-3.297277">
        <ele>479.0</ele>
        <time>2012-04-12T14:59:53Z</time>
      </trkpt>
      <trkpt lat="43.230446" lon="-3.297170">
        <ele>479.0</ele>
        <time>2012-04-12T15:00:33Z</time>
      </trkpt>
      <trkpt lat="43.230379" lon="-3.297073">
        <ele>489.0</ele>
        <time>2012-04-12T15:01:13Z</time>
      </trkpt>
      <trkpt lat="43.230274" lon="-3.296928">
        <ele>489.0</ele>
        <time>2012-04-12T15:01:53Z</time>
      </trkpt>
      <trkpt lat="43.230141" lon="-3.296843">
        <ele>489.0</ele>
        <time>2012-04-12T15:02:33Z</time>
      </trkpt>
      <trkpt lat="43.230043" lon="-3.296810">
        <ele>497.0</ele>
        <time>2012-04-12T15:03:13Z</time>
      </trkpt>
      <trkpt lat="43.229942" lon="-3.296751">
        <ele>496.0</ele>
        <time>2012-04-12T15:03:53Z</time>
      </trkpt>
      <trkpt lat="43.229695" lon="-3.296671">
        <ele>504.0</ele>
        <time>2012-04-12T15:04:33Z</time>
      </trkpt>
      <trkpt lat="43.229520" lon="-3.296580">
        <ele>511.0</ele>
        <time>2012-04-12T15:05:13Z</time>
      </trkpt>
      <trkpt lat="43.229441" lon="-3.296531">
        <ele>511.0</ele>
        <time>2012-04-12T15:05:53Z</time>
      </trkpt>
      <trkpt lat="43.229344" lon="-3.296472">
        <ele>512.0</ele>
        <time>2012-04-12T15:06:33Z</time>
      </trkpt>
      <trkpt lat="43.229238" lon="-3.296424">
        <ele>519.0</ele>
        <time>2012-04-12T15:07:13Z</time>
      </trkpt>
      <trkpt lat="43.229093" lon="-3.296360">
        <ele>519.0</ele>
        <time>2012-04-12T15:07:53Z</time>
      </trkpt>
      <trkpt lat="43.228914" lon="-3.296338">
        <ele>525.0</ele>
        <time>2012-04-12T15:08:33Z</time>
      </trkpt>
      <trkpt lat="43.228785" lon="-3.296333">
        <ele>525.0</ele>
        <time>2012-04-12T15:09:13Z</time>
      </trkpt>
      <trkpt lat="43.228691" lon="-3.296311">
        <ele>530.0</ele>
        <time>2012-04-12T15:09:53Z</time>
      </trkpt>
      <trkpt lat="43.228562" lon="-3.296328">
        <ele>530.0</ele>
        <time>2012-04-12T15:10:33Z</time>
      </trkpt>
      <trkpt lat="43.228429" lon="-3.296349">
        <ele>532.0</ele>
        <time>2012-04-12T15:11:13Z</time>
      </trkpt>
      <trkpt lat="43.228237" lon="-3.296344">
        <ele>532.0</ele>
        <time>2012-04-12T15:11:53Z</time>
      </trkpt>
      <trkpt lat="43.228155" lon="-3.296301">
        <ele>531.0</ele>
        <time>2012-04-12T15:12:33Z</time>
      </trkpt>
      <trkpt lat="43.228003" lon="-3.296279">
        <ele>531.0</ele>
        <time>2012-04-12T15:13:13Z</time>
      </trkpt>
      <trkpt lat="43.227917" lon="-3.296269">
        <ele>531.0</ele>
        <time>2012-04-12T15:13:53Z</time>
      </trkpt>
      <trkpt lat="43.227749" lon="-3.296269">
        <ele>528.0</ele>
        <time>2012-04-12T15:14:33Z</time>
      </trkpt>
      <trkpt lat="43.227436" lon="-3.296349">
        <ele>523.0</ele>
        <time>2012-04-12T15:15:13Z</time>
      </trkpt>
      <trkpt lat="43.227307" lon="-3.296392">
        <ele>519.0</ele>
        <time>2012-04-12T15:15:53Z</time>
      </trkpt>
      <trkpt lat="43.227088" lon="-3.296440">
        <ele>519.0</ele>
        <time>2012-04-12T15:16:33Z</time>
      </trkpt>
      <trkpt lat="43.226971" lon="-3.296472">
        <ele>516.0</ele>
        <time>2012-04-12T15:17:13Z</time>
      </trkpt>
      <trkpt lat="43.226740" lon="-3.296483">
        <ele>514.0</ele>
        <time>2012-04-12T15:17:53Z</time>
      </trkpt>
      <trkpt lat="43.226479" lon="-3.296483">
        <ele>515.0</ele>
        <time>2012-04-12T15:18:33Z</time>
      </trkpt>
      <trkpt lat="43.226303" lon="-3.296494">
        <ele>515.0</ele>
        <time>2012-04-12T15:19:13Z</time>
      </trkpt>
      <trkpt lat="43.226010" lon="-3.296462">
        <ele>517.0</ele>
        <time>2012-04-12T15:19:53Z</time>
      </trkpt>
      <trkpt lat="43.225763" lon="-3.296403">
        <ele>519.0</ele>
        <time>2012-04-12T15:20:33Z</time>
      </trkpt>
      <trkpt lat="43.225423" lon="-3.296290">
        <ele>521.0</ele>
        <time>2012-04-12T15:21:13Z</time>
      </trkpt>
      <trkpt lat="43.225220" lon="-3.296188">
        <ele>524.0</ele>
        <time>2012-04-12T15:21:53Z</time>
      </trkpt>
      <trkpt lat="43.225103" lon="-3.296118">
        <ele>525.0</ele>
        <time>2012-04-12T15:22:33Z</time>
      </trkpt>
      <trkpt lat="43.224989" lon="-3.296059">
        <ele>525.0</ele>
        <time>2012-04-12T15:23:13Z</time>
      </trkpt>
      <trkpt lat="43.224923" lon="-3.296054">
        <ele>525.0</ele>
        <time>2012-04-12T15:23:53Z</time>
      </trkpt>
      <trkpt lat="43.224813" lon="-3.296102">
        <ele>525.0</ele>
        <time>2012-04-12T15:24:33Z</time>
      </trkpt>
      <trkpt lat="43.224684" lon="-3.296134">
        <ele>525.0</ele>
        <time>2012-04-12T15:25:13Z</time>
      </trkpt>
      <trkpt lat="43.224508" lon="-3.296231">
        <ele>525.0</ele>
        <time>2012-04-12T15:25:53Z</time>
      </trkpt>
      <trkpt lat="43.224337" lon="-3.296446">
        <ele>525.0</ele>
        <time>2012-04-12T15:26:33Z</time>
      </trkpt>
      <trkpt lat="43.224247" lon="-3.296542">
        <ele>526.0</ele>
        <time>2012-04-12T15:27:13Z</time>
      </trkpt>
      <trkpt lat="43.224118" lon="-3.296719">
        <ele>526.0</ele>
        <time>2012-04-12T15:27:53Z</time>
      </trkpt>
      <trkpt lat="43.224075" lon="-3.296757">
        <ele>526.0</ele>
        <time>2012-04-12T15:28:33Z</time>
      </trkpt>
      <trkpt lat="43.223867" lon="-3.296821">
        <ele>528.0</ele>
        <time>2012-04-12T15:29:13Z</time>
      </trkpt>
      <trkpt lat="43.223746" lon="-3.296875">
        <ele>533.0</ele>
        <time>2012-04-12T15:29:53Z</time>
      </trkpt>
      <trkpt lat="43.223633" lon="-3.296891">
        <ele>533.0</ele>
        <time>2012-04-12T15:30:33Z</time>
      </trkpt>
      <trkpt lat="43.223543" lon="-3.296907">
        <ele>533.0</ele>
        <time>2012-04-12T15:31:13Z</time>
      </trkpt>
      <trkpt lat="43.223469" lon="-3.296912">
        <ele>537.0</ele>
        <time>2012-04-12T15:31:53Z</time>
      </trkpt>
      <trkpt lat="43.223359" lon="-3.296875">
        <ele>537.0</ele>
        <time>2012-04-12T15:32:33Z</time>
      </trkpt>
      <trkpt lat="43.223285" lon="-3.296869">
        <ele>537.0</ele>
        <time>2012-04-12T15:33:13Z</time>
      </trkpt>
      <trkpt lat="43.223148" lon="-3.296880">
        <ele>542.0</ele>
        <time>2012-04-12T15:33:53Z</time>
      </trkpt>
      <trkpt lat="43.222910" lon="-3.296928">
        <ele>547.0</ele>
        <time>2012-04-12T15:34:33Z</time>
      </trkpt>
      <trkpt lat="43.222663" lon="-3.296993">
        <ele>547.0</ele>
        <time>2012-04-12T15:35:13Z</time>
      </trkpt>
      <trkpt lat="43.222456" lon="-3.297014">
        <ele>551.0</ele>
        <time>2012-04-12T15:35:53Z</time>
      </trkpt>
      <trkpt lat="43.222300" lon="-3.297025">
        <ele>554.0</ele>
        <time>2012-04-12T15:36:33Z</time>
      </trkpt>
      <trkpt lat="43.222120" lon="-3.297041">
        <ele>554.0</ele>
        <time>2012-04-12T15:37:13Z</time>
      </trkpt>
      <trkpt lat="43.221983" lon="-3.297014">
        <ele>556.0</ele>
        <time>2012-04-12T15:37:53Z</time>
      </trkpt>
      <trkpt lat="43.221811" lon="-3.296896">
        <ele>556.0</ele>
        <time>2012-04-12T15:38:33Z</time>
      </trkpt>
      <trkpt lat="43.221702" lon="-3.296757">
        <ele>555.0</ele>
        <time>2012-04-12T15:39:13Z</time>
      </trkpt>
      <trkpt lat="43.221655" lon="-3.296574">
        <ele>555.0</ele>
        <time>2012-04-12T15:39:53Z</time>
      </trkpt>
      <trkpt lat="43.221561" lon="-3.296456">
        <ele>552.0</ele>
        <time>2012-04-12T15:40:33Z</time>
      </trkpt>
      <trkpt lat="43.221487" lon="-3.296419">
        <ele>554.0</ele>
        <time>2012-04-12T15:41:13Z</time>
      </trkpt>
      <trkpt lat="43.221338" lon="-3.296306">
        <ele>554.0</ele>
        <time>2012-04-12T15:41:53Z</time>
      </trkpt>
      <trkpt lat="43.221209" lon="-3.296226">
        <ele>556.0</ele>
        <time>2012-04-12T15:42:33Z</time>
      </trkpt>
      <trkpt lat="43.221088" lon="-3.296193">
        <ele>556.0</ele>
        <time>2012-04-12T15:43:13Z</time>
      </trkpt>
      <trkpt lat="43.220983" lon="-3.296151">
        <ele>556.0</ele>
        <time>2012-04-12T15:43:53Z</time>
      </trkpt>
      <trkpt lat="43.220834" lon="-3.296065">
        <ele>559.0</ele>
        <time>2012-04-12T15:44:33Z</time>
      </trkpt>
      <trkpt lat="43.220654" lon="-3.295979">
        <ele>562.0</ele>
        <time>2012-04-12T15:45:13Z</time>
      </trkpt>
      <trkpt lat="43.220459" lon="-3.295807">
        <ele>564.0</ele>
        <time>2012-04-12T15:45:53Z</time>
      </trkpt>
      <trkpt lat="43.220330" lon="-3.295678">
        <ele>570.0</ele>
        <time>2012-04-12T15:46:33Z</time>
      </trkpt>
      <trkpt lat="43.220162" lon="-3.295491">
        <ele>570.0</ele>
        <time>2012-04-12T15:47:13Z</time>
      </trkpt>
      <trkpt lat="43.220013" lon="-3.295185">
        <ele>576.0</ele>
        <time>2012-04-12T15:47:53Z</time>
      </trkpt>
      <trkpt lat="43.219861" lon="-3.294874">
        <ele>580.0</ele>
        <time>2012-04-12T15:48:33Z</time>
      </trkpt>
      <trkpt lat="43.219634" lon="-3.294241">
        <ele>591.0</ele>
        <time>2012-04-12T15:49:13Z</time>
      </trkpt>
      <trkpt lat="43.219442" lon="-3.293839">
        <ele>599.0</ele>
        <time>2012-04-12T15:49:53Z</time>
      </trkpt>
      <trkpt lat="43.219309" lon="-3.293549">
        <ele>604.0</ele>
        <time>2012-04-12T15:50:33Z</time>
      </trkpt>
      <trkpt lat="43.219110" lon="-3.293023">
        <ele>618.0</ele>
        <time>2012-04-12T15:51:13Z</time>
      </trkpt>
      <trkpt lat="43.218973" lon="-3.292787">
        <ele>624.0</ele>
        <time>2012-04-12T15:51:53Z</time>
      </trkpt>
      <trkpt lat="43.218805" lon="-3.292589">
        <ele>626.0</ele>
        <time>2012-04-12T15:52:33Z</time>
      </trkpt>
      <trkpt lat="43.218653" lon="-3.292465">
        <ele>625.0</ele>
        <time>2012-04-12T15:53:13Z</time>
      </trkpt>
      <trkpt lat="43.218547" lon="-3.292487">
        <ele>625.0</ele>
        <time>2012-04-12T15:53:53Z</time>
      </trkpt>
      <trkpt lat="43.218461" lon="-3.292471">
        <ele>621.0</ele>
        <time>2012-04-12T15:54:33Z</time>
      </trkpt>
      <trkpt lat="43.218418" lon="-3.292503">
        <ele>621.0</ele>
        <time>2012-04-12T15:55:13Z</time>
      </trkpt>
      <trkpt lat="43.218363" lon="-3.292632">
        <ele>621.0</ele>
        <time>2012-04-12T15:55:53Z</time>
      </trkpt>
      <trkpt lat="43.218281" lon="-3.292707">
        <ele>619.0</ele>
        <time>2012-04-12T15:56:33Z</time>
      </trkpt>
      <trkpt lat="43.218219" lon="-3.292728">
        <ele>619.0</ele>
        <time>2012-04-12T15:57:13Z</time>
      </trkpt>
      <trkpt lat="43.218062" lon="-3.292873">
        <ele>612.0</ele>
        <time>2012-04-12T15:57:53Z</time>
      </trkpt>
      <trkpt lat="43.217894" lon="-3.292943">
        <ele>600.0</ele>
        <time>2012-04-12T15:58:33Z</time>
      </trkpt>
      <trkpt lat="43.217632" lon="-3.293077">
        <ele>594.0</ele>
        <time>2012-04-12T15:59:13Z</time>
      </trkpt>
      <trkpt lat="43.217456" lon="-3.293243">
        <ele>588.0</ele>
        <time>2012-04-12T15:59:53Z</time>
      </trkpt>
      <trkpt lat="43.217343" lon="-3.293329">
        <ele>587.0</ele>
        <time>2012-04-12T16:00:33Z</time>
      </trkpt>
      <trkpt lat="43.217269" lon="-3.293356">
        <ele>587.0</ele>
        <time>2012-04-12T16:01:13Z</time>
      </trkpt>
      <trkpt lat="43.217175" lon="-3.293318">
        <ele>587.0</ele>
        <time>2012-04-12T16:01:53Z</time>
      </trkpt>
      <trkpt lat="43.217054" lon="-3.293232">
        <ele>587.0</ele>
        <time>2012-04-12T16:02:33Z</time>
      </trkpt>
      <trkpt lat="43.216886" lon="-3.293184">
        <ele>589.0</ele>
        <time>2012-04-12T16:03:13Z</time>
      </trkpt>
      <trkpt lat="43.216768" lon="-3.293136">
        <ele>589.0</ele>
        <time>2012-04-12T16:03:53Z</time>
      </trkpt>
      <trkpt lat="43.216620" lon="-3.293045">
        <ele>589.0</ele>
        <time>2012-04-12T16:04:33Z</time>
      </trkpt>
      <trkpt lat="43.216530" lon="-3.293028">
        <ele>589.0</ele>
        <time>2012-04-12T16:05:13Z</time>
      </trkpt>
      <trkpt lat="43.216346" lon="-3.293023">
        <ele>590.0</ele>
        <time>2012-04-12T16:05:53Z</time>
      </trkpt>
      <trkpt lat="43.216178" lon="-3.293071">
        <ele>591.0</ele>
        <time>2012-04-12T16:06:33Z</time>
      </trkpt>
      <trkpt lat="43.215955" lon="-3.293211">
        <ele>594.0</ele>
        <time>2012-04-12T16:07:13Z</time>
      </trkpt>
      <trkpt lat="43.215760" lon="-3.293275">
        <ele>594.0</ele>
        <time>2012-04-12T16:07:53Z</time>
      </trkpt>
      <trkpt lat="43.215564" lon="-3.293393">
        <ele>593.0</ele>
        <time>2012-04-12T16:08:33Z</time>
      </trkpt>
      <trkpt lat="43.215423" lon="-3.293517">
        <ele>596.0</ele>
        <time>2012-04-12T16:09:13Z</time>
      </trkpt>
      <trkpt lat="43.215298" lon="-3.293586">
        <ele>596.0</ele>
        <time>2012-04-12T16:09:53Z</time>
      </trkpt>
      <trkpt lat="43.215169" lon="-3.293656">
        <ele>596.0</ele>
        <time>2012-04-12T16:10:33Z</time>
      </trkpt>
      <trkpt lat="43.215033" lon="-3.293715">
        <ele>595.0</ele>
        <time>2012-04-12T16:11:13Z</time>
      </trkpt>
      <trkpt lat="43.214833" lon="-3.293887">
        <ele>598.0</ele>
        <time>2012-04-12T16:11:53Z</time>
      </trkpt>
      <trkpt lat="43.214712" lon="-3.293924">
        <ele>598.0</ele>
        <time>2012-04-12T16:12:33Z</time>
      </trkpt>
      <trkpt lat="43.214548" lon="-3.293989">
        <ele>596.0</ele>
        <time>2012-04-12T16:13:13Z</time>
      </trkpt>
      <trkpt lat="43.214458" lon="-3.294069">
        <ele>598.0</ele>
        <time>2012-04-12T16:13:53Z</time>
      </trkpt>
      <trkpt lat="43.214387" lon="-3.294107">
        <ele>598.0</ele>
        <time>2012-04-12T16:14:33Z</time>
      </trkpt>
      <trkpt lat="43.214333" lon="-3.294144">
        <ele>598.0</ele>
        <time>2012-04-12T16:15:13Z</time>
      </trkpt>
      <trkpt lat="43.214321" lon="-3.294214">
        <ele>598.0</ele>
        <time>2012-04-12T16:15:53Z</time>
      </trkpt>
      <trkpt lat="43.214169" lon="-3.294219">
        <ele>596.0</ele>
        <time>2012-04-12T16:16:33Z</time>
      </trkpt>
      <trkpt lat="43.214075" lon="-3.294139">
        <ele>596.0</ele>
        <time>2012-04-12T16:17:13Z</time>
      </trkpt>
      <trkpt lat="43.213938" lon="-3.294075">
        <ele>595.0</ele>
        <time>2012-04-12T16:17:53Z</time>
      </trkpt>
      <trkpt lat="43.213774" lon="-3.293978">
        <ele>595.0</ele>
        <time>2012-04-12T16:18:33Z</time>
      </trkpt>
      <trkpt lat="43.213641" lon="-3.293962">
        <ele>596.0</ele>
        <time>2012-04-12T16:19:13Z</time>
      </trkpt>
      <trkpt lat="43.213492" lon="-3.293940">
        <ele>596.0</ele>
        <time>2012-04-12T16:19:53Z</time>
      </trkpt>
      <trkpt lat="43.213367" lon="-3.293876">
        <ele>597.0</ele>
        <time>2012-04-12T16:20:33Z</time>
      </trkpt>
      <trkpt lat="43.213293" lon="-3.293828">
        <ele>597.0</ele>
        <time>2012-04-12T16:21:13Z</time>
      </trkpt>
      <trkpt lat="43.213234" lon="-3.293737">
        <ele>597.0</ele>
        <time>2012-04-12T16:21:53Z</time>
      </trkpt>
      <trkpt lat="43.213152" lon="-3.293667">
        <ele>601.0</ele>
        <time>2012-04-12T16:22:33Z</time>
      </trkpt>
      <trkpt lat="43.213078" lon="-3.293651">
        <ele>601.0</ele>
        <time>2012-04-12T16:23:13Z</time>
      </trkpt>
      <trkpt lat="43.213023" lon="-3.293651">
        <ele>601.0</ele>
        <time>2012-04-12T16:23:53Z</time>
      </trkpt>
      <trkpt lat="43.212871" lon="-3.293710">
        <ele>605.0</ele>
        <time>2012-04-12T16:24:33Z</time>
      </trkpt>
      <trkpt lat="43.212753" lon="-3.293710">
        <ele>605.0</ele>
        <time>2012-04-12T16:25:13Z</time>
      </trkpt>
      <trkpt lat="43.212644" lon="-3.293710">
        <ele>605.0</ele>
        <time>2012-04-12T16:25:53Z</time>
      </trkpt>
      <trkpt lat="43.212577" lon="-3.293731">
        <ele>610.0</ele>
        <time>2012-04-12T16:26:33Z</time>
      </trkpt>
      <trkpt lat="43.212343" lon="-3.293951">
        <ele>616.0</ele>
        <time>2012-04-12T16:27:13Z</time>
      </trkpt>
      <trkpt lat="43.212112" lon="-3.294112">
        <ele>616.0</ele>
        <time>2012-04-12T16:27:53Z</time>
      </trkpt>
      <trkpt lat="43.211917" lon="-3.294289">
        <ele>623.0</ele>
        <time>2012-04-12T16:28:33Z</time>
      </trkpt>
      <trkpt lat="43.211627" lon="-3.294375">
        <ele>632.0</ele>
        <time>2012-04-12T16:29:13Z</time>
      </trkpt>
      <trkpt lat="43.211225" lon="-3.294482">
        <ele>647.0</ele>
        <time>2012-04-12T16:29:53Z</time>
      </trkpt>
      <trkpt lat="43.211037" lon="-3.294531">
        <ele>647.0</ele>
        <time>2012-04-12T16:30:33Z</time>
      </trkpt>
      <trkpt lat="43.210701" lon="-3.294622">
        <ele>654.0</ele>
        <time>2012-04-12T16:31:13Z</time>
      </trkpt>
      <trkpt lat="43.210642" lon="-3.294654">
        <ele>658.0</ele>
        <time>2012-04-12T16:31:53Z</time>
      </trkpt>
      <trkpt lat="43.210548" lon="-3.294729">
        <ele>658.0</ele>
        <time>2012-04-12T16:32:33Z</time>
      </trkpt>
      <trkpt lat="43.210513" lon="-3.294799">
        <ele>658.0</ele>
        <time>2012-04-12T16:33:13Z</time>
      </trkpt>
      <trkpt lat="43.210427" lon="-3.294879">
        <ele>658.0</ele>
        <time>2012-04-12T16:33:53Z</time>
      </trkpt>
      <trkpt lat="43.210388" lon="-3.294879">
        <ele>661.0</ele>
        <time>2012-04-12T16:34:33Z</time>
      </trkpt>
      <trkpt lat="43.210263" lon="-3.294890">
        <ele>661.0</ele>
        <time>2012-04-12T16:35:13Z</time>
      </trkpt>
      <trkpt lat="43.210138" lon="-3.294895">
        <ele>662.0</ele>
        <time>2012-04-12T16:35:53Z</time>
      </trkpt>
      <trkpt lat="43.210040" lon="-3.294981">
        <ele>662.0</ele>
        <time>2012-04-12T16:36:33Z</time>
      </trkpt>
      <trkpt lat="43.209981" lon="-3.295062">
        <ele>662.0</ele>
        <time>2012-04-12T16:37:13Z</time>
      </trkpt>
      <trkpt lat="43.209895" lon="-3.295164">
        <ele>662.0</ele>
        <time>2012-04-12T16:37:53Z</time>
      </trkpt>
      <trkpt lat="43.209723" lon="-3.295464">
        <ele>663.0</ele>
        <time>2012-04-12T16:38:33Z</time>
      </trkpt>
      <trkpt lat="43.209614" lon="-3.295609">
        <ele>663.0</ele>
        <time>2012-04-12T16:39:13Z</time>
      </trkpt>
      <trkpt lat="43.209485" lon="-3.295807">
        <ele>661.0</ele>
        <time>2012-04-12T16:39:53Z</time>
      </trkpt>
      <trkpt lat="43.209336" lon="-3.296033">
        <ele>661.0</ele>
        <time>2012-04-12T16:40:33Z</time>
      </trkpt>
      <trkpt lat="43.209133" lon="-3.296338">
        <ele>660.0</ele>
        <time>2012-04-12T16:41:13Z</time>
      </trkpt>
      <trkpt lat="43.208996" lon="-3.296531">
        <ele>659.0</ele>
        <time>2012-04-12T16:41:53Z</time>
      </trkpt>
      <trkpt lat="43.208832" lon="-3.296784">
        <ele>659.0</ele>
        <time>2012-04-12T16:42:33Z</time>
      </trkpt>
      <trkpt lat="43.208687" lon="-3.296987">
        <ele>658.0</ele>
        <time>2012-04-12T16:43:13Z</time>
      </trkpt>
      <trkpt lat="43.208546" lon="-3.297164">
        <ele>657.0</ele>
        <time>2012-04-12T16:43:53Z</time>
      </trkpt>
      <trkpt lat="43.208437" lon="-3.297288">
        <ele>657.0</ele>
        <time>2012-04-12T16:44:33Z</time>
      </trkpt>
      <trkpt lat="43.208245" lon="-3.297379">
        <ele>657.0</ele>
        <time>2012-04-12T16:45:13Z</time>
      </trkpt>
      <trkpt lat="43.208077" lon="-3.297422">
        <ele>658.0</ele>
        <time>2012-04-12T16:45:53Z</time>
      </trkpt>
      <trkpt lat="43.207827" lon="-3.297492">
        <ele>660.0</ele>
        <time>2012-04-12T16:46:33Z</time>
      </trkpt>
      <trkpt lat="43.207745" lon="-3.297578">
        <ele>660.0</ele>
        <time>2012-04-12T16:47:13Z</time>
      </trkpt>
      <trkpt lat="43.207729" lon="-3.297395">
        <ele>660.0</ele>
        <time>2012-04-12T16:47:53Z</time>
      </trkpt>
      <trkpt lat="43.207608" lon="-3.296998">
        <ele>661.0</ele>
        <time>2012-04-12T16:48:33Z</time>
      </trkpt>
      <trkpt lat="43.207475" lon="-3.296832">
        <ele>661.0</ele>
        <time>2012-04-12T16:49:13Z</time>
      </trkpt>
      <trkpt lat="43.207225" lon="-3.296548">
        <ele>664.0</ele>
        <time>2012-04-12T16:49:53Z</time>
      </trkpt>
      <trkpt lat="43.207049" lon="-3.296371">
        <ele>666.0</ele>
        <time>2012-04-12T16:50:33Z</time>
      </trkpt>
      <trkpt lat="43.206912" lon="-3.296387">
        <ele>666.0</ele>
        <time>2012-04-12T16:51:13Z</time>
      </trkpt>
      <trkpt lat="43.206709" lon="-3.296392">
        <ele>672.0</ele>
        <time>2012-04-12T16:51:53Z</time>
      </trkpt>
      <trkpt lat="43.206580" lon="-3.296397">
        <ele>672.0</ele>
        <time>2012-04-12T16:52:33Z</time>
      </trkpt>
      <trkpt lat="43.206490" lon="-3.296311">
        <ele>676.0</ele>
        <time>2012-04-12T16:53:13Z</time>
      </trkpt>
      <trkpt lat="43.206443" lon="-3.296151">
        <ele>674.0</ele>
        <time>2012-04-12T16:53:53Z</time>
      </trkpt>
      <trkpt lat="43.206427" lon="-3.296000">
        <ele>674.0</ele>
        <time>2012-04-12T16:54:33Z</time>
      </trkpt>
      <trkpt lat="43.206376" lon="-3.295850">
        <ele>671.0</ele>
        <time>2012-04-12T16:55:13Z</time>
      </trkpt>
      <trkpt lat="43.206263" lon="-3.295738">
        <ele>671.0</ele>
        <time>2012-04-12T16:55:53Z</time>
      </trkpt>
      <trkpt lat="43.206173" lon="-3.295625">
        <ele>671.0</ele>
        <time>2012-04-12T16:56:33Z</time>
      </trkpt>
      <trkpt lat="43.205966" lon="-3.295695">
        <ele>674.0</ele>
        <time>2012-04-12T16:57:13Z</time>
      </trkpt>
      <trkpt lat="43.205743" lon="-3.295630">
        <ele>673.0</ele>
        <time>2012-04-12T16:57:53Z</time>
      </trkpt>
      <trkpt lat="43.205661" lon="-3.295587">
        <ele>672.0</ele>
        <time>2012-04-12T16:58:33Z</time>
      </trkpt>
      <trkpt lat="43.205434" lon="-3.295501">
        <ele>672.0</ele>
        <time>2012-04-12T16:59:13Z</time>
      </trkpt>
      <trkpt lat="43.205086" lon="-3.295287">
        <ele>671.0</ele>
        <time>2012-04-12T16:59:53Z</time>
      </trkpt>
      <trkpt lat="43.204965" lon="-3.295185">
        <ele>671.0</ele>
        <time>2012-04-12T17:00:33Z</time>
      </trkpt>
      <trkpt lat="43.204660" lon="-3.294777">
        <ele>679.0</ele>
        <time>2012-04-12T17:01:13Z</time>
      </trkpt>
      <trkpt lat="43.204492" lon="-3.294563">
        <ele>684.0</ele>
        <time>2012-04-12T17:01:53Z</time>
      </trkpt>
      <trkpt lat="43.204437" lon="-3.294353">
        <ele>684.0</ele>
        <time>2012-04-12T17:02:33Z</time>
      </trkpt>
      <trkpt lat="43.204163" lon="-3.293962">
        <ele>693.0</ele>
        <time>2012-04-12T17:03:13Z</time>
      </trkpt>
      <trkpt lat="43.204018" lon="-3.293678">
        <ele>698.0</ele>
        <time>2012-04-12T17:03:53Z</time>
      </trkpt>
      <trkpt lat="43.203964" lon="-3.293533">
        <ele>698.0</ele>
        <time>2012-04-12T17:04:33Z</time>
      </trkpt>
      <trkpt lat="43.203870" lon="-3.293383">
        <ele>701.0</ele>
        <time>2012-04-12T17:05:13Z</time>
      </trkpt>
      <trkpt lat="43.203620" lon="-3.292862">
        <ele>705.0</ele>
        <time>2012-04-12T17:05:53Z</time>
      </trkpt>
      <trkpt lat="43.203569" lon="-3.292723">
        <ele>705.0</ele>
        <time>2012-04-12T17:06:33Z</time>
      </trkpt>
      <trkpt lat="43.203526" lon="-3.292626">
        <ele>706.0</ele>
        <time>2012-04-12T17:07:13Z</time>
      </trkpt>
      <trkpt lat="43.203444" lon="-3.292487">
        <ele>705.0</ele>
        <time>2012-04-12T17:07:53Z</time>
      </trkpt>
      <trkpt lat="43.203401" lon="-3.292331">
        <ele>707.0</ele>
        <time>2012-04-12T17:08:33Z</time>
      </trkpt>
      <trkpt lat="43.203354" lon="-3.292208">
        <ele>707.0</ele>
        <time>2012-04-12T17:09:13Z</time>
      </trkpt>
      <trkpt lat="43.203264" lon="-3.291950">
        <ele>710.0</ele>
        <time>2012-04-12T17:09:53Z</time>
      </trkpt>
      <trkpt lat="43.203186" lon="-3.291687">
        <ele>711.0</ele>
        <time>2012-04-12T17:10:33Z</time>
      </trkpt>
      <trkpt lat="43.202990" lon="-3.291253">
        <ele>713.0</ele>
        <time>2012-04-12T17:11:13Z</time>
      </trkpt>
      <trkpt lat="43.202736" lon="-3.290877">
        <ele>712.0</ele>
        <time>2012-04-12T17:11:53Z</time>
      </trkpt>
      <trkpt lat="43.202568" lon="-3.290620">
        <ele>711.0</ele>
        <time>2012-04-12T17:12:33Z</time>
      </trkpt>
      <trkpt lat="43.202454" lon="-3.290346">
        <ele>711.0</ele>
        <time>2012-04-12T17:13:13Z</time>
      </trkpt>
      <trkpt lat="43.202423" lon="-3.290164">
        <ele>711.0</ele>
        <time>2012-04-12T17:13:53Z</time>
      </trkpt>
      <trkpt lat="43.202427" lon="-3.290008">
        <ele>710.0</ele>
        <time>2012-04-12T17:14:33Z</time>
      </trkpt>
      <trkpt lat="43.202357" lon="-3.290008">
        <ele>711.0</ele>
        <time>2012-04-12T17:15:13Z</time>
      </trkpt>
      <trkpt lat="43.202294" lon="-3.290040">
        <ele>711.0</ele>
        <time>2012-04-12T17:15:53Z</time>
      </trkpt>
      <trkpt lat="43.202235" lon="-3.289998">
        <ele>711.0</ele>
        <time>2012-04-12T17:16:33Z</time>
      </trkpt>
      <trkpt lat="43.202212" lon="-3.289992">
        <ele>711.0</ele>
        <time>2012-04-12T17:17:13Z</time>
      </trkpt>
      <trkpt lat="43.202141" lon="-3.289821">
        <ele>709.0</ele>
        <time>2012-04-12T17:17:53Z</time>
      </trkpt>
      <trkpt lat="43.202020" lon="-3.289601">
        <ele>709.0</ele>
        <time>2012-04-12T17:18:33Z</time>
      </trkpt>
      <trkpt lat="43.201879" lon="-3.289300">
        <ele>706.0</ele>
        <time>2012-04-12T17:19:13Z</time>
      </trkpt>
      <trkpt lat="43.201813" lon="-3.289171">
        <ele>706.0</ele>
        <time>2012-04-12T17:19:53Z</time>
      </trkpt>
      <trkpt lat="43.201723" lon="-3.288984">
        <ele>702.0</ele>
        <time>2012-04-12T17:20:33Z</time>
      </trkpt>
      <trkpt lat="43.201629" lon="-3.288893">
        <ele>702.0</ele>
        <time>2012-04-12T17:21:13Z</time>
      </trkpt>
      <trkpt lat="43.201414" lon="-3.288608">
        <ele>699.0</ele>
        <time>2012-04-12T17:21:53Z</time>
      </trkpt>
      <trkpt lat="43.201203" lon="-3.288367">
        <ele>696.0</ele>
        <time>2012-04-12T17:22:33Z</time>
      </trkpt>
      <trkpt lat="43.201023" lon="-3.288141">
        <ele>695.0</ele>
        <time>2012-04-12T17:23:13Z</time>
      </trkpt>
      <trkpt lat="43.200710" lon="-3.287782">
        <ele>694.0</ele>
        <time>2012-04-12T17:23:53Z</time>
      </trkpt>
      <trkpt lat="43.200534" lon="-3.287562">
        <ele>694.0</ele>
        <time>2012-04-12T17:24:33Z</time>
      </trkpt>
      <trkpt lat="43.200210" lon="-3.287390">
        <ele>695.0</ele>
        <time>2012-04-12T17:25:13Z</time>
      </trkpt>
      <trkpt lat="43.200077" lon="-3.287305">
        <ele>697.0</ele>
        <time>2012-04-12T17:25:53Z</time>
      </trkpt>
      <trkpt lat="43.199889" lon="-3.287181">
        <ele>697.0</ele>
        <time>2012-04-12T17:26:33Z</time>
      </trkpt>
      <trkpt lat="43.199838" lon="-3.287079">
        <ele>700.0</ele>
        <time>2012-04-12T17:27:13Z</time>
      </trkpt>
      <trkpt lat="43.199760" lon="-3.287015">
        <ele>700.0</ele>
        <time>2012-04-12T17:27:53Z</time>
      </trkpt>
      <trkpt lat="43.199564" lon="-3.286902">
        <ele>702.0</ele>
        <time>2012-04-12T17:28:33Z</time>
      </trkpt>
      <trkpt lat="43.199424" lon="-3.286768">
        <ele>702.0</ele>
        <time>2012-04-12T17:29:13Z</time>
      </trkpt>
      <trkpt lat="43.199240" lon="-3.286661">
        <ele>705.0</ele>
        <time>2012-04-12T17:29:53Z</time>
      </trkpt>
      <trkpt lat="43.199126" lon="-3.286575">
        <ele>705.0</ele>
        <time>2012-04-12T17:30:33Z</time>
      </trkpt>
      <trkpt lat="43.198994" lon="-3.286436">
        <ele>708.0</ele>
        <time>2012-04-12T17:31:13Z</time>
      </trkpt>
      <trkpt lat="43.198853" lon="-3.286307">
        <ele>708.0</ele>
        <time>2012-04-12T17:31:53Z</time>
      </trkpt>
      <trkpt lat="43.198665" lon="-3.286151">
        <ele>712.0</ele>
        <time>2012-04-12T17:32:33Z</time>
      </trkpt>
      <trkpt lat="43.198520" lon="-3.286092">
        <ele>712.0</ele>
        <time>2012-04-12T17:33:13Z</time>
      </trkpt>
      <trkpt lat="43.198403" lon="-3.286114">
        <ele>717.0</ele>
        <time>2012-04-12T17:33:53Z</time>
      </trkpt>
      <trkpt lat="43.198372" lon="-3.286146">
        <ele>717.0</ele>
        <time>2012-04-12T17:34:33Z</time>
      </trkpt>
      <trkpt lat="43.198317" lon="-3.286210">
        <ele>717.0</ele>
        <time>2012-04-12T17:35:13Z</time>
      </trkpt>
      <trkpt lat="43.198258" lon="-3.286221">
        <ele>717.0</ele>
        <time>2012-04-12T17:35:53Z</time>
      </trkpt>
      <trkpt lat="43.198208" lon="-3.286237">
        <ele>717.0</ele>
        <time>2012-04-12T17:36:33Z</time>
      </trkpt>
      <trkpt lat="43.198102" lon="-3.286269">
        <ele>720.0</ele>
        <time>2012-04-12T17:37:13Z</time>
      </trkpt>
      <trkpt lat="43.198020" lon="-3.286269">
        <ele>720.0</ele>
        <time>2012-04-12T17:37:53Z</time>
      </trkpt>
      <trkpt lat="43.197902" lon="-3.286301">
        <ele>723.0</ele>
        <time>2012-04-12T17:38:33Z</time>
      </trkpt>
      <trkpt lat="43.197742" lon="-3.285980">
        <ele>725.0</ele>
        <time>2012-04-12T17:39:13Z</time>
      </trkpt>
      <trkpt lat="43.197707" lon="-3.285808">
        <ele>726.0</ele>
        <time>2012-04-12T17:39:53Z</time>
      </trkpt>
      <trkpt lat="43.197648" lon="-3.285738">
        <ele>726.0</ele>
        <time>2012-04-12T17:40:33Z</time>
      </trkpt>
      <trkpt lat="43.197476" lon="-3.285449">
        <ele>728.0</ele>
        <time>2012-04-12T17:41:13Z</time>
      </trkpt>
      <trkpt lat="43.197355" lon="-3.285180">
        <ele>729.0</ele>
        <time>2012-04-12T17:41:53Z</time>
      </trkpt>
      <trkpt lat="43.197070" lon="-3.284698">
        <ele>729.0</ele>
        <time>2012-04-12T17:42:33Z</time>
      </trkpt>
      <trkpt lat="43.196964" lon="-3.284622">
        <ele>729.0</ele>
        <time>2012-04-12T17:43:13Z</time>
      </trkpt>
      <trkpt lat="43.196831" lon="-3.284488">
        <ele>731.0</ele>
        <time>2012-04-12T17:43:53Z</time>
      </trkpt>
      <trkpt lat="43.196784" lon="-3.284402">
        <ele>731.0</ele>
        <time>2012-04-12T17:44:33Z</time>
      </trkpt>
      <trkpt lat="43.196737" lon="-3.284295">
        <ele>735.0</ele>
        <time>2012-04-12T17:45:13Z</time>
      </trkpt>
      <trkpt lat="43.196706" lon="-3.284177">
        <ele>735.0</ele>
        <time>2012-04-12T17:45:53Z</time>
      </trkpt>
      <trkpt lat="43.196706" lon="-3.284124">
        <ele>735.0</ele>
        <time>2012-04-12T17:46:33Z</time>
      </trkpt>
      <trkpt lat="43.196702" lon="-3.284043">
        <ele>735.0</ele>
        <time>2012-04-12T17:47:13Z</time>
      </trkpt>
      <trkpt lat="43.196694" lon="-3.283936">
        <ele>739.0</ele>
        <time>2012-04-12T17:47:53Z</time>
      </trkpt>
      <trkpt lat="43.196671" lon="-3.283834">
        <ele>739.0</ele>
        <time>2012-04-12T17:48:33Z</time>
      </trkpt>
      <trkpt lat="43.196682" lon="-3.283700">
        <ele>745.0</ele>
        <time>2012-04-12T17:49:13Z</time>
      </trkpt>
      <trkpt lat="43.196678" lon="-3.283576">
        <ele>745.0</ele>
        <time>2012-04-12T17:49:53Z</time>
      </trkpt>
      <trkpt lat="43.196675" lon="-3.283453">
        <ele>750.0</ele>
        <time>2012-04-12T17:50:33Z</time>
      </trkpt>
      <trkpt lat="43.196643" lon="-3.283421">
        <ele>750.0</ele>
        <time>2012-04-12T17:51:13Z</time>
      </trkpt>
      <trkpt lat="43.196616" lon="-3.283426">
        <ele>750.0</ele>
        <time>2012-04-12T17:51:53Z</time>
      </trkpt>
      <trkpt lat="43.196616" lon="-3.283399">
        <ele>750.0</ele>
        <time>2012-04-12T17:52:33Z</time>
      </trkpt>
      <trkpt lat="43.196624" lon="-3.283340">
        <ele>750.0</ele>
        <time>2012-04-12T17:53:13Z</time>
      </trkpt>
      <trkpt lat="43.196557" lon="-3.283314">
        <ele>750.0</ele>
        <time>2012-04-12T17:53:53Z</time>
      </trkpt>
      <trkpt lat="43.196569" lon="-3.283222">
        <ele>750.0</ele>
        <time>2012-04-12T17:54:33Z</time>
      </trkpt>
      <trkpt lat="43.196526" lon="-3.283201">
        <ele>757.0</ele>
        <time>2012-04-12T17:55:13Z</time>
      </trkpt>
      <trkpt lat="43.196538" lon="-3.283126">
        <ele>756.0</ele>
        <time>2012-04-12T17:55:53Z</time>
      </trkpt>
      <trkpt lat="43.196510" lon="-3.283099">
        <ele>765.0</ele>
        <time>2012-04-12T17:56:33Z</time>
      </trkpt>
      <trkpt lat="43.196522" lon="-3.283035">
        <ele>765.0</ele>
        <time>2012-04-12T17:57:13Z</time>
      </trkpt>
      <trkpt lat="43.196487" lon="-3.283029">
        <ele>765.0</ele>
        <time>2012-04-12T17:57:53Z</time>
      </trkpt>
      <trkpt lat="43.196495" lon="-3.282863">
        <ele>772.0</ele>
        <time>2012-04-12T17:58:33Z</time>
      </trkpt>
      <trkpt lat="43.196471" lon="-3.282863">
        <ele>772.0</ele>
        <time>2012-04-12T17:59:13Z</time>
      </trkpt>
      <trkpt lat="43.196452" lon="-3.282745">
        <ele>772.0</ele>
        <time>2012-04-12T17:59:53Z</time>
      </trkpt>
      <trkpt lat="43.196409" lon="-3.282723">
        <ele>772.0</ele>
        <time>2012-04-12T18:00:33Z</time>
      </trkpt>
      <trkpt lat="43.196440" lon="-3.282648">
        <ele>772.0</ele>
        <time>2012-04-12T18:01:13Z</time>
      </trkpt>
      <trkpt lat="43.196389" lon="-3.282643">
        <ele>772.0</ele>
        <time>2012-04-12T18:01:53Z</time>
      </trkpt>
      <trkpt lat="43.196381" lon="-3.282557">
        <ele>780.0</ele>
        <time>2012-04-12T18:02:33Z</time>
      </trkpt>
      <trkpt lat="43.196354" lon="-3.282616">
        <ele>780.0</ele>
        <time>2012-04-12T18:03:13Z</time>
      </trkpt>
      <trkpt lat="43.196389" lon="-3.282520">
        <ele>780.0</ele>
        <time>2012-04-12T18:03:53Z</time>
      </trkpt>
      <trkpt lat="43.196338" lon="-3.282487">
        <ele>780.0</ele>
        <time>2012-04-12T18:04:33Z</time>
      </trkpt>
      <trkpt lat="43.196334" lon="-3.282423">
        <ele>780.0</ele>
        <time>2012-04-12T18:05:13Z</time>
      </trkpt>
      <trkpt lat="43.196307" lon="-3.282434">
        <ele>780.0</ele>
        <time>2012-04-12T18:05:53Z</time>
      </trkpt>
      <trkpt lat="43.196323" lon="-3.282273">
        <ele>787.0</ele>
        <time>2012-04-12T18:06:33Z</time>
      </trkpt>
      <trkpt lat="43.196233" lon="-3.282337">
        <ele>797.0</ele>
        <time>2012-04-12T18:07:13Z</time>
      </trkpt>
      <trkpt lat="43.196268" lon="-3.282198">
        <ele>787.0</ele>
        <time>2012-04-12T18:07:53Z</time>
      </trkpt>
      <trkpt lat="43.196190" lon="-3.282310">
        <ele>797.0</ele>
        <time>2012-04-12T18:08:33Z</time>
      </trkpt>
      <trkpt lat="43.196131" lon="-3.282321">
        <ele>797.0</ele>
        <time>2012-04-12T18:09:13Z</time>
      </trkpt>
      <trkpt lat="43.196096" lon="-3.282364">
        <ele>789.0</ele>
        <time>2012-04-12T18:09:53Z</time>
      </trkpt>
      <trkpt lat="43.196080" lon="-3.282375">
        <ele>789.0</ele>
        <time>2012-04-12T18:10:33Z</time>
      </trkpt>
      <trkpt lat="43.196018" lon="-3.282391">
        <ele>789.0</ele>
        <time>2012-04-12T18:11:13Z</time>
      </trkpt>
      <trkpt lat="43.195994" lon="-3.282391">
        <ele>789.0</ele>
        <time>2012-04-12T18:11:53Z</time>
      </trkpt>
      <trkpt lat="43.195931" lon="-3.282407">
        <ele>794.0</ele>
        <time>2012-04-12T18:12:33Z</time>
      </trkpt>
      <trkpt lat="43.195900" lon="-3.282407">
        <ele>794.0</ele>
        <time>2012-04-12T18:13:13Z</time>
      </trkpt>
      <trkpt lat="43.195865" lon="-3.282364">
        <ele>794.0</ele>
        <time>2012-04-12T18:13:53Z</time>
      </trkpt>
      <trkpt lat="43.195873" lon="-3.282257">
        <ele>804.0</ele>
        <time>2012-04-12T18:14:33Z</time>
      </trkpt>
      <trkpt lat="43.195853" lon="-3.282149">
        <ele>804.0</ele>
        <time>2012-04-12T18:15:13Z</time>
      </trkpt>
      <trkpt lat="43.195826" lon="-3.282058">
        <ele>812.0</ele>
        <time>2012-04-12T18:15:53Z</time>
      </trkpt>
      <trkpt lat="43.195818" lon="-3.282026">
        <ele>812.0</ele>
        <time>2012-04-12T18:16:33Z</time>
      </trkpt>
      <trkpt lat="43.195834" lon="-3.281935">
        <ele>812.0</ele>
        <time>2012-04-12T18:17:13Z</time>
      </trkpt>
      <trkpt lat="43.195869" lon="-3.281849">
        <ele>812.0</ele>
        <time>2012-04-12T18:17:53Z</time>
      </trkpt>
      <trkpt lat="43.195885" lon="-3.281726">
        <ele>819.0</ele>
        <time>2012-04-12T18:18:33Z</time>
      </trkpt>
      <trkpt lat="43.195896" lon="-3.281640">
        <ele>819.0</ele>
        <time>2012-04-12T18:19:13Z</time>
      </trkpt>
      <trkpt lat="43.195849" lon="-3.281602">
        <ele>819.0</ele>
        <time>2012-04-12T18:19:53Z</time>
      </trkpt>
      <trkpt lat="43.195783" lon="-3.281608">
        <ele>819.0</ele>
        <time>2012-04-12T18:20:33Z</time>
      </trkpt>
      <trkpt lat="43.195740" lon="-3.281629">
        <ele>819.0</ele>
        <time>2012-04-12T18:21:13Z</time>
      </trkpt>
      <trkpt lat="43.195697" lon="-3.281640">
        <ele>819.0</ele>
        <time>2012-04-12T18:21:53Z</time>
      </trkpt>
      <trkpt lat="43.195671" lon="-3.281663">
        <ele>823.0</ele>
        <time>2012-04-12T18:22:33Z</time>
      </trkpt>
      <trkpt lat="43.195674" lon="-3.281608">
        <ele>823.0</ele>
        <time>2012-04-12T18:23:13Z</time>
      </trkpt>
      <trkpt lat="43.195643" lon="-3.281642">
        <ele>823.0</ele>
        <time>2012-04-12T18:23:53Z</time>
      </trkpt>
      <trkpt lat="43.195652" lon="-3.281570">
        <ele>823.0</ele>
        <time>2012-04-12T18:24:33Z</time>
      </trkpt>
      <trkpt lat="43.195631" lon="-3.281616">
        <ele>823.0</ele>
        <time>2012-04-12T18:25:13Z</time>
      </trkpt>
      <trkpt lat="43.195645" lon="-3.281551">
        <ele>823.0</ele>
        <time>2012-04-12T18:25:53Z</time>
      </trkpt>
      <trkpt lat="43.195614" lon="-3.281555">
        <ele>823.0</ele>
        <time>2012-04-12T18:26:33Z</time>
      </trkpt>
      <trkpt lat="43.195634" lon="-3.281527">
        <ele>830.0</ele>
        <time>2012-04-12T18:27:13Z</time>
      </trkpt>
      <trkpt lat="43.195604" lon="-3.281539">
        <ele>823.0</ele>
        <time>2012-04-12T18:27:53Z</time>
      </trkpt>
      <trkpt lat="43.195615" lon="-3.281490">
        <ele>830.0</ele>
        <time>2012-04-12T18:28:33Z</time>
      </trkpt>
      <trkpt lat="43.195585" lon="-3.281518">
        <ele>830.0</ele>
        <time>2012-04-12T18:29:13Z</time>
      </trkpt>
      <trkpt lat="43.195595" lon="-3.281467">
        <ele>830.0</ele>
        <time>2012-04-12T18:29:53Z</time>
      </trkpt>
      <trkpt lat="43.195572" lon="-3.281498">
        <ele>830.0</ele>
        <time>2012-04-12T18:30:33Z</time>
      </trkpt>
      <trkpt lat="43.195573" lon="-3.281448">
        <ele>830.0</ele>
        <time>2012-04-12T18:31:13Z</time>
      </trkpt>
      <trkpt lat="43.195561" lon="-3.281457">
        <ele>830.0</ele>
        <time>2012-04-12T18:31:53Z</time>
      </trkpt>
      <trkpt lat="43.195557" lon="-3.281428">
        <ele>830.0</ele>
        <time>2012-04-12T18:32:33Z</time>
      </trkpt>
      <trkpt lat="43.195535" lon="-3.281428">
        <ele>830.0</ele>
        <time>2012-04-12T18:33:13Z</time>
      </trkpt>
      <trkpt lat="43.195546" lon="-3.281400">
        <ele>830.0</ele>
        <time>2012-04-12T18:33:53Z</time>
      </trkpt>
      <trkpt lat="43.195540" lon="-3.281372">
        <ele>830.0</ele>
        <time>2012-04-12T18:34:33Z</time>
      </trkpt>
      <trkpt lat="43.195514" lon="-3.281325">
        <ele>830.0</ele>
        <time>2012-04-12T18:35:13Z</time>
      </trkpt>
      <trkpt lat="43.195508" lon="-3.281309">
        <ele>830.0</ele>
        <time>2012-04-12T18:35:53Z</time>
      </trkpt>
      <trkpt lat="43.195516" lon="-3.281267">
        <ele>830.0</ele>
        <time>2012-04-12T18:36:33Z</time>
      </trkpt>
      <trkpt lat="43.195488" lon="-3.281266">
        <ele>830.0</ele>
        <time>2012-04-12T18:37:13Z</time>
      </trkpt>
      <trkpt lat="43.195478" lon="-3.281264">
        <ele>830.0</ele>
        <time>2012-04-12T18:37:53Z</time>
      </trkpt>
      <trkpt lat="43.195462" lon="-3.281266">
        <ele>830.0</ele>
        <time>2012-04-12T18:38:33Z</time>
      </trkpt>
      <trkpt lat="43.195449" lon="-3.281264">
        <ele>830.0</ele>
        <time>2012-04-12T18:39:13Z</time>
      </trkpt>
      <trkpt lat="43.195428" lon="-3.281266">
        <ele>830.0</ele>
        <time>2012-04-12T18:39:53Z</time>
      </trkpt>
      <trkpt lat="43.195418" lon="-3.281237">
        <ele>835.0</ele>
        <time>2012-04-12T18:40:33Z</time>
      </trkpt>
      <trkpt lat="43.195413" lon="-3.281209">
        <ele>839.0</ele>
        <time>2012-04-12T18:41:13Z</time>
      </trkpt>
      <trkpt lat="43.195406" lon="-3.281161">
        <ele>839.0</ele>
        <time>2012-04-12T18:41:53Z</time>
      </trkpt>
      <trkpt lat="43.195402" lon="-3.281126">
        <ele>839.0</ele>
        <time>2012-04-12T18:42:33Z</time>
      </trkpt>
      <trkpt lat="43.195407" lon="-3.281089">
        <ele>839.0</ele>
        <time>2012-04-12T18:43:13Z</time>
      </trkpt>
      <trkpt lat="43.195418" lon="-3.281035">
        <ele>835.0</ele>
        <time>2012-04-12T18:43:53Z</time>
      </trkpt>
      <trkpt lat="43.195400" lon="-3.281022">
        <ele>839.0</ele>
        <time>2012-04-12T18:44:33Z</time>
      </trkpt>
      <trkpt lat="43.195364" lon="-3.280985">
        <ele>839.0</ele>
        <time>2012-04-12T18:45:13Z</time>
      </trkpt>
      <trkpt lat="43.195350" lon="-3.280949">
        <ele>846.0</ele>
        <time>2012-04-12T18:45:53Z</time>
      </trkpt>
      <trkpt lat="43.195334" lon="-3.280934">
        <ele>846.0</ele>
        <time>2012-04-12T18:46:33Z</time>
      </trkpt>
      <trkpt lat="43.195328" lon="-3.280886">
        <ele>846.0</ele>
        <time>2012-04-12T18:47:13Z</time>
      </trkpt>
      <trkpt lat="43.195335" lon="-3.280866">
        <ele>846.0</ele>
        <time>2012-04-12T18:47:53Z</time>
      </trkpt>
      <trkpt lat="43.195340" lon="-3.280822">
        <ele>846.0</ele>
        <time>2012-04-12T18:48:33Z</time>
      </trkpt>
      <trkpt lat="43.195341" lon="-3.280782">
        <ele>846.0</ele>
        <time>2012-04-12T18:49:13Z</time>
      </trkpt>
      <trkpt lat="43.195342" lon="-3.280733">
        <ele>846.0</ele>
        <time>2012-04-12T18:49:53Z</time>
      </trkpt>
      <trkpt lat="43.195342" lon="-3.280684">
        <ele>852.0</ele>
        <time>2012-04-12T18:50:33Z</time>
      </trkpt>
      <trkpt lat="43.195340" lon="-3.280653">
        <ele>852.0</ele>
        <time>2012-04-12T18:51:13Z</time>
      </trkpt>
      <trkpt lat="43.195340" lon="-3.280619">
        <ele>852.0</ele>
        <time>2012-04-12T18:51:53Z</time>
      </trkpt>
      <trkpt lat="43.195318" lon="-3.280591">
        <ele>852.0</ele>
        <time>2012-04-12T18:52:33Z</time>
      </trkpt>
      <trkpt lat="43.195305" lon="-3.280591">
        <ele>852.0</ele>
        <time>2012-04-12T18:53:13Z</time>
      </trkpt>
      <trkpt lat="43.195285" lon="-3.280622">
        <ele>852.0</ele>
        <time>2012-04-12T18:53:53Z</time>
      </trkpt>
      <trkpt lat="43.195284" lon="-3.280566">
        <ele>852.0</ele>
        <time>2012-04-12T18:54:33Z</time>
      </trkpt>
      <trkpt lat="43.195271" lon="-3.280629">
        <ele>852.0</ele>
        <time>2012-04-12T18:55:13Z</time>
      </trkpt>
      <trkpt lat="43.195272" lon="-3.280572">
        <ele>852.0</ele>
        <time>2012-04-12T18:55:53Z</time>
      </trkpt>
      <trkpt lat="43.195254" lon="-3.280633">
        <ele>852.0</ele>
        <time>2012-04-12T18:56:33Z</time>
      </trkpt>
      <trkpt lat="43.195255" lon="-3.280567">
        <ele>852.0</ele>
        <time>2012-04-12T18:57:13Z</time>
      </trkpt>
      <trkpt lat="43.195225" lon="-3.280621">
        <ele>852.0</ele>
        <time>2012-04-12T18:57:53Z</time>
      </trkpt>
      <trkpt lat="43.195232" lon="-3.280558">
        <ele>852.0</ele>
        <time>2012-04-12T18:58:33Z</time>
      </trkpt>
      <trkpt lat="43.195199" lon="-3.280606">
        <ele>852.0</ele>
        <time>2012-04-12T18:59:13Z</time>
      </trkpt>
      <trkpt lat="43.195210" lon="-3.280554">
        <ele>852.0</ele>
        <time>2012-04-12T18:59:53Z</time>
      </trkpt>
      <trkpt lat="43.195190" lon="-3.280527">
        <ele>852.0</ele>
        <time>2012-04-12T19:00:33Z</time>
      </trkpt>
      <trkpt lat="43.195181" lon="-3.280460">
        <ele>852.0</ele>
        <time>2012-04-12T19:01:13Z</time>
      </trkpt>
      <trkpt lat="43.195186" lon="-3.280403">
        <ele>858.0</ele>
        <time>2012-04-12T19:01:53Z</time>
      </trkpt>
      <trkpt lat="43.195186" lon="-3.280334">
        <ele>858.0</ele>
        <time>2012-04-12T19:02:33Z</time>
      </trkpt>
      <trkpt lat="43.195183" lon="-3.280272">
        <ele>858.0</ele>
        <time>2012-04-12T19:03:13Z</time>
      </trkpt>
      <trkpt lat="43.195188" lon="-3.280216">
        <ele>858.0</ele>
        <time>2012-04-12T19:03:53Z</time>
      </trkpt>
      <trkpt lat="43.195183" lon="-3.280162">
        <ele>858.0</ele>
        <time>2012-04-12T19:04:33Z</time>
      </trkpt>
      <trkpt lat="43.195179" lon="-3.280143">
        <ele>858.0</ele>
        <time>2012-04-12T19:05:13Z</time>
      </trkpt>
      <trkpt lat="43.195157" lon="-3.280143">
        <ele>858.0</ele>
        <time>2012-04-12T19:05:53Z</time>
      </trkpt>
      <trkpt lat="43.195134" lon="-3.280178">
        <ele>865.0</ele>
        <time>2012-04-12T19:06:33Z</time>
      </trkpt>
      <trkpt lat="43.195108" lon="-3.280197">
        <ele>865.0</ele>
        <time>2012-04-12T19:07:13Z</time>
      </trkpt>
      <trkpt lat="43.195089" lon="-3.280197">
        <ele>865.0</ele>
        <time>2012-04-12T19:07:53Z</time>
      </trkpt>
      <trkpt lat="43.195061" lon="-3.280208">
        <ele>865.0</ele>
        <time>2012-04-12T19:08:33Z</time>
      </trkpt>
      <trkpt lat="43.195042" lon="-3.280210">
        <ele>865.0</ele>
        <time>2012-04-12T19:09:13Z</time>
      </trkpt>
      <trkpt lat="43.195020" lon="-3.280197">
        <ele>865.0</ele>
        <time>2012-04-12T19:09:53Z</time>
      </trkpt>
      <trkpt lat="43.194993" lon="-3.280178">
        <ele>865.0</ele>
        <time>2012-04-12T19:10:33Z</time>
      </trkpt>
      <trkpt lat="43.194966" lon="-3.280170">
        <ele>865.0</ele>
        <time>2012-04-12T19:11:13Z</time>
      </trkpt>
      <trkpt lat="43.194985" lon="-3.280114">
        <ele>874.0</ele>
        <time>2012-04-12T19:11:53Z</time>
      </trkpt>
      <trkpt lat="43.194934" lon="-3.280151">
        <ele>865.0</ele>
        <time>2012-04-12T19:12:33Z</time>
      </trkpt>
      <trkpt lat="43.194979" lon="-3.280039">
        <ele>874.0</ele>
        <time>2012-04-12T19:13:13Z</time>
      </trkpt>
      <trkpt lat="43.194909" lon="-3.280106">
        <ele>874.0</ele>
        <time>2012-04-12T19:13:53Z</time>
      </trkpt>
      <trkpt lat="43.194948" lon="-3.280017">
        <ele>874.0</ele>
        <time>2012-04-12T19:14:33Z</time>
      </trkpt>
      <trkpt lat="43.194895" lon="-3.280063">
        <ele>874.0</ele>
        <time>2012-04-12T19:15:13Z</time>
      </trkpt>
      <trkpt lat="43.194938" lon="-3.279977">
        <ele>874.0</ele>
        <time>2012-04-12T19:15:53Z</time>
      </trkpt>
      <trkpt lat="43.194885" lon="-3.280039">
        <ele>874.0</ele>
        <time>2012-04-12T19:16:33Z</time>
      </trkpt>
      <trkpt lat="43.194919" lon="-3.279966">
        <ele>874.0</ele>
        <time>2012-04-12T19:17:13Z</time>
      </trkpt>
      <trkpt lat="43.194864" lon="-3.280025">
        <ele>874.0</ele>
        <time>2012-04-12T19:17:53Z</time>
      </trkpt>
      <trkpt lat="43.194919" lon="-3.279934">
        <ele>874.0</ele>
        <time>2012-04-12T19:18:33Z</time>
      </trkpt>
      <trkpt lat="43.194860" lon="-3.279985">
        <ele>881.0</ele>
        <time>2012-04-12T19:19:13Z</time>
      </trkpt>
      <trkpt lat="43.194899" lon="-3.279907">
        <ele>874.0</ele>
        <time>2012-04-12T19:19:53Z</time>
      </trkpt>
      <trkpt lat="43.194831" lon="-3.279950">
        <ele>881.0</ele>
        <time>2012-04-12T19:20:33Z</time>
      </trkpt>
      <trkpt lat="43.194889" lon="-3.279880">
        <ele>874.0</ele>
        <time>2012-04-12T19:21:13Z</time>
      </trkpt>
      <trkpt lat="43.194840" lon="-3.279923">
        <ele>881.0</ele>
        <time>2012-04-12T19:21:53Z</time>
      </trkpt>
      <trkpt lat="43.194876" lon="-3.279859">
        <ele>882.0</ele>
        <time>2012-04-12T19:22:33Z</time>
      </trkpt>
      <trkpt lat="43.194829" lon="-3.279888">
        <ele>881.0</ele>
        <time>2012-04-12T19:23:13Z</time>
      </trkpt>
      <trkpt lat="43.194858" lon="-3.279829">
        <ele>890.0</ele>
        <time>2012-04-12T19:23:53Z</time>
      </trkpt>
      <trkpt lat="43.194815" lon="-3.279835">
        <ele>890.0</ele>
        <time>2012-04-12T19:24:33Z</time>
      </trkpt>
      <trkpt lat="43.194848" lon="-3.279784">
        <ele>890.0</ele>
        <time>2012-04-12T19:25:13Z</time>
      </trkpt>
      <trkpt lat="43.194784" lon="-3.279824">
        <ele>890.0</ele>
        <time>2012-04-12T19:25:53Z</time>
      </trkpt>
      <trkpt lat="43.194825" lon="-3.279738">
        <ele>890.0</ele>
        <time>2012-04-12T19:26:33Z</time>
      </trkpt>
      <trkpt lat="43.194770" lon="-3.279792">
        <ele>890.0</ele>
        <time>2012-04-12T19:27:13Z</time>
      </trkpt>
      <trkpt lat="43.194819" lon="-3.279725">
        <ele>890.0</ele>
        <time>2012-04-12T19:27:53Z</time>
      </trkpt>
      <trkpt lat="43.194768" lon="-3.279741">
        <ele>890.0</ele>
        <time>2012-04-12T19:28:33Z</time>
      </trkpt>
      <trkpt lat="43.194809" lon="-3.279706">
        <ele>890.0</ele>
        <time>2012-04-12T19:29:13Z</time>
      </trkpt>
      <trkpt lat="43.194762" lon="-3.279722">
        <ele>890.0</ele>
        <time>2012-04-12T19:29:53Z</time>
      </trkpt>
      <trkpt lat="43.194790" lon="-3.279650">
        <ele>890.0</ele>
        <time>2012-04-12T19:30:33Z</time>
      </trkpt>
      <trkpt lat="43.194772" lon="-3.279658">
        <ele>890.0</ele>
        <time>2012-04-12T19:31:13Z</time>
      </trkpt>
      <trkpt lat="43.194743" lon="-3.279676">
        <ele>890.0</ele>
        <time>2012-04-12T19:31:53Z</time>
      </trkpt>
      <trkpt lat="43.194715" lon="-3.279687">
        <ele>890.0</ele>
        <time>2012-04-12T19:32:33Z</time>
      </trkpt>
      <trkpt lat="43.194739" lon="-3.279623">
        <ele>890.0</ele>
        <time>2012-04-12T19:33:13Z</time>
      </trkpt>
      <trkpt lat="43.194705" lon="-3.279660">
        <ele>890.0</ele>
        <time>2012-04-12T19:33:53Z</time>
      </trkpt>
      <trkpt lat="43.194723" lon="-3.279607">
        <ele>890.0</ele>
        <time>2012-04-12T19:34:33Z</time>
      </trkpt>
      <trkpt lat="43.194690" lon="-3.279639">
        <ele>890.0</ele>
        <time>2012-04-12T19:35:13Z</time>
      </trkpt>
      <trkpt lat="43.194704" lon="-3.279593">
        <ele>890.0</ele>
        <time>2012-04-12T19:35:53Z</time>
      </trkpt>
      <trkpt lat="43.194662" lon="-3.279599">
        <ele>890.0</ele>
        <time>2012-04-12T19:36:33Z</time>
      </trkpt>
      <trkpt lat="43.194686" lon="-3.279558">
        <ele>900.0</ele>
        <time>2012-04-12T19:37:13Z</time>
      </trkpt>
      <trkpt lat="43.194649" lon="-3.279572">
        <ele>900.0</ele>
        <time>2012-04-12T19:37:53Z</time>
      </trkpt>
      <trkpt lat="43.194668" lon="-3.279513">
        <ele>900.0</ele>
        <time>2012-04-12T19:38:33Z</time>
      </trkpt>
      <trkpt lat="43.194629" lon="-3.279521">
        <ele>900.0</ele>
        <time>2012-04-12T19:39:13Z</time>
      </trkpt>
      <trkpt lat="43.194657" lon="-3.279451">
        <ele>900.0</ele>
        <time>2012-04-12T19:39:53Z</time>
      </trkpt>
      <trkpt lat="43.194606" lon="-3.279451">
        <ele>900.0</ele>
        <time>2012-04-12T19:40:33Z</time>
      </trkpt>
      <trkpt lat="43.194647" lon="-3.279406">
        <ele>900.0</ele>
        <time>2012-04-12T19:41:13Z</time>
      </trkpt>
      <trkpt lat="43.194612" lon="-3.279416">
        <ele>900.0</ele>
        <time>2012-04-12T19:41:53Z</time>
      </trkpt>
      <trkpt lat="43.194627" lon="-3.279352">
        <ele>900.0</ele>
        <time>2012-04-12T19:42:33Z</time>
      </trkpt>
      <trkpt lat="43.194592" lon="-3.279371">
        <ele>900.0</ele>
        <time>2012-04-12T19:43:13Z</time>
      </trkpt>
      <trkpt lat="43.194629" lon="-3.279296">
        <ele>909.0</ele>
        <time>2012-04-12T19:43:53Z</time>
      </trkpt>
      <trkpt lat="43.194576" lon="-3.279312">
        <ele>905.0</ele>
        <time>2012-04-12T19:44:33Z</time>
      </trkpt>
      <trkpt lat="43.194623" lon="-3.279269">
        <ele>909.0</ele>
        <time>2012-04-12T19:45:13Z</time>
      </trkpt>
      <trkpt lat="43.194569" lon="-3.279247">
        <ele>915.0</ele>
        <time>2012-04-12T19:45:53Z</time>
      </trkpt>
      <trkpt lat="43.194569" lon="-3.279218">
        <ele>915.0</ele>
        <time>2012-04-12T19:46:33Z</time>
      </trkpt>
      <trkpt lat="43.194567" lon="-3.279161">
        <ele>915.0</ele>
        <time>2012-04-12T19:47:13Z</time>
      </trkpt>
      <trkpt lat="43.194561" lon="-3.279105">
        <ele>915.0</ele>
        <time>2012-04-12T19:47:53Z</time>
      </trkpt>
      <trkpt lat="43.194533" lon="-3.278928">
        <ele>923.0</ele>
        <time>2012-04-12T19:48:33Z</time>
      </trkpt>
      <trkpt lat="43.194522" lon="-3.278845">
        <ele>923.0</ele>
        <time>2012-04-12T19:49:13Z</time>
      </trkpt>
      <trkpt lat="43.194518" lon="-3.278821">
        <ele>923.0</ele>
        <time>2012-04-12T19:49:53Z</time>
      </trkpt>
      <trkpt lat="43.194504" lon="-3.278773">
        <ele>923.0</ele>
        <time>2012-04-12T19:50:33Z</time>
      </trkpt>
      <trkpt lat="43.194491" lon="-3.278723">
        <ele>929.0</ele>
        <time>2012-04-12T19:51:13Z</time>
      </trkpt>
      <trkpt lat="43.194471" lon="-3.278703">
        <ele>929.0</ele>
        <time>2012-04-12T19:51:53Z</time>
      </trkpt>
      <trkpt lat="43.194431" lon="-3.278664">
        <ele>929.0</ele>
        <time>2012-04-12T19:52:33Z</time>
      </trkpt>
      <trkpt lat="43.194409" lon="-3.278650">
        <ele>929.0</ele>
        <time>2012-04-12T19:53:13Z</time>
      </trkpt>
      <trkpt lat="43.194382" lon="-3.278616">
        <ele>929.0</ele>
        <time>2012-04-12T19:53:53Z</time>
      </trkpt>
      <trkpt lat="43.194363" lon="-3.278575">
        <ele>929.0</ele>
        <time>2012-04-12T19:54:33Z</time>
      </trkpt>
      <trkpt lat="43.194354" lon="-3.278561">
        <ele>929.0</ele>
        <time>2012-04-12T19:55:13Z</time>
      </trkpt>
      <trkpt lat="43.194353" lon="-3.278512">
        <ele>929.0</ele>
        <time>2012-04-12T19:55:53Z</time>
      </trkpt>
      <trkpt lat="43.194374" lon="-3.278441">
        <ele>933.0</ele>
        <time>2012-04-12T19:56:33Z</time>
      </trkpt>
      <trkpt lat="43.194385" lon="-3.278410">
        <ele>933.0</ele>
        <time>2012-04-12T19:57:13Z</time>
      </trkpt>
      <trkpt lat="43.194399" lon="-3.278362">
        <ele>933.0</ele>
        <time>2012-04-12T19:57:53Z</time>
      </trkpt>
      <trkpt lat="43.194411" lon="-3.278251">
        <ele>933.0</ele>
        <time>2012-04-12T19:58:33Z</time>
      </trkpt>
      <trkpt lat="43.194403" lon="-3.278232">
        <ele>933.0</ele>
        <time>2012-04-12T19:59:13Z</time>
      </trkpt>
      <trkpt lat="43.194382" lon="-3.278204">
        <ele>933.0</ele>
        <time>2012-04-12T19:59:53Z</time>
      </trkpt>
      <trkpt lat="43.194358" lon="-3.278173">
        <ele>934.0</ele>
        <time>2012-04-12T20:00:33Z</time>
      </trkpt>
      <trkpt lat="43.194339" lon="-3.278149">
        <ele>934.0</ele>
        <time>2012-04-12T20:01:13Z</time>
      </trkpt>
      <trkpt lat="43.194308" lon="-3.278131">
        <ele>934.0</ele>
        <time>2012-04-12T20:01:53Z</time>
      </trkpt>
      <trkpt lat="43.194272" lon="-3.278094">
        <ele>937.0</ele>
        <time>2012-04-12T20:02:33Z</time>
      </trkpt>
      <trkpt lat="43.194247" lon="-3.278074">
        <ele>937.0</ele>
        <time>2012-04-12T20:03:13Z</time>
      </trkpt>
      <trkpt lat="43.194169" lon="-3.278022">
        <ele>937.0</ele>
        <time>2012-04-12T20:03:53Z</time>
      </trkpt>
      <trkpt lat="43.194149" lon="-3.278012">
        <ele>937.0</ele>
        <time>2012-04-12T20:04:33Z</time>
      </trkpt>
      <trkpt lat="43.194133" lon="-3.278032">
        <ele>937.0</ele>
        <time>2012-04-12T20:05:13Z</time>
      </trkpt>
      <trkpt lat="43.194103" lon="-3.278046">
        <ele>937.0</ele>
        <time>2012-04-12T20:05:53Z</time>
      </trkpt>
      <trkpt lat="43.194077" lon="-3.278060">
        <ele>937.0</ele>
        <time>2012-04-12T20:06:33Z</time>
      </trkpt>
      <trkpt lat="43.194033" lon="-3.278055">
        <ele>937.0</ele>
        <time>2012-04-12T20:07:13Z</time>
      </trkpt>
      <trkpt lat="43.193966" lon="-3.278031">
        <ele>937.0</ele>
        <time>2012-04-12T20:07:53Z</time>
      </trkpt>
      <trkpt lat="43.193891" lon="-3.277999">
        <ele>937.0</ele>
        <time>2012-04-12T20:08:33Z</time>
      </trkpt>
      <trkpt lat="43.193869" lon="-3.278001">
        <ele>937.0</ele>
        <time>2012-04-12T20:09:13Z</time>
      </trkpt>
      <trkpt lat="43.193836" lon="-3.277996">
        <ele>937.0</ele>
        <time>2012-04-12T20:09:53Z</time>
      </trkpt>
      <trkpt lat="43.193792" lon="-3.277999">
        <ele>937.0</ele>
        <time>2012-04-12T20:10:33Z</time>
      </trkpt>
      <trkpt lat="43.193741" lon="-3.277995">
        <ele>938.0</ele>
        <time>2012-04-12T20:11:13Z</time>
      </trkpt>
      <trkpt lat="43.193727" lon="-3.277992">
        <ele>938.0</ele>
        <time>2012-04-12T20:11:53Z</time>
      </trkpt>
      <trkpt lat="43.193668" lon="-3.277991">
        <ele>938.0</ele>
        <time>2012-04-12T20:12:33Z</time>
      </trkpt>
      <trkpt lat="43.193633" lon="-3.277976">
        <ele>938.0</ele>
        <time>2012-04-12T20:13:13Z</time>
      </trkpt>
      <trkpt lat="43.193597" lon="-3.277965">
        <ele>938.0</ele>
        <time>2012-04-12T20:13:53Z</time>
      </trkpt>
      <trkpt lat="43.193555" lon="-3.277952">
        <ele>938.0</ele>
        <time>2012-04-12T20:14:33Z</time>
      </trkpt>
      <trkpt lat="43.193528" lon="-3.277940">
        <ele>938.0</ele>
        <time>2012-04-12T20:15:13Z</time>
      </trkpt>
      <trkpt lat="43.193494" lon="-3.277917">
        <ele>938.0</ele>
        <time>2012-04-12T20:15:53Z</time>
      </trkpt>
      <trkpt lat="43.193477" lon="-3.277936">
        <ele>938.0</ele>
        <time>2012-04-12T20:16:33Z</time>
      </trkpt>
      <trkpt lat="43.193453" lon="-3.277956">
        <ele>940.0</ele>
        <time>2012-04-12T20:17:13Z</time>
      </trkpt>
      <trkpt lat="43.193417" lon="-3.277940">
        <ele>940.0</ele>
        <time>2012-04-12T20:17:53Z</time>
      </trkpt>
      <trkpt lat="43.193383" lon="-3.277940">
        <ele>940.0</ele>
        <time>2012-04-12T20:18:33Z</time>
      </trkpt>
      <trkpt lat="43.193353" lon="-3.277948">
        <ele>940.0</ele>
        <time>2012-04-12T20:19:13Z</time>
      </trkpt>
      <trkpt lat="43.193311" lon="-3.277929">
        <ele>940.0</ele>
        <time>2012-04-12T20:19:53Z</time>
      </trkpt>
      <trkpt lat="43.193286" lon="-3.277913">
        <ele>944.0</ele>
        <time>2012-04-12T20:20:33Z</time>
      </trkpt>
      <trkpt lat="43.193263" lon="-3.277893">
        <ele>944.0</ele>
        <time>2012-04-12T20:21:13Z</time>
      </trkpt>
      <trkpt lat="43.193225" lon="-3.277901">
        <ele>944.0</ele>
        <time>2012-04-12T20:21:53Z</time>
      </trkpt>
      <trkpt lat="43.193195" lon="-3.277920">
        <ele>940.0</ele>
        <time>2012-04-12T20:22:33Z</time>
      </trkpt>
      <trkpt lat="43.193168" lon="-3.277932">
        <ele>945.0</ele>
        <time>2012-04-12T20:23:13Z</time>
      </trkpt>
      <trkpt lat="43.193117" lon="-3.277940">
        <ele>945.0</ele>
        <time>2012-04-12T20:23:53Z</time>
      </trkpt>
      <trkpt lat="43.193106" lon="-3.277941">
        <ele>945.0</ele>
        <time>2012-04-12T20:24:33Z</time>
      </trkpt>
      <trkpt lat="43.193084" lon="-3.277949">
        <ele>945.0</ele>
        <time>2012-04-12T20:25:13Z</time>
      </trkpt>
      <trkpt lat="43.193029" lon="-3.277979">
        <ele>945.0</ele>
        <time>2012-04-12T20:25:53Z</time>
      </trkpt>
      <trkpt lat="43.192972" lon="-3.277983">
        <ele>945.0</ele>
        <time>2012-04-12T20:26:33Z</time>
      </trkpt>
      <trkpt lat="43.192931" lon="-3.277981">
        <ele>945.0</ele>
        <time>2012-04-12T20:27:13Z</time>
      </trkpt>
      <trkpt lat="43.192910" lon="-3.277968">
        <ele>952.0</ele>
        <time>2012-04-12T20:27:53Z</time>
      </trkpt>
      <trkpt lat="43.192867" lon="-3.277960">
        <ele>952.0</ele>
        <time>2012-04-12T20:28:33Z</time>
      </trkpt>
      <trkpt lat="43.192849" lon="-3.277945">
        <ele>952.0</ele>
        <time>2012-04-12T20:29:13Z</time>
      </trkpt>
      <trkpt lat="43.192809" lon="-3.277921">
        <ele>952.0</ele>
        <time>2012-04-12T20:29:53Z</time>
      </trkpt>
      <trkpt lat="43.192780" lon="-3.277925">
        <ele>952.0</ele>
        <time>2012-04-12T20:30:33Z</time>
      </trkpt>
      <trkpt lat="43.192750" lon="-3.277926">
        <ele>952.0</ele>
        <time>2012-04-12T20:31:13Z</time>
      </trkpt>
      <trkpt lat="43.192726" lon="-3.277917">
        <ele>952.0</ele>
        <time>2012-04-12T20:31:53Z</time>
      </trkpt>
      <trkpt lat="43.192700" lon="-3.277929">
        <ele>952.0</ele>
        <time>2012-04-12T20:32:33Z</time>
      </trkpt>
      <trkpt lat="43.192657" lon="-3.277926">
        <ele>952.0</ele>
        <time>2012-04-12T20:33:13Z</time>
      </trkpt>
      <trkpt lat="43.192633" lon="-3.277942">
        <ele>959.0</ele>
        <time>2012-04-12T20:33:53Z</time>
      </trkpt>
      <trkpt lat="43.192603" lon="-3.277953">
        <ele>959.0</ele>
        <time>2012-04-12T20:34:33Z</time>
      </trkpt>
      <trkpt lat="43.192589" lon="-3.277975">
        <ele>959.0</ele>
        <time>2012-04-12T20:35:13Z</time>
      </trkpt>
      <trkpt lat="43.192552" lon="-3.277995">
        <ele>959.0</ele>
        <time>2012-04-12T20:35:53Z</time>
      </trkpt>
      <trkpt lat="43.192520" lon="-3.278009">
        <ele>959.0</ele>
        <time>2012-04-12T20:36:33Z</time>
      </trkpt>
      <trkpt lat="43.192488" lon="-3.278026">
        <ele>959.0</ele>
        <time>2012-04-12T20:37:13Z</time>
      </trkpt>
      <trkpt lat="43.192427" lon="-3.278017">
        <ele>959.0</ele>
        <time>2012-04-12T20:37:53Z</time>
      </trkpt>
      <trkpt lat="43.192389" lon="-3.278015">
        <ele>959.0</ele>
        <time>2012-04-12T20:38:33Z</time>
      </trkpt>
      <trkpt lat="43.192354" lon="-3.278020">
        <ele>963.0</ele>
        <time>2012-04-12T20:39:13Z</time>
      </trkpt>
      <trkpt lat="43.192324" lon="-3.278013">
        <ele>963.0</ele>
        <time>2012-04-12T20:39:53Z</time>
      </trkpt>
      <trkpt lat="43.192294" lon="-3.278009">
        <ele>963.0</ele>
        <time>2012-04-12T20:40:33Z</time>
      </trkpt>
      <trkpt lat="43.192276" lon="-3.278003">
        <ele>963.0</ele>
        <time>2012-04-12T20:41:13Z</time>
      </trkpt>
      <trkpt lat="43.192228" lon="-3.277988">
        <ele>963.0</ele>
        <time>2012-04-12T20:41:53Z</time>
      </trkpt>
      <trkpt lat="43.192186" lon="-3.277976">
        <ele>963.0</ele>
        <time>2012-04-12T20:42:33Z</time>
      </trkpt>
      <trkpt lat="43.192165" lon="-3.277964">
        <ele>963.0</ele>
        <time>2012-04-12T20:43:13Z</time>
      </trkpt>
      <trkpt lat="43.192073" lon="-3.277963">
        <ele>966.0</ele>
        <time>2012-04-12T20:43:53Z</time>
      </trkpt>
      <trkpt lat="43.191993" lon="-3.277908">
        <ele>974.0</ele>
        <time>2012-04-12T20:44:33Z</time>
      </trkpt>
      <trkpt lat="43.191960" lon="-3.277899">
        <ele>974.0</ele>
        <time>2012-04-12T20:45:13Z</time>
      </trkpt>
      <trkpt lat="43.191921" lon="-3.277895">
        <ele>974.0</ele>
        <time>2012-04-12T20:45:53Z</time>
      </trkpt>
      <trkpt lat="43.191847" lon="-3.277879">
        <ele>974.0</ele>
        <time>2012-04-12T20:46:33Z</time>
      </trkpt>
      <trkpt lat="43.191806" lon="-3.277834">
        <ele>974.0</ele>
        <time>2012-04-12T20:47:13Z</time>
      </trkpt>
      <trkpt lat="43.191767" lon="-3.277796">
        <ele>975.0</ele>
        <time>2012-04-12T20:47:53Z</time>
      </trkpt>
      <trkpt lat="43.191726" lon="-3.277747">
        <ele>975.0</ele>
        <time>2012-04-12T20:48:33Z</time>
      </trkpt>
      <trkpt lat="43.191694" lon="-3.277717">
        <ele>975.0</ele>
        <time>2012-04-12T20:49:13Z</time>
      </trkpt>
      <trkpt lat="43.191653" lon="-3.277698">
        <ele>975.0</ele>
        <time>2012-04-12T20:49:53Z</time>
      </trkpt>
      <trkpt lat="43.191604" lon="-3.277680">
        <ele>975.0</ele>
        <time>2012-04-12T20:50:33Z</time>
      </trkpt>
      <trkpt lat="43.191570" lon="-3.277655">
        <ele>975.0</ele>
        <time>2012-04-12T20:51:13Z</time>
      </trkpt>
      <trkpt lat="43.191545" lon="-3.277642">
        <ele>975.0</ele>
        <time>2012-04-12T20:51:53Z</time>
      </trkpt>
      <trkpt lat="43.191516" lon="-3.277646">
        <ele>976.0</ele>
        <time>2012-04-12T20:52:33Z</time>
      </trkpt>
      <trkpt lat="43.191474" lon="-3.277631">
        <ele>982.0</ele>
        <time>2012-04-12T20:53:13Z</time>
      </trkpt>
      <trkpt lat="43.191434" lon="-3.277630">
        <ele>982.0</ele>
        <time>2012-04-12T20:53:53Z</time>
      </trkpt>
      <trkpt lat="43.191408" lon="-3.277600">
        <ele>982.0</ele>
        <time>2012-04-12T20:54:33Z</time>
      </trkpt>
      <trkpt lat="43.191390" lon="-3.277574">
        <ele>982.0</ele>
        <time>2012-04-12T20:55:13Z</time>
      </trkpt>
      <trkpt lat="43.191355" lon="-3.277587">
        <ele>982.0</ele>
        <time>2012-04-12T20:55:53Z</time>
      </trkpt>
      <trkpt lat="43.191322" lon="-3.277588">
        <ele>982.0</ele>
        <time>2012-04-12T20:56:33Z</time>
      </trkpt>
      <trkpt lat="43.191281" lon="-3.277584">
        <ele>982.0</ele>
        <time>2012-04-12T20:57:13Z</time>
      </trkpt>
      <trkpt lat="43.191232" lon="-3.277594">
        <ele>985.0</ele>
        <time>2012-04-12T20:57:53Z</time>
      </trkpt>
      <trkpt lat="43.191195" lon="-3.277596">
        <ele>985.0</ele>
        <time>2012-04-12T20:58:33Z</time>
      </trkpt>
      <trkpt lat="43.191160" lon="-3.277606">
        <ele>985.0</ele>
        <time>2012-04-12T20:59:13Z</time>
      </trkpt>
      <trkpt lat="43.191125" lon="-3.277621">
        <ele>985.0</ele>
        <time>2012-04-12T20:59:53Z</time>
      </trkpt>
      <trkpt lat="43.191091" lon="-3.277629">
        <ele>985.0</ele>
        <time>2012-04-12T21:00:33Z</time>
      </trkpt>
      <trkpt lat="43.191012" lon="-3.277641">
        <ele>979.0</ele>
        <time>2012-04-12T21:01:13Z</time>
      </trkpt>
      <trkpt lat="43.190969" lon="-3.277643">
        <ele>985.0</ele>
        <time>2012-04-12T21:01:53Z</time>
      </trkpt>
      <trkpt lat="43.190905" lon="-3.277649">
        <ele>985.0</ele>
        <time>2012-04-12T21:02:33Z</time>
      </trkpt>
      <trkpt lat="43.190815" lon="-3.277649">
        <ele>985.0</ele>
        <time>2012-04-12T21:03:13Z</time>
      </trkpt>
      <trkpt lat="43.190773" lon="-3.277642">
        <ele>985.0</ele>
        <time>2012-04-12T21:03:53Z</time>
      </trkpt>
      <trkpt lat="43.190733" lon="-3.277639">
        <ele>985.0</ele>
        <time>2012-04-12T21:04:33Z</time>
      </trkpt>
      <trkpt lat="43.190686" lon="-3.277635">
        <ele>1000.0</ele>
        <time>2012-04-12T21:05:13Z</time>
      </trkpt>
      <trkpt lat="43.190637" lon="-3.277642">
        <ele>995.0</ele>
        <time>2012-04-12T21:05:53Z</time>
      </trkpt>
      <trkpt lat="43.190619" lon="-3.277637">
        <ele>1000.0</ele>
        <time>2012-04-12T21:06:33Z</time>
      </trkpt>
      <trkpt lat="43.190641" lon="-3.277617">
        <ele>1000.0</ele>
        <time>2012-04-12T21:07:13Z</time>
      </trkpt>
      <trkpt lat="43.190679" lon="-3.277600">
        <ele>1000.0</ele>
        <time>2012-04-12T21:07:53Z</time>
      </trkpt>
      <trkpt lat="43.190703" lon="-3.277583">
        <ele>991.0</ele>
        <time>2012-04-12T21:08:33Z</time>
      </trkpt>
      <trkpt lat="43.190718" lon="-3.277559">
        <ele>991.0</ele>
        <time>2012-04-12T21:09:13Z</time>
      </trkpt>
      <trkpt lat="43.190751" lon="-3.277536">
        <ele>991.0</ele>
        <time>2012-04-12T21:09:53Z</time>
      </trkpt>
      <trkpt lat="43.190763" lon="-3.277517">
        <ele>991.0</ele>
        <time>2012-04-12T21:10:33Z</time>
      </trkpt>
      <trkpt lat="43.190784" lon="-3.277496">
        <ele>991.0</ele>
        <time>2012-04-12T21:11:13Z</time>
      </trkpt>
      <trkpt lat="43.190799" lon="-3.277481">
        <ele>991.0</ele>
        <time>2012-04-12T21:11:53Z</time>
      </trkpt>
      <trkpt lat="43.190793" lon="-3.277462">
        <ele>991.0</ele>
        <time>2012-04-12T21:12:33Z</time>
      </trkpt>
      <trkpt lat="43.190775" lon="-3.277430">
        <ele>991.0</ele>
        <time>2012-04-12T21:13:13Z</time>
      </trkpt>
      <trkpt lat="43.190739" lon="-3.277426">
        <ele>991.0</ele>
        <time>2012-04-12T21:13:53Z</time>
      </trkpt>
      <trkpt lat="43.190708" lon="-3.277423">
        <ele>991.0</ele>
        <time>2012-04-12T21:14:33Z</time>
      </trkpt>
      <trkpt lat="43.190674" lon="-3.277427">
        <ele>1000.0</ele>
        <time>2012-04-12T21:15:13Z</time>
      </trkpt>
      <trkpt lat="43.190630" lon="-3.277435">
        <ele>1000.0</ele>
        <time>2012-04-12T21:15:53Z</time>
      </trkpt>
      <trkpt lat="43.190587" lon="-3.277423">
        <ele>1000.0</ele>
        <time>2012-04-12T21:16:33Z</time>
      </trkpt>
      <trkpt lat="43.190558" lon="-3.277422">
        <ele>1000.0</ele>
        <time>2012-04-12T21:17:13Z</time>
      </trkpt>
      <trkpt lat="43.190519" lon="-3.277450">
        <ele>1000.0</ele>
        <time>2012-04-12T21:17:53Z</time>
      </trkpt>
      <trkpt lat="43.190501" lon="-3.277449">
        <ele>1000.0</ele>
        <time>2012-04-12T21:18:33Z</time>
      </trkpt>
      <trkpt lat="43.190467" lon="-3.277461">
        <ele>1000.0</ele>
        <time>2012-04-12T21:19:13Z</time>
      </trkpt>
      <trkpt lat="43.190439" lon="-3.277461">
        <ele>1000.0</ele>
        <time>2012-04-12T21:19:53Z</time>
      </trkpt>
      <trkpt lat="43.190408" lon="-3.277453">
        <ele>1010.0</ele>
        <time>2012-04-12T21:20:33Z</time>
      </trkpt>
      <trkpt lat="43.190398" lon="-3.277438">
        <ele>1010.0</ele>
        <time>2012-04-12T21:21:13Z</time>
      </trkpt>
      <trkpt lat="43.190411" lon="-3.277418">
        <ele>1010.0</ele>
        <time>2012-04-12T21:21:53Z</time>
      </trkpt>
      <trkpt lat="43.190423" lon="-3.277398">
        <ele>1000.0</ele>
        <time>2012-04-12T21:22:33Z</time>
      </trkpt>
      <trkpt lat="43.190434" lon="-3.277370">
        <ele>1000.0</ele>
        <time>2012-04-12T21:23:13Z</time>
      </trkpt>
      <trkpt lat="43.190443" lon="-3.277342">
        <ele>1001.0</ele>
        <time>2012-04-12T21:23:53Z</time>
      </trkpt>
      <trkpt lat="43.190433" lon="-3.277319">
        <ele>1001.0</ele>
        <time>2012-04-12T21:24:33Z</time>
      </trkpt>
      <trkpt lat="43.190420" lon="-3.277292">
        <ele>1001.0</ele>
        <time>2012-04-12T21:25:13Z</time>
      </trkpt>
      <trkpt lat="43.190400" lon="-3.277273">
        <ele>1009.0</ele>
        <time>2012-04-12T21:25:53Z</time>
      </trkpt>
      <trkpt lat="43.190380" lon="-3.277266">
        <ele>1009.0</ele>
        <time>2012-04-12T21:26:33Z</time>
      </trkpt>
      <trkpt lat="43.190354" lon="-3.277275">
        <ele>1009.0</ele>
        <time>2012-04-12T21:27:13Z</time>
      </trkpt>
      <trkpt lat="43.190318" lon="-3.277303">
        <ele>1009.0</ele>
        <time>2012-04-12T21:27:53Z</time>
      </trkpt>
      <trkpt lat="43.190295" lon="-3.277321">
        <ele>1009.0</ele>
        <time>2012-04-12T21:28:33Z</time>
      </trkpt>
      <trkpt lat="43.190263" lon="-3.277330">
        <ele>1009.0</ele>
        <time>2012-04-12T21:29:13Z</time>
      </trkpt>
      <trkpt lat="43.190260" lon="-3.277346">
        <ele>1009.0</ele>
        <time>2012-04-12T21:29:53Z</time>
      </trkpt>
      <trkpt lat="43.190253" lon="-3.277382">
        <ele>1010.0</ele>
        <time>2012-04-12T21:30:33Z</time>
      </trkpt>
      <trkpt lat="43.190240" lon="-3.277421">
        <ele>1010.0</ele>
        <time>2012-04-12T21:31:13Z</time>
      </trkpt>
      <trkpt lat="43.190215" lon="-3.277468">
        <ele>1010.0</ele>
        <time>2012-04-12T21:31:53Z</time>
      </trkpt>
      <trkpt lat="43.190198" lon="-3.277462">
        <ele>1010.0</ele>
        <time>2012-04-12T21:32:33Z</time>
      </trkpt>
      <trkpt lat="43.190176" lon="-3.277462">
        <ele>1010.0</ele>
        <time>2012-04-12T21:33:13Z</time>
      </trkpt>
      <trkpt lat="43.190160" lon="-3.277464">
        <ele>1010.0</ele>
        <time>2012-04-12T21:33:53Z</time>
      </trkpt>
      <trkpt lat="43.190148" lon="-3.277465">
        <ele>1010.0</ele>
        <time>2012-04-12T21:34:33Z</time>
      </trkpt>
      <trkpt lat="43.190121" lon="-3.277486">
        <ele>1018.0</ele>
        <time>2012-04-12T21:35:13Z</time>
      </trkpt>
      <trkpt lat="43.190066" lon="-3.277549">
        <ele>1018.0</ele>
        <time>2012-04-12T21:35:53Z</time>
      </trkpt>
      <trkpt lat="43.190045" lon="-3.277572">
        <ele>1018.0</ele>
        <time>2012-04-12T21:36:33Z</time>
      </trkpt>
      <trkpt lat="43.190021" lon="-3.277591">
        <ele>1018.0</ele>
        <time>2012-04-12T21:37:13Z</time>
      </trkpt>
      <trkpt lat="43.189987" lon="-3.277612">
        <ele>1018.0</ele>
        <time>2012-04-12T21:37:53Z</time>
      </trkpt>
      <trkpt lat="43.189960" lon="-3.277629">
        <ele>1018.0</ele>
        <time>2012-04-12T21:38:33Z</time>
      </trkpt>
      <trkpt lat="43.189940" lon="-3.277637">
        <ele>1018.0</ele>
        <time>2012-04-12T21:39:13Z</time>
      </trkpt>
      <trkpt lat="43.189920" lon="-3.277677">
        <ele>1014.0</ele>
        <time>2012-04-12T21:39:53Z</time>
      </trkpt>
      <trkpt lat="43.189895" lon="-3.277690">
        <ele>1014.0</ele>
        <time>2012-04-12T21:40:33Z</time>
      </trkpt>
      <trkpt lat="43.189880" lon="-3.277697">
        <ele>1014.0</ele>
        <time>2012-04-12T21:41:13Z</time>
      </trkpt>
      <trkpt lat="43.189864" lon="-3.277702">
        <ele>1014.0</ele>
        <time>2012-04-12T21:41:53Z</time>
      </trkpt>
      <trkpt lat="43.189842" lon="-3.277718">
        <ele>1021.0</ele>
        <time>2012-04-12T21:42:33Z</time>
      </trkpt>
      <trkpt lat="43.189814" lon="-3.277710">
        <ele>1021.0</ele>
        <time>2012-04-12T21:43:13Z</time>
      </trkpt>
      <trkpt lat="43.189783" lon="-3.277694">
        <ele>1021.0</ele>
        <time>2012-04-12T21:43:53Z</time>
      </trkpt>
      <trkpt lat="43.189769" lon="-3.277684">
        <ele>1021.0</ele>
        <time>2012-04-12T21:44:33Z</time>
      </trkpt>
      <trkpt lat="43.189742" lon="-3.277682">
        <ele>1021.0</ele>
        <time>2012-04-12T21:45:13Z</time>
      </trkpt>
      <trkpt lat="43.189721" lon="-3.277684">
        <ele>1021.0</ele>
        <time>2012-04-12T21:45:53Z</time>
      </trkpt>
      <trkpt lat="43.189689" lon="-3.277694">
        <ele>1021.0</ele>
        <time>2012-04-12T21:46:33Z</time>
      </trkpt>
      <trkpt lat="43.189660" lon="-3.277712">
        <ele>1021.0</ele>
        <time>2012-04-12T21:47:13Z</time>
      </trkpt>
      <trkpt lat="43.189615" lon="-3.277772">
        <ele>1021.0</ele>
        <time>2012-04-12T21:47:53Z</time>
      </trkpt>
      <trkpt lat="43.189582" lon="-3.277826">
        <ele>1022.0</ele>
        <time>2012-04-12T21:48:33Z</time>
      </trkpt>
      <trkpt lat="43.189540" lon="-3.277871">
        <ele>1022.0</ele>
        <time>2012-04-12T21:49:13Z</time>
      </trkpt>
      <trkpt lat="43.189488" lon="-3.277964">
        <ele>1020.0</ele>
        <time>2012-04-12T21:49:53Z</time>
      </trkpt>
      <trkpt lat="43.189454" lon="-3.278022">
        <ele>1020.0</ele>
        <time>2012-04-12T21:50:33Z</time>
      </trkpt>
      <trkpt lat="43.189415" lon="-3.278105">
        <ele>1020.0</ele>
        <time>2012-04-12T21:51:13Z</time>
      </trkpt>
      <trkpt lat="43.189384" lon="-3.278161">
        <ele>1020.0</ele>
        <time>2012-04-12T21:51:53Z</time>
      </trkpt>
      <trkpt lat="43.189355" lon="-3.278209">
        <ele>1017.0</ele>
        <time>2012-04-12T21:52:33Z</time>
      </trkpt>
      <trkpt lat="43.189316" lon="-3.278254">
        <ele>1017.0</ele>
        <time>2012-04-12T21:53:13Z</time>
      </trkpt>
      <trkpt lat="43.189292" lon="-3.278315">
        <ele>1019.0</ele>
        <time>2012-04-12T21:53:53Z</time>
      </trkpt>
      <trkpt lat="43.189258" lon="-3.278372">
        <ele>1019.0</ele>
        <time>2012-04-12T21:54:33Z</time>
      </trkpt>
      <trkpt lat="43.189231" lon="-3.278396">
        <ele>1019.0</ele>
        <time>2012-04-12T21:55:13Z</time>
      </trkpt>
      <trkpt lat="43.189207" lon="-3.278418">
        <ele>1019.0</ele>
        <time>2012-04-12T21:55:53Z</time>
      </trkpt>
      <trkpt lat="43.189177" lon="-3.278449">
        <ele>1019.0</ele>
        <time>2012-04-12T21:56:33Z</time>
      </trkpt>
      <trkpt lat="43.189153" lon="-3.278484">
        <ele>1016.0</ele>
        <time>2012-04-12T21:57:13Z</time>
      </trkpt>
      <trkpt lat="43.189139" lon="-3.278494">
        <ele>1016.0</ele>
        <time>2012-04-12T21:57:53Z</time>
      </trkpt>
      <trkpt lat="43.189133" lon="-3.278545">
        <ele>1016.0</ele>
        <time>2012-04-12T21:58:33Z</time>
      </trkpt>
      <trkpt lat="43.189130" lon="-3.278596">
        <ele>1016.0</ele>
        <time>2012-04-12T21:59:13Z</time>
      </trkpt>
      <trkpt lat="43.189113" lon="-3.278641">
        <ele>1016.0</ele>
        <time>2012-04-12T21:59:53Z</time>
      </trkpt>
      <trkpt lat="43.189056" lon="-3.278655">
        <ele>1016.0</ele>
        <time>2012-04-12T22:00:33Z</time>
      </trkpt>
      <trkpt lat="43.189029" lon="-3.278679">
        <ele>1016.0</ele>
        <time>2012-04-12T22:01:13Z</time>
      </trkpt>
      <trkpt lat="43.188984" lon="-3.278748">
        <ele>1015.0</ele>
        <time>2012-04-12T22:01:53Z</time>
      </trkpt>
      <trkpt lat="43.188950" lon="-3.278818">
        <ele>1011.0</ele>
        <time>2012-04-12T22:02:33Z</time>
      </trkpt>
      <trkpt lat="43.188933" lon="-3.278856">
        <ele>1011.0</ele>
        <time>2012-04-12T22:03:13Z</time>
      </trkpt>
      <trkpt lat="43.188860" lon="-3.278968">
        <ele>1011.0</ele>
        <time>2012-04-12T22:03:53Z</time>
      </trkpt>
      <trkpt lat="43.188853" lon="-3.278992">
        <ele>1011.0</ele>
        <time>2012-04-12T22:04:33Z</time>
      </trkpt>
      <trkpt lat="43.188837" lon="-3.279043">
        <ele>1007.0</ele>
        <time>2012-04-12T22:05:13Z</time>
      </trkpt>
      <trkpt lat="43.188794" lon="-3.279215">
        <ele>1007.0</ele>
        <time>2012-04-12T22:05:53Z</time>
      </trkpt>
      <trkpt lat="43.188739" lon="-3.279288">
        <ele>1005.0</ele>
        <time>2012-04-12T22:06:33Z</time>
      </trkpt>
      <trkpt lat="43.188702" lon="-3.279381">
        <ele>1001.0</ele>
        <time>2012-04-12T22:07:13Z</time>
      </trkpt>
      <trkpt lat="43.188645" lon="-3.279448">
        <ele>1001.0</ele>
        <time>2012-04-12T22:07:53Z</time>
      </trkpt>
      <trkpt lat="43.188585" lon="-3.279542">
        <ele>1001.0</ele>
        <time>2012-04-12T22:08:33Z</time>
      </trkpt>
      <trkpt lat="43.188550" lon="-3.279609">
        <ele>997.0</ele>
        <time>2012-04-12T22:09:13Z</time>
      </trkpt>
      <trkpt lat="43.188550" lon="-3.279757">
        <ele>997.0</ele>
        <time>2012-04-12T22:09:53Z</time>
      </trkpt>
      <trkpt lat="43.188544" lon="-3.279808">
        <ele>997.0</ele>
        <time>2012-04-12T22:10:33Z</time>
      </trkpt>
      <trkpt lat="43.188495" lon="-3.279966">
        <ele>992.0</ele>
        <time>2012-04-12T22:11:13Z</time>
      </trkpt>
      <trkpt lat="43.188454" lon="-3.280159">
        <ele>987.0</ele>
        <time>2012-04-12T22:11:53Z</time>
      </trkpt>
      <trkpt lat="43.188424" lon="-3.280315">
        <ele>987.0</ele>
        <time>2012-04-12T22:12:33Z</time>
      </trkpt>
      <trkpt lat="43.188393" lon="-3.280500">
        <ele>985.0</ele>
        <time>2012-04-12T22:13:13Z</time>
      </trkpt>
      <trkpt lat="43.188389" lon="-3.280634">
        <ele>985.0</ele>
        <time>2012-04-12T22:13:53Z</time>
      </trkpt>
      <trkpt lat="43.188377" lon="-3.280779">
        <ele>982.0</ele>
        <time>2012-04-12T22:14:33Z</time>
      </trkpt>
      <trkpt lat="43.188379" lon="-3.280924">
        <ele>982.0</ele>
        <time>2012-04-12T22:15:13Z</time>
      </trkpt>
      <trkpt lat="43.188373" lon="-3.281001">
        <ele>978.0</ele>
        <time>2012-04-12T22:15:53Z</time>
      </trkpt>
      <trkpt lat="43.188334" lon="-3.281128">
        <ele>978.0</ele>
        <time>2012-04-12T22:16:33Z</time>
      </trkpt>
      <trkpt lat="43.188325" lon="-3.281181">
        <ele>978.0</ele>
        <time>2012-04-12T22:17:13Z</time>
      </trkpt>
      <trkpt lat="43.188284" lon="-3.281221">
        <ele>978.0</ele>
        <time>2012-04-12T22:17:53Z</time>
      </trkpt>
      <trkpt lat="43.188258" lon="-3.281213">
        <ele>978.0</ele>
        <time>2012-04-12T22:18:33Z</time>
      </trkpt>
      <trkpt lat="43.188233" lon="-3.281229">
        <ele>978.0</ele>
        <time>2012-04-12T22:19:13Z</time>
      </trkpt>
      <trkpt lat="43.188237" lon="-3.281299">
        <ele>971.0</ele>
        <time>2012-04-12T22:19:53Z</time>
      </trkpt>
      <trkpt lat="43.188237" lon="-3.281350">
        <ele>971.0</ele>
        <time>2012-04-12T22:20:33Z</time>
      </trkpt>
      <trkpt lat="43.188213" lon="-3.281356">
        <ele>971.0</ele>
        <time>2012-04-12T22:21:13Z</time>
      </trkpt>
      <trkpt lat="43.188166" lon="-3.281361">
        <ele>963.0</ele>
        <time>2012-04-12T22:21:53Z</time>
      </trkpt>
      <trkpt lat="43.188125" lon="-3.281337">
        <ele>963.0</ele>
        <time>2012-04-12T22:22:33Z</time>
      </trkpt>
      <trkpt lat="43.188094" lon="-3.281315">
        <ele>963.0</ele>
        <time>2012-04-12T22:23:13Z</time>
      </trkpt>
      <trkpt lat="43.188094" lon="-3.281334">
        <ele>963.0</ele>
        <time>2012-04-12T22:23:53Z</time>
      </trkpt>
      <trkpt lat="43.188092" lon="-3.281428">
        <ele>963.0</ele>
        <time>2012-04-12T22:24:33Z</time>
      </trkpt>
      <trkpt lat="43.188121" lon="-3.281490">
        <ele>963.0</ele>
        <time>2012-04-12T22:25:13Z</time>
      </trkpt>
      <trkpt lat="43.188182" lon="-3.281524">
        <ele>963.0</ele>
        <time>2012-04-12T22:25:53Z</time>
      </trkpt>
      <trkpt lat="43.188227" lon="-3.281583">
        <ele>963.0</ele>
        <time>2012-04-12T22:26:33Z</time>
      </trkpt>
      <trkpt lat="43.188270" lon="-3.281632">
        <ele>963.0</ele>
        <time>2012-04-12T22:27:13Z</time>
      </trkpt>
      <trkpt lat="43.188332" lon="-3.281710">
        <ele>963.0</ele>
        <time>2012-04-12T22:27:53Z</time>
      </trkpt>
      <trkpt lat="43.188368" lon="-3.281860">
        <ele>953.0</ele>
        <time>2012-04-12T22:28:33Z</time>
      </trkpt>
      <trkpt lat="43.188379" lon="-3.282010">
        <ele>953.0</ele>
        <time>2012-04-12T22:29:13Z</time>
      </trkpt>
      <trkpt lat="43.188372" lon="-3.282187">
        <ele>946.0</ele>
        <time>2012-04-12T22:29:53Z</time>
      </trkpt>
      <trkpt lat="43.188375" lon="-3.282310">
        <ele>946.0</ele>
        <time>2012-04-12T22:30:33Z</time>
      </trkpt>
      <trkpt lat="43.188458" lon="-3.282385">
        <ele>944.0</ele>
        <time>2012-04-12T22:31:13Z</time>
      </trkpt>
      <trkpt lat="43.188512" lon="-3.282498">
        <ele>938.0</ele>
        <time>2012-04-12T22:31:53Z</time>
      </trkpt>
      <trkpt lat="43.188524" lon="-3.282713">
        <ele>937.0</ele>
        <time>2012-04-12T22:32:33Z</time>
      </trkpt>
      <trkpt lat="43.188501" lon="-3.282782">
        <ele>937.0</ele>
        <time>2012-04-12T22:33:13Z</time>
      </trkpt>
      <trkpt lat="43.188465" lon="-3.282841">
        <ele>942.0</ele>
        <time>2012-04-12T22:33:53Z</time>
      </trkpt>
      <trkpt lat="43.188426" lon="-3.283067">
        <ele>939.0</ele>
        <time>2012-04-12T22:34:33Z</time>
      </trkpt>
      <trkpt lat="43.188383" lon="-3.283319">
        <ele>937.0</ele>
        <time>2012-04-12T22:35:13Z</time>
      </trkpt>
      <trkpt lat="43.188317" lon="-3.283410">
        <ele>937.0</ele>
        <time>2012-04-12T22:35:53Z</time>
      </trkpt>
      <trkpt lat="43.188242" lon="-3.283533">
        <ele>936.0</ele>
        <time>2012-04-12T22:36:33Z</time>
      </trkpt>
      <trkpt lat="43.188203" lon="-3.283630">
        <ele>936.0</ele>
        <time>2012-04-12T22:37:13Z</time>
      </trkpt>
      <trkpt lat="43.188106" lon="-3.283748">
        <ele>938.0</ele>
        <time>2012-04-12T22:37:53Z</time>
      </trkpt>
      <trkpt lat="43.188043" lon="-3.283957">
        <ele>935.0</ele>
        <time>2012-04-12T22:38:33Z</time>
      </trkpt>
      <trkpt lat="43.187961" lon="-3.284177">
        <ele>930.0</ele>
        <time>2012-04-12T22:39:13Z</time>
      </trkpt>
      <trkpt lat="43.187894" lon="-3.284258">
        <ele>926.0</ele>
        <time>2012-04-12T22:39:53Z</time>
      </trkpt>
      <trkpt lat="43.187832" lon="-3.284349">
        <ele>920.0</ele>
        <time>2012-04-12T22:40:33Z</time>
      </trkpt>
      <trkpt lat="43.187703" lon="-3.284531">
        <ele>920.0</ele>
        <time>2012-04-12T22:41:13Z</time>
      </trkpt>
      <trkpt lat="43.187570" lon="-3.284676">
        <ele>909.0</ele>
        <time>2012-04-12T22:41:53Z</time>
      </trkpt>
      <trkpt lat="43.187527" lon="-3.284767">
        <ele>909.0</ele>
        <time>2012-04-12T22:42:33Z</time>
      </trkpt>
      <trkpt lat="43.187448" lon="-3.284869">
        <ele>904.0</ele>
        <time>2012-04-12T22:43:13Z</time>
      </trkpt>
      <trkpt lat="43.187319" lon="-3.285019">
        <ele>902.0</ele>
        <time>2012-04-12T22:43:53Z</time>
      </trkpt>
      <trkpt lat="43.187202" lon="-3.285186">
        <ele>898.0</ele>
        <time>2012-04-12T22:44:33Z</time>
      </trkpt>
      <trkpt lat="43.187112" lon="-3.285277">
        <ele>898.0</ele>
        <time>2012-04-12T22:45:13Z</time>
      </trkpt>
      <trkpt lat="43.186956" lon="-3.285438">
        <ele>895.0</ele>
        <time>2012-04-12T22:45:53Z</time>
      </trkpt>
      <trkpt lat="43.186905" lon="-3.285567">
        <ele>895.0</ele>
        <time>2012-04-12T22:46:33Z</time>
      </trkpt>
      <trkpt lat="43.186838" lon="-3.285604">
        <ele>895.0</ele>
        <time>2012-04-12T22:47:13Z</time>
      </trkpt>
      <trkpt lat="43.186807" lon="-3.285776">
        <ele>892.0</ele>
        <time>2012-04-12T22:47:53Z</time>
      </trkpt>
      <trkpt lat="43.186600" lon="-3.286103">
        <ele>892.0</ele>
        <time>2012-04-12T22:48:33Z</time>
      </trkpt>
      <trkpt lat="43.186545" lon="-3.286296">
        <ele>890.0</ele>
        <time>2012-04-12T22:49:13Z</time>
      </trkpt>
      <trkpt lat="43.186420" lon="-3.286436">
        <ele>892.0</ele>
        <time>2012-04-12T22:49:53Z</time>
      </trkpt>
      <trkpt lat="43.186326" lon="-3.286650">
        <ele>890.0</ele>
        <time>2012-04-12T22:50:33Z</time>
      </trkpt>
      <trkpt lat="43.186146" lon="-3.286918">
        <ele>891.0</ele>
        <time>2012-04-12T22:51:13Z</time>
      </trkpt>
      <trkpt lat="43.186013" lon="-3.287294">
        <ele>889.0</ele>
        <time>2012-04-12T22:51:53Z</time>
      </trkpt>
      <trkpt lat="43.185825" lon="-3.287637">
        <ele>889.0</ele>
        <time>2012-04-12T22:52:33Z</time>
      </trkpt>
      <trkpt lat="43.185692" lon="-3.287852">
        <ele>888.0</ele>
        <time>2012-04-12T22:53:13Z</time>
      </trkpt>
      <trkpt lat="43.185567" lon="-3.288217">
        <ele>888.0</ele>
        <time>2012-04-12T22:53:53Z</time>
      </trkpt>
      <trkpt lat="43.185403" lon="-3.288689">
        <ele>887.0</ele>
        <time>2012-04-12T22:54:33Z</time>
      </trkpt>
      <trkpt lat="43.185239" lon="-3.289053">
        <ele>888.0</ele>
        <time>2012-04-12T22:55:13Z</time>
      </trkpt>
      <trkpt lat="43.185090" lon="-3.289483">
        <ele>886.0</ele>
        <time>2012-04-12T22:55:53Z</time>
      </trkpt>
      <trkpt lat="43.184965" lon="-3.289976">
        <ele>887.0</ele>
        <time>2012-04-12T22:56:33Z</time>
      </trkpt>
      <trkpt lat="43.185129" lon="-3.290180">
        <ele>886.0</ele>
        <time>2012-04-12T22:57:13Z</time>
      </trkpt>
      <trkpt lat="43.185235" lon="-3.290100">
        <ele>884.0</ele>
        <time>2012-04-12T22:57:53Z</time>
      </trkpt>
      <trkpt lat="43.185239" lon="-3.290218">
        <ele>882.0</ele>
        <time>2012-04-12T22:58:33Z</time>
      </trkpt>
      <trkpt lat="43.185319" lon="-3.290140">
        <ele>882.0</ele>
        <time>2012-04-12T22:59:13Z</time>
      </trkpt>
      <trkpt lat="43.185317" lon="-3.290242">
        <ele>882.0</ele>
        <time>2012-04-12T22:59:53Z</time>
      </trkpt>
      <trkpt lat="43.185407" lon="-3.290180">
        <ele>882.0</ele>
        <time>2012-04-12T23:00:33Z</time>
      </trkpt>
      <trkpt lat="43.185377" lon="-3.290301">
        <ele>882.0</ele>
        <time>2012-04-12T23:01:13Z</time>
      </trkpt>
      <trkpt lat="43.185456" lon="-3.290185">
        <ele>873.0</ele>
        <time>2012-04-12T23:01:53Z</time>
      </trkpt>
      <trkpt lat="43.185479" lon="-3.290309">
        <ele>873.0</ele>
        <time>2012-04-12T23:02:33Z</time>
      </trkpt>
      <trkpt lat="43.185524" lon="-3.290193">
        <ele>873.0</ele>
        <time>2012-04-12T23:03:13Z</time>
      </trkpt>
      <trkpt lat="43.185542" lon="-3.290319">
        <ele>873.0</ele>
        <time>2012-04-12T23:03:53Z</time>
      </trkpt>
      <trkpt lat="43.185589" lon="-3.290218">
        <ele>873.0</ele>
        <time>2012-04-12T23:04:33Z</time>
      </trkpt>
      <trkpt lat="43.185579" lon="-3.290338">
        <ele>873.0</ele>
        <time>2012-04-12T23:05:13Z</time>
      </trkpt>
      <trkpt lat="43.185634" lon="-3.290231">
        <ele>873.0</ele>
        <time>2012-04-12T23:05:53Z</time>
      </trkpt>
      <trkpt lat="43.185638" lon="-3.290381">
        <ele>873.0</ele>
        <time>2012-04-12T23:06:33Z</time>
      </trkpt>
      <trkpt lat="43.185688" lon="-3.290266">
        <ele>873.0</ele>
        <time>2012-04-12T23:07:13Z</time>
      </trkpt>
      <trkpt lat="43.185690" lon="-3.290386">
        <ele>873.0</ele>
        <time>2012-04-12T23:07:53Z</time>
      </trkpt>
      <trkpt lat="43.185749" lon="-3.290271">
        <ele>862.0</ele>
        <time>2012-04-12T23:08:33Z</time>
      </trkpt>
      <trkpt lat="43.185739" lon="-3.290416">
        <ele>862.0</ele>
        <time>2012-04-12T23:09:13Z</time>
      </trkpt>
      <trkpt lat="43.185806" lon="-3.290336">
        <ele>862.0</ele>
        <time>2012-04-12T23:09:53Z</time>
      </trkpt>
      <trkpt lat="43.185812" lon="-3.290413">
        <ele>862.0</ele>
        <time>2012-04-12T23:10:33Z</time>
      </trkpt>
      <trkpt lat="43.185870" lon="-3.290327">
        <ele>862.0</ele>
        <time>2012-04-12T23:11:13Z</time>
      </trkpt>
      <trkpt lat="43.185872" lon="-3.290483">
        <ele>858.0</ele>
        <time>2012-04-12T23:11:53Z</time>
      </trkpt>
      <trkpt lat="43.185915" lon="-3.290341">
        <ele>862.0</ele>
        <time>2012-04-12T23:12:33Z</time>
      </trkpt>
      <trkpt lat="43.185927" lon="-3.290480">
        <ele>858.0</ele>
        <time>2012-04-12T23:13:13Z</time>
      </trkpt>
      <trkpt lat="43.185990" lon="-3.290330">
        <ele>849.0</ele>
        <time>2012-04-12T23:13:53Z</time>
      </trkpt>
      <trkpt lat="43.186007" lon="-3.290467">
        <ele>844.0</ele>
        <time>2012-04-12T23:14:33Z</time>
      </trkpt>
      <trkpt lat="43.186042" lon="-3.290338">
        <ele>849.0</ele>
        <time>2012-04-12T23:15:13Z</time>
      </trkpt>
      <trkpt lat="43.186052" lon="-3.290470">
        <ele>844.0</ele>
        <time>2012-04-12T23:15:53Z</time>
      </trkpt>
      <trkpt lat="43.186089" lon="-3.290325">
        <ele>849.0</ele>
        <time>2012-04-12T23:16:33Z</time>
      </trkpt>
      <trkpt lat="43.186119" lon="-3.290480">
        <ele>844.0</ele>
        <time>2012-04-12T23:17:13Z</time>
      </trkpt>
      <trkpt lat="43.186160" lon="-3.290354">
        <ele>849.0</ele>
        <time>2012-04-12T23:17:53Z</time>
      </trkpt>
      <trkpt lat="43.186205" lon="-3.290510">
        <ele>844.0</ele>
        <time>2012-04-12T23:18:33Z</time>
      </trkpt>
      <trkpt lat="43.186230" lon="-3.290352">
        <ele>849.0</ele>
        <time>2012-04-12T23:19:13Z</time>
      </trkpt>
      <trkpt lat="43.186269" lon="-3.290521">
        <ele>830.0</ele>
        <time>2012-04-12T23:19:53Z</time>
      </trkpt>
      <trkpt lat="43.186314" lon="-3.290362">
        <ele>835.0</ele>
        <time>2012-04-12T23:20:33Z</time>
      </trkpt>
      <trkpt lat="43.186347" lon="-3.290555">
        <ele>830.0</ele>
        <time>2012-04-12T23:21:13Z</time>
      </trkpt>
      <trkpt lat="43.186400" lon="-3.290416">
        <ele>835.0</ele>
        <time>2012-04-12T23:21:53Z</time>
      </trkpt>
      <trkpt lat="43.186428" lon="-3.290561">
        <ele>830.0</ele>
        <time>2012-04-12T23:22:33Z</time>
      </trkpt>
      <trkpt lat="43.186455" lon="-3.290411">
        <ele>835.0</ele>
        <time>2012-04-12T23:23:13Z</time>
      </trkpt>
      <trkpt lat="43.186477" lon="-3.290542">
        <ele>830.0</ele>
        <time>2012-04-12T23:23:53Z</time>
      </trkpt>
      <trkpt lat="43.186523" lon="-3.290411">
        <ele>835.0</ele>
        <time>2012-04-12T23:24:33Z</time>
      </trkpt>
      <trkpt lat="43.186537" lon="-3.290531">
        <ele>813.0</ele>
        <time>2012-04-12T23:25:13Z</time>
      </trkpt>
      <trkpt lat="43.186568" lon="-3.290421">
        <ele>813.0</ele>
        <time>2012-04-12T23:25:53Z</time>
      </trkpt>
      <trkpt lat="43.186588" lon="-3.290553">
        <ele>813.0</ele>
        <time>2012-04-12T23:26:33Z</time>
      </trkpt>
      <trkpt lat="43.186621" lon="-3.290424">
        <ele>813.0</ele>
        <time>2012-04-12T23:27:13Z</time>
      </trkpt>
      <trkpt lat="43.186639" lon="-3.290566">
        <ele>813.0</ele>
        <time>2012-04-12T23:27:53Z</time>
      </trkpt>
      <trkpt lat="43.186692" lon="-3.290419">
        <ele>813.0</ele>
        <time>2012-04-12T23:28:33Z</time>
      </trkpt>
      <trkpt lat="43.186717" lon="-3.290550">
        <ele>813.0</ele>
        <time>2012-04-12T23:29:13Z</time>
      </trkpt>
      <trkpt lat="43.186739" lon="-3.290432">
        <ele>813.0</ele>
        <time>2012-04-12T23:29:53Z</time>
      </trkpt>
      <trkpt lat="43.186793" lon="-3.290523">
        <ele>813.0</ele>
        <time>2012-04-12T23:30:33Z</time>
      </trkpt>
      <trkpt lat="43.186832" lon="-3.290400">
        <ele>801.0</ele>
        <time>2012-04-12T23:31:13Z</time>
      </trkpt>
      <trkpt lat="43.186870" lon="-3.290317">
        <ele>801.0</ele>
        <time>2012-04-12T23:31:53Z</time>
      </trkpt>
      <trkpt lat="43.186897" lon="-3.290244">
        <ele>801.0</ele>
        <time>2012-04-12T23:32:33Z</time>
      </trkpt>
      <trkpt lat="43.186922" lon="-3.290169">
        <ele>801.0</ele>
        <time>2012-04-12T23:33:13Z</time>
      </trkpt>
      <trkpt lat="43.186967" lon="-3.290260">
        <ele>801.0</ele>
        <time>2012-04-12T23:33:53Z</time>
      </trkpt>
      <trkpt lat="43.187005" lon="-3.290167">
        <ele>801.0</ele>
        <time>2012-04-12T23:34:33Z</time>
      </trkpt>
      <trkpt lat="43.187026" lon="-3.290268">
        <ele>801.0</ele>
        <time>2012-04-12T23:35:13Z</time>
      </trkpt>
      <trkpt lat="43.187071" lon="-3.290129">
        <ele>807.0</ele>
        <time>2012-04-12T23:35:53Z</time>
      </trkpt>
      <trkpt lat="43.187102" lon="-3.290287">
        <ele>782.0</ele>
        <time>2012-04-12T23:36:33Z</time>
      </trkpt>
      <trkpt lat="43.187128" lon="-3.290105">
        <ele>789.0</ele>
        <time>2012-04-12T23:37:13Z</time>
      </trkpt>
      <trkpt lat="43.187169" lon="-3.290277">
        <ele>782.0</ele>
        <time>2012-04-12T23:37:53Z</time>
      </trkpt>
      <trkpt lat="43.187192" lon="-3.290129">
        <ele>789.0</ele>
        <time>2012-04-12T23:38:33Z</time>
      </trkpt>
      <trkpt lat="43.187216" lon="-3.290255">
        <ele>782.0</ele>
        <time>2012-04-12T23:39:13Z</time>
      </trkpt>
      <trkpt lat="43.187261" lon="-3.290105">
        <ele>789.0</ele>
        <time>2012-04-12T23:39:53Z</time>
      </trkpt>
      <trkpt lat="43.187284" lon="-3.290242">
        <ele>782.0</ele>
        <time>2012-04-12T23:40:33Z</time>
      </trkpt>
      <trkpt lat="43.187308" lon="-3.290137">
        <ele>789.0</ele>
        <time>2012-04-12T23:41:13Z</time>
      </trkpt>
      <trkpt lat="43.187327" lon="-3.290250">
        <ele>782.0</ele>
        <time>2012-04-12T23:41:53Z</time>
      </trkpt>
      <trkpt lat="43.187359" lon="-3.290156">
        <ele>782.0</ele>
        <time>2012-04-12T23:42:33Z</time>
      </trkpt>
      <trkpt lat="43.187374" lon="-3.290220">
        <ele>762.0</ele>
        <time>2012-04-12T23:43:13Z</time>
      </trkpt>
      <trkpt lat="43.187423" lon="-3.290156">
        <ele>762.0</ele>
        <time>2012-04-12T23:43:53Z</time>
      </trkpt>
      <trkpt lat="43.187456" lon="-3.290207">
        <ele>762.0</ele>
        <time>2012-04-12T23:44:33Z</time>
      </trkpt>
      <trkpt lat="43.187484" lon="-3.290134">
        <ele>770.0</ele>
        <time>2012-04-12T23:45:13Z</time>
      </trkpt>
      <trkpt lat="43.187525" lon="-3.290212">
        <ele>762.0</ele>
        <time>2012-04-12T23:45:53Z</time>
      </trkpt>
      <trkpt lat="43.187548" lon="-3.290134">
        <ele>770.0</ele>
        <time>2012-04-12T23:46:33Z</time>
      </trkpt>
      <trkpt lat="43.187574" lon="-3.290220">
        <ele>762.0</ele>
        <time>2012-04-12T23:47:13Z</time>
      </trkpt>
      <trkpt lat="43.187589" lon="-3.290121">
        <ele>770.0</ele>
        <time>2012-04-12T23:47:53Z</time>
      </trkpt>
      <trkpt lat="43.187619" lon="-3.290260">
        <ele>762.0</ele>
        <time>2012-04-12T23:48:33Z</time>
      </trkpt>
      <trkpt lat="43.187636" lon="-3.290140">
        <ele>762.0</ele>
        <time>2012-04-12T23:49:13Z</time>
      </trkpt>
      <trkpt lat="43.187664" lon="-3.290239">
        <ele>744.0</ele>
        <time>2012-04-12T23:49:53Z</time>
      </trkpt>
      <trkpt lat="43.187679" lon="-3.290129">
        <ele>752.0</ele>
        <time>2012-04-12T23:50:33Z</time>
      </trkpt>
      <trkpt lat="43.187705" lon="-3.290239">
        <ele>744.0</ele>
        <time>2012-04-12T23:51:13Z</time>
      </trkpt>
      <trkpt lat="43.187738" lon="-3.290105">
        <ele>752.0</ele>
        <time>2012-04-12T23:51:53Z</time>
      </trkpt>
      <trkpt lat="43.187767" lon="-3.290199">
        <ele>744.0</ele>
        <time>2012-04-12T23:52:33Z</time>
      </trkpt>
      <trkpt lat="43.187789" lon="-3.290121">
        <ele>752.0</ele>
        <time>2012-04-12T23:53:13Z</time>
      </trkpt>
      <trkpt lat="43.187828" lon="-3.290228">
        <ele>744.0</ele>
        <time>2012-04-12T23:53:53Z</time>
      </trkpt>
      <trkpt lat="43.187845" lon="-3.290057">
        <ele>752.0</ele>
        <time>2012-04-12T23:54:33Z</time>
      </trkpt>
      <trkpt lat="43.187881" lon="-3.290199">
        <ele>744.0</ele>
        <time>2012-04-12T23:55:13Z</time>
      </trkpt>
      <trkpt lat="43.187920" lon="-3.290116">
        <ele>735.0</ele>
        <time>2012-04-12T23:55:53Z</time>
      </trkpt>
      <trkpt lat="43.187939" lon="-3.290191">
        <ele>727.0</ele>
        <time>2012-04-12T23:56:33Z</time>
      </trkpt>
      <trkpt lat="43.187955" lon="-3.290070">
        <ele>735.0</ele>
        <time>2012-04-12T23:57:13Z</time>
      </trkpt>
      <trkpt lat="43.187990" lon="-3.290199">
        <ele>727.0</ele>
        <time>2012-04-12T23:57:53Z</time>
      </trkpt>
      <trkpt lat="43.188004" lon="-3.290100">
        <ele>735.0</ele>
        <time>2012-04-12T23:58:33Z</time>
      </trkpt>
      <trkpt lat="43.188041" lon="-3.290196">
        <ele>727.0</ele>
        <time>2012-04-12T23:59:13Z</time>
      </trkpt>
      <trkpt lat="43.188070" lon="-3.290129">
        <ele>735.0</ele>
        <time>2012-04-12T23:59:53Z</time>
      </trkpt>
      <trkpt lat="43.188100" lon="-3.290081">
        <ele>735.0</ele>
        <time>2012-04-13T00:00:33Z</time>
      </trkpt>
      <trkpt lat="43.188129" lon="-3.290116">
        <ele>735.0</ele>
        <time>2012-04-13T00:01:13Z</time>
      </trkpt>
      <trkpt lat="43.188164" lon="-3.290065">
        <ele>735.0</ele>
        <time>2012-04-13T00:01:53Z</time>
      </trkpt>
      <trkpt lat="43.188205" lon="-3.290110">
        <ele>721.0</ele>
        <time>2012-04-13T00:02:33Z</time>
      </trkpt>
      <trkpt lat="43.188231" lon="-3.290032">
        <ele>721.0</ele>
        <time>2012-04-13T00:03:13Z</time>
      </trkpt>
      <trkpt lat="43.188252" lon="-3.290121">
        <ele>721.0</ele>
        <time>2012-04-13T00:03:53Z</time>
      </trkpt>
      <trkpt lat="43.188282" lon="-3.290000">
        <ele>721.0</ele>
        <time>2012-04-13T00:04:33Z</time>
      </trkpt>
      <trkpt lat="43.188305" lon="-3.290086">
        <ele>721.0</ele>
        <time>2012-04-13T00:05:13Z</time>
      </trkpt>
      <trkpt lat="43.188323" lon="-3.289973">
        <ele>721.0</ele>
        <time>2012-04-13T00:05:53Z</time>
      </trkpt>
      <trkpt lat="43.188348" lon="-3.290100">
        <ele>721.0</ele>
        <time>2012-04-13T00:06:33Z</time>
      </trkpt>
      <trkpt lat="43.188381" lon="-3.289976">
        <ele>721.0</ele>
        <time>2012-04-13T00:07:13Z</time>
      </trkpt>
      <trkpt lat="43.188409" lon="-3.289914">
        <ele>721.0</ele>
        <time>2012-04-13T00:07:53Z</time>
      </trkpt>
      <trkpt lat="43.188434" lon="-3.289872">
        <ele>721.0</ele>
        <time>2012-04-13T00:08:33Z</time>
      </trkpt>
      <trkpt lat="43.188512" lon="-3.289842">
        <ele>720.0</ele>
        <time>2012-04-13T00:09:13Z</time>
      </trkpt>
      <trkpt lat="43.188600" lon="-3.289778">
        <ele>720.0</ele>
        <time>2012-04-13T00:09:53Z</time>
      </trkpt>
      <trkpt lat="43.188690" lon="-3.289724">
        <ele>720.0</ele>
        <time>2012-04-13T00:10:33Z</time>
      </trkpt>
      <trkpt lat="43.188788" lon="-3.289708">
        <ele>714.0</ele>
        <time>2012-04-13T00:11:13Z</time>
      </trkpt>
      <trkpt lat="43.188900" lon="-3.289751">
        <ele>714.0</ele>
        <time>2012-04-13T00:11:53Z</time>
      </trkpt>
      <trkpt lat="43.189019" lon="-3.289821">
        <ele>714.0</ele>
        <time>2012-04-13T00:12:33Z</time>
      </trkpt>
      <trkpt lat="43.189156" lon="-3.289858">
        <ele>712.0</ele>
        <time>2012-04-13T00:13:13Z</time>
      </trkpt>
      <trkpt lat="43.189394" lon="-3.289890">
        <ele>698.0</ele>
        <time>2012-04-13T00:13:53Z</time>
      </trkpt>
      <trkpt lat="43.189557" lon="-3.289922">
        <ele>698.0</ele>
        <time>2012-04-13T00:14:33Z</time>
      </trkpt>
      <trkpt lat="43.189789" lon="-3.290011">
        <ele>700.0</ele>
        <time>2012-04-13T00:15:13Z</time>
      </trkpt>
      <trkpt lat="43.189932" lon="-3.290086">
        <ele>701.0</ele>
        <time>2012-04-13T00:15:53Z</time>
      </trkpt>
      <trkpt lat="43.190202" lon="-3.290183">
        <ele>689.0</ele>
        <time>2012-04-13T00:16:33Z</time>
      </trkpt>
      <trkpt lat="43.190358" lon="-3.290236">
        <ele>689.0</ele>
        <time>2012-04-13T00:17:13Z</time>
      </trkpt>
      <trkpt lat="43.190574" lon="-3.290277">
        <ele>691.0</ele>
        <time>2012-04-13T00:17:53Z</time>
      </trkpt>
      <trkpt lat="43.190691" lon="-3.290244">
        <ele>691.0</ele>
        <time>2012-04-13T00:18:33Z</time>
      </trkpt>
      <trkpt lat="43.190910" lon="-3.290169">
        <ele>690.0</ele>
        <time>2012-04-13T00:19:13Z</time>
      </trkpt>
      <trkpt lat="43.190971" lon="-3.290242">
        <ele>690.0</ele>
        <time>2012-04-13T00:19:53Z</time>
      </trkpt>
      <trkpt lat="43.191117" lon="-3.290547">
        <ele>677.0</ele>
        <time>2012-04-13T00:20:33Z</time>
      </trkpt>
      <trkpt lat="43.191238" lon="-3.290840">
        <ele>670.0</ele>
        <time>2012-04-13T00:21:13Z</time>
      </trkpt>
      <trkpt lat="43.191321" lon="-3.291009">
        <ele>664.0</ele>
        <time>2012-04-13T00:21:53Z</time>
      </trkpt>
      <trkpt lat="43.191375" lon="-3.291143">
        <ele>664.0</ele>
        <time>2012-04-13T00:22:33Z</time>
      </trkpt>
      <trkpt lat="43.191438" lon="-3.291371">
        <ele>660.0</ele>
        <time>2012-04-13T00:23:13Z</time>
      </trkpt>
      <trkpt lat="43.191502" lon="-3.291516">
        <ele>660.0</ele>
        <time>2012-04-13T00:23:53Z</time>
      </trkpt>
      <trkpt lat="43.191596" lon="-3.291811">
        <ele>653.0</ele>
        <time>2012-04-13T00:24:33Z</time>
      </trkpt>
      <trkpt lat="43.191659" lon="-3.292159">
        <ele>650.0</ele>
        <time>2012-04-13T00:25:13Z</time>
      </trkpt>
      <trkpt lat="43.191725" lon="-3.292465">
        <ele>647.0</ele>
        <time>2012-04-13T00:25:53Z</time>
      </trkpt>
      <trkpt lat="43.191772" lon="-3.292642">
        <ele>645.0</ele>
        <time>2012-04-13T00:26:33Z</time>
      </trkpt>
      <trkpt lat="43.191804" lon="-3.292792">
        <ele>645.0</ele>
        <time>2012-04-13T00:27:13Z</time>
      </trkpt>
      <trkpt lat="43.191835" lon="-3.292886">
        <ele>647.0</ele>
        <time>2012-04-13T00:27:53Z</time>
      </trkpt>
      <trkpt lat="43.191944" lon="-3.292956">
        <ele>647.0</ele>
        <time>2012-04-13T00:28:33Z</time>
      </trkpt>
      <trkpt lat="43.192079" lon="-3.293023">
        <ele>647.0</ele>
        <time>2012-04-13T00:29:13Z</time>
      </trkpt>
      <trkpt lat="43.192187" lon="-3.293141">
        <ele>646.0</ele>
        <time>2012-04-13T00:29:53Z</time>
      </trkpt>
      <trkpt lat="43.192271" lon="-3.293291">
        <ele>648.0</ele>
        <time>2012-04-13T00:30:33Z</time>
      </trkpt>
      <trkpt lat="43.192314" lon="-3.293498">
        <ele>649.0</ele>
        <time>2012-04-13T00:31:13Z</time>
      </trkpt>
      <trkpt lat="43.192324" lon="-3.293739">
        <ele>649.0</ele>
        <time>2012-04-13T00:31:53Z</time>
      </trkpt>
      <trkpt lat="43.192361" lon="-3.293863">
        <ele>649.0</ele>
        <time>2012-04-13T00:32:33Z</time>
      </trkpt>
      <trkpt lat="43.192408" lon="-3.294029">
        <ele>647.0</ele>
        <time>2012-04-13T00:33:13Z</time>
      </trkpt>
      <trkpt lat="43.192472" lon="-3.294289">
        <ele>647.0</ele>
        <time>2012-04-13T00:33:53Z</time>
      </trkpt>
      <trkpt lat="43.192537" lon="-3.294474">
        <ele>646.0</ele>
        <time>2012-04-13T00:34:33Z</time>
      </trkpt>
      <trkpt lat="43.192576" lon="-3.294581">
        <ele>646.0</ele>
        <time>2012-04-13T00:35:13Z</time>
      </trkpt>
      <trkpt lat="43.192641" lon="-3.294721">
        <ele>640.0</ele>
        <time>2012-04-13T00:35:53Z</time>
      </trkpt>
      <trkpt lat="43.192779" lon="-3.294917">
        <ele>637.0</ele>
        <time>2012-04-13T00:36:33Z</time>
      </trkpt>
      <trkpt lat="43.192924" lon="-3.295059">
        <ele>635.0</ele>
        <time>2012-04-13T00:37:13Z</time>
      </trkpt>
      <trkpt lat="43.193024" lon="-3.295180">
        <ele>632.0</ele>
        <time>2012-04-13T00:37:53Z</time>
      </trkpt>
      <trkpt lat="43.193444" lon="-3.295587">
        <ele>626.0</ele>
        <time>2012-04-13T00:38:33Z</time>
      </trkpt>
      <trkpt lat="43.193593" lon="-3.295738">
        <ele>621.0</ele>
        <time>2012-04-13T00:39:13Z</time>
      </trkpt>
      <trkpt lat="43.193734" lon="-3.295877">
        <ele>621.0</ele>
        <time>2012-04-13T00:39:53Z</time>
      </trkpt>
      <trkpt lat="43.193845" lon="-3.295968">
        <ele>618.0</ele>
        <time>2012-04-13T00:40:33Z</time>
      </trkpt>
      <trkpt lat="43.193912" lon="-3.296062">
        <ele>617.0</ele>
        <time>2012-04-13T00:41:13Z</time>
      </trkpt>
      <trkpt lat="43.193962" lon="-3.296223">
        <ele>617.0</ele>
        <time>2012-04-13T00:41:53Z</time>
      </trkpt>
      <trkpt lat="43.194007" lon="-3.296322">
        <ele>617.0</ele>
        <time>2012-04-13T00:42:33Z</time>
      </trkpt>
      <trkpt lat="43.194029" lon="-3.296392">
        <ele>612.0</ele>
        <time>2012-04-13T00:43:13Z</time>
      </trkpt>
      <trkpt lat="43.194138" lon="-3.296515">
        <ele>612.0</ele>
        <time>2012-04-13T00:43:53Z</time>
      </trkpt>
      <trkpt lat="43.194250" lon="-3.296690">
        <ele>612.0</ele>
        <time>2012-04-13T00:44:33Z</time>
      </trkpt>
      <trkpt lat="43.194359" lon="-3.296912">
        <ele>605.0</ele>
        <time>2012-04-13T00:45:13Z</time>
      </trkpt>
      <trkpt lat="43.194402" lon="-3.297191">
        <ele>604.0</ele>
        <time>2012-04-13T00:45:53Z</time>
      </trkpt>
      <trkpt lat="43.194436" lon="-3.297518">
        <ele>601.0</ele>
        <time>2012-04-13T00:46:33Z</time>
      </trkpt>
      <trkpt lat="43.194449" lon="-3.297776">
        <ele>599.0</ele>
        <time>2012-04-13T00:47:13Z</time>
      </trkpt>
      <trkpt lat="43.194436" lon="-3.298264">
        <ele>593.0</ele>
        <time>2012-04-13T00:47:53Z</time>
      </trkpt>
      <trkpt lat="43.194422" lon="-3.298551">
        <ele>590.0</ele>
        <time>2012-04-13T00:48:33Z</time>
      </trkpt>
      <trkpt lat="43.194414" lon="-3.298771">
        <ele>588.0</ele>
        <time>2012-04-13T00:49:13Z</time>
      </trkpt>
      <trkpt lat="43.194408" lon="-3.299047">
        <ele>586.0</ele>
        <time>2012-04-13T00:49:53Z</time>
      </trkpt>
      <trkpt lat="43.194400" lon="-3.299259">
        <ele>586.0</ele>
        <time>2012-04-13T00:50:33Z</time>
      </trkpt>
      <trkpt lat="43.194348" lon="-3.299463">
        <ele>584.0</ele>
        <time>2012-04-13T00:51:13Z</time>
      </trkpt>
      <trkpt lat="43.194252" lon="-3.299686">
        <ele>587.0</ele>
        <time>2012-04-13T00:51:53Z</time>
      </trkpt>
      <trkpt lat="43.194217" lon="-3.299839">
        <ele>587.0</ele>
        <time>2012-04-13T00:52:33Z</time>
      </trkpt>
      <trkpt lat="43.194205" lon="-3.299965">
        <ele>585.0</ele>
        <time>2012-04-13T00:53:13Z</time>
      </trkpt>
      <trkpt lat="43.194166" lon="-3.300048">
        <ele>585.0</ele>
        <time>2012-04-13T00:53:53Z</time>
      </trkpt>
      <trkpt lat="43.194127" lon="-3.300166">
        <ele>583.0</ele>
        <time>2012-04-13T00:54:33Z</time>
      </trkpt>
      <trkpt lat="43.194095" lon="-3.300268">
        <ele>583.0</ele>
        <time>2012-04-13T00:55:13Z</time>
      </trkpt>
      <trkpt lat="43.194048" lon="-3.300316">
        <ele>583.0</ele>
        <time>2012-04-13T00:55:53Z</time>
      </trkpt>
      <trkpt lat="43.194021" lon="-3.300402">
        <ele>582.0</ele>
        <time>2012-04-13T00:56:33Z</time>
      </trkpt>
      <trkpt lat="43.193990" lon="-3.300541">
        <ele>580.0</ele>
        <time>2012-04-13T00:57:13Z</time>
      </trkpt>
      <trkpt lat="43.193962" lon="-3.300654">
        <ele>580.0</ele>
        <time>2012-04-13T00:57:53Z</time>
      </trkpt>
      <trkpt lat="43.193951" lon="-3.300828">
        <ele>578.0</ele>
        <time>2012-04-13T00:58:33Z</time>
      </trkpt>
      <trkpt lat="43.193943" lon="-3.300989">
        <ele>575.0</ele>
        <time>2012-04-13T00:59:13Z</time>
      </trkpt>
      <trkpt lat="43.193931" lon="-3.301094">
        <ele>575.0</ele>
        <time>2012-04-13T00:59:53Z</time>
      </trkpt>
      <trkpt lat="43.193955" lon="-3.301351">
        <ele>571.0</ele>
        <time>2012-04-13T01:00:33Z</time>
      </trkpt>
      <trkpt lat="43.193976" lon="-3.301547">
        <ele>565.0</ele>
        <time>2012-04-13T01:01:13Z</time>
      </trkpt>
      <trkpt lat="43.194005" lon="-3.301810">
        <ele>559.0</ele>
        <time>2012-04-13T01:01:53Z</time>
      </trkpt>
      <trkpt lat="43.194035" lon="-3.302000">
        <ele>560.0</ele>
        <time>2012-04-13T01:02:33Z</time>
      </trkpt>
      <trkpt lat="43.194023" lon="-3.302143">
        <ele>552.0</ele>
        <time>2012-04-13T01:03:13Z</time>
      </trkpt>
      <trkpt lat="43.194037" lon="-3.302320">
        <ele>554.0</ele>
        <time>2012-04-13T01:03:53Z</time>
      </trkpt>
      <trkpt lat="43.194095" lon="-3.302491">
        <ele>547.0</ele>
        <time>2012-04-13T01:04:33Z</time>
      </trkpt>
      <trkpt lat="43.194264" lon="-3.302760">
        <ele>541.0</ele>
        <time>2012-04-13T01:05:13Z</time>
      </trkpt>
      <trkpt lat="43.194441" lon="-3.302945">
        <ele>538.0</ele>
        <time>2012-04-13T01:05:53Z</time>
      </trkpt>
      <trkpt lat="43.194571" lon="-3.303151">
        <ele>538.0</ele>
        <time>2012-04-13T01:06:33Z</time>
      </trkpt>
      <trkpt lat="43.194700" lon="-3.303384">
        <ele>535.0</ele>
        <time>2012-04-13T01:07:13Z</time>
      </trkpt>
      <trkpt lat="43.194915" lon="-3.303722">
        <ele>530.0</ele>
        <time>2012-04-13T01:07:53Z</time>
      </trkpt>
      <trkpt lat="43.195001" lon="-3.303889">
        <ele>526.0</ele>
        <time>2012-04-13T01:08:33Z</time>
      </trkpt>
      <trkpt lat="43.195122" lon="-3.303991">
        <ele>526.0</ele>
        <time>2012-04-13T01:09:13Z</time>
      </trkpt>
      <trkpt lat="43.195570" lon="-3.304219">
        <ele>520.0</ele>
        <time>2012-04-13T01:09:53Z</time>
      </trkpt>
      <trkpt lat="43.195732" lon="-3.304307">
        <ele>514.0</ele>
        <time>2012-04-13T01:10:33Z</time>
      </trkpt>
      <trkpt lat="43.195877" lon="-3.304420">
        <ele>514.0</ele>
        <time>2012-04-13T01:11:13Z</time>
      </trkpt>
      <trkpt lat="43.195912" lon="-3.304570">
        <ele>514.0</ele>
        <time>2012-04-13T01:11:53Z</time>
      </trkpt>
      <trkpt lat="43.195879" lon="-3.304640">
        <ele>509.0</ele>
        <time>2012-04-13T01:12:33Z</time>
      </trkpt>
      <trkpt lat="43.195838" lon="-3.304675">
        <ele>509.0</ele>
        <time>2012-04-13T01:13:13Z</time>
      </trkpt>
      <trkpt lat="43.195787" lon="-3.304680">
        <ele>509.0</ele>
        <time>2012-04-13T01:13:53Z</time>
      </trkpt>
      <trkpt lat="43.195707" lon="-3.304656">
        <ele>509.0</ele>
        <time>2012-04-13T01:14:33Z</time>
      </trkpt>
      <trkpt lat="43.195570" lon="-3.304632">
        <ele>511.0</ele>
        <time>2012-04-13T01:15:13Z</time>
      </trkpt>
      <trkpt lat="43.195456" lon="-3.304605">
        <ele>511.0</ele>
        <time>2012-04-13T01:15:53Z</time>
      </trkpt>
      <trkpt lat="43.195331" lon="-3.304608">
        <ele>511.0</ele>
        <time>2012-04-13T01:16:33Z</time>
      </trkpt>
      <trkpt lat="43.195204" lon="-3.304691">
        <ele>511.0</ele>
        <time>2012-04-13T01:17:13Z</time>
      </trkpt>
      <trkpt lat="43.195128" lon="-3.304739">
        <ele>510.0</ele>
        <time>2012-04-13T01:17:53Z</time>
      </trkpt>
      <trkpt lat="43.195038" lon="-3.304822">
        <ele>510.0</ele>
        <time>2012-04-13T01:18:33Z</time>
      </trkpt>
      <trkpt lat="43.194913" lon="-3.304897">
        <ele>503.0</ele>
        <time>2012-04-13T01:19:13Z</time>
      </trkpt>
      <trkpt lat="43.194842" lon="-3.304924">
        <ele>498.0</ele>
        <time>2012-04-13T01:19:53Z</time>
      </trkpt>
      <trkpt lat="43.194811" lon="-3.304994">
        <ele>498.0</ele>
        <time>2012-04-13T01:20:33Z</time>
      </trkpt>
      <trkpt lat="43.194889" lon="-3.305047">
        <ele>503.0</ele>
        <time>2012-04-13T01:21:13Z</time>
      </trkpt>
      <trkpt lat="43.194993" lon="-3.304996">
        <ele>503.0</ele>
        <time>2012-04-13T01:21:53Z</time>
      </trkpt>
      <trkpt lat="43.195065" lon="-3.304946">
        <ele>503.0</ele>
        <time>2012-04-13T01:22:33Z</time>
      </trkpt>
      <trkpt lat="43.195181" lon="-3.304929">
        <ele>505.0</ele>
        <time>2012-04-13T01:23:13Z</time>
      </trkpt>
      <trkpt lat="43.195296" lon="-3.304983">
        <ele>505.0</ele>
        <time>2012-04-13T01:23:53Z</time>
      </trkpt>
      <trkpt lat="43.195427" lon="-3.305029">
        <ele>505.0</ele>
        <time>2012-04-13T01:24:33Z</time>
      </trkpt>
      <trkpt lat="43.195521" lon="-3.305106">
        <ele>505.0</ele>
        <time>2012-04-13T01:25:13Z</time>
      </trkpt>
      <trkpt lat="43.195746" lon="-3.305345">
        <ele>498.0</ele>
        <time>2012-04-13T01:25:53Z</time>
      </trkpt>
      <trkpt lat="43.195797" lon="-3.305442">
        <ele>493.0</ele>
        <time>2012-04-13T01:26:33Z</time>
      </trkpt>
      <trkpt lat="43.195928" lon="-3.305710">
        <ele>488.0</ele>
        <time>2012-04-13T01:27:13Z</time>
      </trkpt>
      <trkpt lat="43.196014" lon="-3.305892">
        <ele>488.0</ele>
        <time>2012-04-13T01:27:53Z</time>
      </trkpt>
      <trkpt lat="43.196068" lon="-3.306043">
        <ele>485.0</ele>
        <time>2012-04-13T01:28:33Z</time>
      </trkpt>
      <trkpt lat="43.196131" lon="-3.306195">
        <ele>485.0</ele>
        <time>2012-04-13T01:29:13Z</time>
      </trkpt>
      <trkpt lat="43.196162" lon="-3.306383">
        <ele>483.0</ele>
        <time>2012-04-13T01:29:53Z</time>
      </trkpt>
      <trkpt lat="43.196166" lon="-3.306474">
        <ele>483.0</ele>
        <time>2012-04-13T01:30:33Z</time>
      </trkpt>
      <trkpt lat="43.196156" lon="-3.306566">
        <ele>482.0</ele>
        <time>2012-04-13T01:31:13Z</time>
      </trkpt>
      <trkpt lat="43.196123" lon="-3.306654">
        <ele>482.0</ele>
        <time>2012-04-13T01:31:53Z</time>
      </trkpt>
      <trkpt lat="43.196084" lon="-3.306705">
        <ele>482.0</ele>
        <time>2012-04-13T01:32:33Z</time>
      </trkpt>
      <trkpt lat="43.196047" lon="-3.306681">
        <ele>482.0</ele>
        <time>2012-04-13T01:33:13Z</time>
      </trkpt>
      <trkpt lat="43.195998" lon="-3.306724">
        <ele>482.0</ele>
        <time>2012-04-13T01:33:53Z</time>
      </trkpt>
      <trkpt lat="43.195924" lon="-3.306633">
        <ele>479.0</ele>
        <time>2012-04-13T01:34:33Z</time>
      </trkpt>
      <trkpt lat="43.195863" lon="-3.306584">
        <ele>479.0</ele>
        <time>2012-04-13T01:35:13Z</time>
      </trkpt>
      <trkpt lat="43.195818" lon="-3.306488">
        <ele>482.0</ele>
        <time>2012-04-13T01:35:53Z</time>
      </trkpt>
      <trkpt lat="43.195789" lon="-3.306405">
        <ele>482.0</ele>
        <time>2012-04-13T01:36:33Z</time>
      </trkpt>
      <trkpt lat="43.195714" lon="-3.306305">
        <ele>482.0</ele>
        <time>2012-04-13T01:37:13Z</time>
      </trkpt>
      <trkpt lat="43.195576" lon="-3.306209">
        <ele>482.0</ele>
        <time>2012-04-13T01:37:53Z</time>
      </trkpt>
      <trkpt lat="43.195490" lon="-3.306217">
        <ele>482.0</ele>
        <time>2012-04-13T01:38:33Z</time>
      </trkpt>
      <trkpt lat="43.195366" lon="-3.306222">
        <ele>478.0</ele>
        <time>2012-04-13T01:39:13Z</time>
      </trkpt>
      <trkpt lat="43.195298" lon="-3.306265">
        <ele>473.0</ele>
        <time>2012-04-13T01:39:53Z</time>
      </trkpt>
      <trkpt lat="43.195192" lon="-3.306359">
        <ele>473.0</ele>
        <time>2012-04-13T01:40:33Z</time>
      </trkpt>
      <trkpt lat="43.195044" lon="-3.306598">
        <ele>461.0</ele>
        <time>2012-04-13T01:41:13Z</time>
      </trkpt>
      <trkpt lat="43.195007" lon="-3.306710">
        <ele>461.0</ele>
        <time>2012-04-13T01:41:53Z</time>
      </trkpt>
      <trkpt lat="43.194966" lon="-3.306836">
        <ele>457.0</ele>
        <time>2012-04-13T01:42:33Z</time>
      </trkpt>
      <trkpt lat="43.194907" lon="-3.306949">
        <ele>457.0</ele>
        <time>2012-04-13T01:43:13Z</time>
      </trkpt>
      <trkpt lat="43.194868" lon="-3.306992">
        <ele>457.0</ele>
        <time>2012-04-13T01:43:53Z</time>
      </trkpt>
      <trkpt lat="43.194788" lon="-3.307016">
        <ele>447.0</ele>
        <time>2012-04-13T01:44:33Z</time>
      </trkpt>
      <trkpt lat="43.194723" lon="-3.307051">
        <ele>447.0</ele>
        <time>2012-04-13T01:45:13Z</time>
      </trkpt>
      <trkpt lat="43.194659" lon="-3.307075">
        <ele>447.0</ele>
        <time>2012-04-13T01:45:53Z</time>
      </trkpt>
      <trkpt lat="43.194614" lon="-3.307156">
        <ele>442.0</ele>
        <time>2012-04-13T01:46:33Z</time>
      </trkpt>
      <trkpt lat="43.194563" lon="-3.307148">
        <ele>431.0</ele>
        <time>2012-04-13T01:47:13Z</time>
      </trkpt>
      <trkpt lat="43.194528" lon="-3.307191">
        <ele>431.0</ele>
        <time>2012-04-13T01:47:53Z</time>
      </trkpt>
      <trkpt lat="43.194479" lon="-3.307207">
        <ele>431.0</ele>
        <time>2012-04-13T01:48:33Z</time>
      </trkpt>
      <trkpt lat="43.194426" lon="-3.307247">
        <ele>431.0</ele>
        <time>2012-04-13T01:49:13Z</time>
      </trkpt>
      <trkpt lat="43.194330" lon="-3.307325">
        <ele>431.0</ele>
        <time>2012-04-13T01:49:53Z</time>
      </trkpt>
      <trkpt lat="43.194273" lon="-3.307429">
        <ele>413.0</ele>
        <time>2012-04-13T01:50:33Z</time>
      </trkpt>
      <trkpt lat="43.194234" lon="-3.307504">
        <ele>413.0</ele>
        <time>2012-04-13T01:51:13Z</time>
      </trkpt>
      <trkpt lat="43.194269" lon="-3.307606">
        <ele>413.0</ele>
        <time>2012-04-13T01:51:53Z</time>
      </trkpt>
      <trkpt lat="43.194328" lon="-3.307684">
        <ele>415.0</ele>
        <time>2012-04-13T01:52:33Z</time>
      </trkpt>
      <trkpt lat="43.194404" lon="-3.307770">
        <ele>415.0</ele>
        <time>2012-04-13T01:53:13Z</time>
      </trkpt>
      <trkpt lat="43.194492" lon="-3.307813">
        <ele>415.0</ele>
        <time>2012-04-13T01:53:53Z</time>
      </trkpt>
      <trkpt lat="43.194637" lon="-3.307834">
        <ele>425.0</ele>
        <time>2012-04-13T01:54:33Z</time>
      </trkpt>
      <trkpt lat="43.194705" lon="-3.307891">
        <ele>425.0</ele>
        <time>2012-04-13T01:55:13Z</time>
      </trkpt>
      <trkpt lat="43.194733" lon="-3.308011">
        <ele>415.0</ele>
        <time>2012-04-13T01:55:53Z</time>
      </trkpt>
      <trkpt lat="43.194743" lon="-3.308121">
        <ele>415.0</ele>
        <time>2012-04-13T01:56:33Z</time>
      </trkpt>
      <trkpt lat="43.194737" lon="-3.308221">
        <ele>406.0</ele>
        <time>2012-04-13T01:57:13Z</time>
      </trkpt>
      <trkpt lat="43.194659" lon="-3.308339">
        <ele>406.0</ele>
        <time>2012-04-13T01:57:53Z</time>
      </trkpt>
      <trkpt lat="43.194629" lon="-3.308508">
        <ele>397.0</ele>
        <time>2012-04-13T01:58:33Z</time>
      </trkpt>
      <trkpt lat="43.194627" lon="-3.308631">
        <ele>397.0</ele>
        <time>2012-04-13T01:59:13Z</time>
      </trkpt>
      <trkpt lat="43.194645" lon="-3.308757">
        <ele>388.0</ele>
        <time>2012-04-13T01:59:53Z</time>
      </trkpt>
      <trkpt lat="43.194704" lon="-3.308880">
        <ele>388.0</ele>
        <time>2012-04-13T02:00:33Z</time>
      </trkpt>
      <trkpt lat="43.194956" lon="-3.309307">
        <ele>380.0</ele>
        <time>2012-04-13T02:01:13Z</time>
      </trkpt>
      <trkpt lat="43.195081" lon="-3.309564">
        <ele>380.0</ele>
        <time>2012-04-13T02:01:53Z</time>
      </trkpt>
      <trkpt lat="43.195130" lon="-3.309672">
        <ele>375.0</ele>
        <time>2012-04-13T02:02:33Z</time>
      </trkpt>
      <trkpt lat="43.195222" lon="-3.309819">
        <ele>379.0</ele>
        <time>2012-04-13T02:03:13Z</time>
      </trkpt>
      <trkpt lat="43.195316" lon="-3.309951">
        <ele>373.0</ele>
        <time>2012-04-13T02:03:53Z</time>
      </trkpt>
      <trkpt lat="43.195392" lon="-3.310061">
        <ele>373.0</ele>
        <time>2012-04-13T02:04:33Z</time>
      </trkpt>
      <trkpt lat="43.195533" lon="-3.310160">
        <ele>369.0</ele>
        <time>2012-04-13T02:05:13Z</time>
      </trkpt>
      <trkpt lat="43.195634" lon="-3.310221">
        <ele>369.0</ele>
        <time>2012-04-13T02:05:53Z</time>
      </trkpt>
      <trkpt lat="43.195748" lon="-3.310297">
        <ele>370.0</ele>
        <time>2012-04-13T02:06:33Z</time>
      </trkpt>
      <trkpt lat="43.195826" lon="-3.310350">
        <ele>370.0</ele>
        <time>2012-04-13T02:07:13Z</time>
      </trkpt>
      <trkpt lat="43.196021" lon="-3.310508">
        <ele>364.0</ele>
        <time>2012-04-13T02:07:53Z</time>
      </trkpt>
      <trkpt lat="43.196174" lon="-3.310669">
        <ele>364.0</ele>
        <time>2012-04-13T02:08:33Z</time>
      </trkpt>
      <trkpt lat="43.196248" lon="-3.310742">
        <ele>359.0</ele>
        <time>2012-04-13T02:09:13Z</time>
      </trkpt>
      <trkpt lat="43.196373" lon="-3.310892">
        <ele>357.0</ele>
        <time>2012-04-13T02:09:53Z</time>
      </trkpt>
      <trkpt lat="43.196608" lon="-3.311064">
        <ele>354.0</ele>
        <time>2012-04-13T02:10:33Z</time>
      </trkpt>
      <trkpt lat="43.196700" lon="-3.311120">
        <ele>354.0</ele>
        <time>2012-04-13T02:11:13Z</time>
      </trkpt>
      <trkpt lat="43.196774" lon="-3.311192">
        <ele>354.0</ele>
        <time>2012-04-13T02:11:53Z</time>
      </trkpt>
      <trkpt lat="43.196884" lon="-3.311270">
        <ele>353.0</ele>
        <time>2012-04-13T02:12:33Z</time>
      </trkpt>
      <trkpt lat="43.197046" lon="-3.311351">
        <ele>353.0</ele>
        <time>2012-04-13T02:13:13Z</time>
      </trkpt>
      <trkpt lat="43.197132" lon="-3.311402">
        <ele>353.0</ele>
        <time>2012-04-13T02:13:53Z</time>
      </trkpt>
      <trkpt lat="43.197257" lon="-3.311522">
        <ele>353.0</ele>
        <time>2012-04-13T02:14:33Z</time>
      </trkpt>
      <trkpt lat="43.197357" lon="-3.311605">
        <ele>349.0</ele>
        <time>2012-04-13T02:15:13Z</time>
      </trkpt>
      <trkpt lat="43.197449" lon="-3.311675">
        <ele>347.0</ele>
        <time>2012-04-13T02:15:53Z</time>
      </trkpt>
      <trkpt lat="43.197533" lon="-3.311734">
        <ele>347.0</ele>
        <time>2012-04-13T02:16:33Z</time>
      </trkpt>
      <trkpt lat="43.197666" lon="-3.311788">
        <ele>344.0</ele>
        <time>2012-04-13T02:17:13Z</time>
      </trkpt>
      <trkpt lat="43.197756" lon="-3.311809">
        <ele>341.0</ele>
        <time>2012-04-13T02:17:53Z</time>
      </trkpt>
      <trkpt lat="43.197834" lon="-3.311847">
        <ele>341.0</ele>
        <time>2012-04-13T02:18:33Z</time>
      </trkpt>
      <trkpt lat="43.197920" lon="-3.311960">
        <ele>338.0</ele>
        <time>2012-04-13T02:19:13Z</time>
      </trkpt>
      <trkpt lat="43.198004" lon="-3.312010">
        <ele>338.0</ele>
        <time>2012-04-13T02:19:53Z</time>
      </trkpt>
      <trkpt lat="43.198153" lon="-3.311938">
        <ele>338.0</ele>
        <time>2012-04-13T02:20:33Z</time>
      </trkpt>
      <trkpt lat="43.198258" lon="-3.311909">
        <ele>334.0</ele>
        <time>2012-04-13T02:21:13Z</time>
      </trkpt>
      <trkpt lat="43.198376" lon="-3.311925">
        <ele>334.0</ele>
        <time>2012-04-13T02:21:53Z</time>
      </trkpt>
      <trkpt lat="43.198505" lon="-3.311989">
        <ele>331.0</ele>
        <time>2012-04-13T02:22:33Z</time>
      </trkpt>
      <trkpt lat="43.198548" lon="-3.312037">
        <ele>331.0</ele>
        <time>2012-04-13T02:23:13Z</time>
      </trkpt>
      <trkpt lat="43.198550" lon="-3.312166">
        <ele>329.0</ele>
        <time>2012-04-13T02:23:53Z</time>
      </trkpt>
      <trkpt lat="43.198518" lon="-3.312201">
        <ele>329.0</ele>
        <time>2012-04-13T02:24:33Z</time>
      </trkpt>
      <trkpt lat="43.198489" lon="-3.312247">
        <ele>329.0</ele>
        <time>2012-04-13T02:25:13Z</time>
      </trkpt>
      <trkpt lat="43.198477" lon="-3.312308">
        <ele>329.0</ele>
        <time>2012-04-13T02:25:53Z</time>
      </trkpt>
      <trkpt lat="43.198464" lon="-3.312386">
        <ele>330.0</ele>
        <time>2012-04-13T02:26:33Z</time>
      </trkpt>
      <trkpt lat="43.198448" lon="-3.312501">
        <ele>330.0</ele>
        <time>2012-04-13T02:27:13Z</time>
      </trkpt>
      <trkpt lat="43.198462" lon="-3.312601">
        <ele>330.0</ele>
        <time>2012-04-13T02:27:53Z</time>
      </trkpt>
      <trkpt lat="43.198479" lon="-3.312719">
        <ele>326.0</ele>
        <time>2012-04-13T02:28:33Z</time>
      </trkpt>
      <trkpt lat="43.198522" lon="-3.312807">
        <ele>326.0</ele>
        <time>2012-04-13T02:29:13Z</time>
      </trkpt>
      <trkpt lat="43.198577" lon="-3.312914">
        <ele>326.0</ele>
        <time>2012-04-13T02:29:53Z</time>
      </trkpt>
      <trkpt lat="43.198634" lon="-3.313008">
        <ele>325.0</ele>
        <time>2012-04-13T02:30:33Z</time>
      </trkpt>
      <trkpt lat="43.198687" lon="-3.313083">
        <ele>325.0</ele>
        <time>2012-04-13T02:31:13Z</time>
      </trkpt>
      <trkpt lat="43.198767" lon="-3.313040">
        <ele>325.0</ele>
        <time>2012-04-13T02:31:53Z</time>
      </trkpt>
      <trkpt lat="43.198790" lon="-3.312955">
        <ele>325.0</ele>
        <time>2012-04-13T02:32:33Z</time>
      </trkpt>
      <trkpt lat="43.198825" lon="-3.312866">
        <ele>326.0</ele>
        <time>2012-04-13T02:33:13Z</time>
      </trkpt>
      <trkpt lat="43.198888" lon="-3.312740">
        <ele>326.0</ele>
        <time>2012-04-13T02:33:53Z</time>
      </trkpt>
      <trkpt lat="43.198921" lon="-3.312654">
        <ele>326.0</ele>
        <time>2012-04-13T02:34:33Z</time>
      </trkpt>
      <trkpt lat="43.198980" lon="-3.312582">
        <ele>327.0</ele>
        <time>2012-04-13T02:35:13Z</time>
      </trkpt>
      <trkpt lat="43.199003" lon="-3.312507">
        <ele>327.0</ele>
        <time>2012-04-13T02:35:53Z</time>
      </trkpt>
      <trkpt lat="43.199058" lon="-3.312356">
        <ele>332.0</ele>
        <time>2012-04-13T02:36:33Z</time>
      </trkpt>
      <trkpt lat="43.199107" lon="-3.312247">
        <ele>332.0</ele>
        <time>2012-04-13T02:37:13Z</time>
      </trkpt>
      <trkpt lat="43.199160" lon="-3.312163">
        <ele>332.0</ele>
        <time>2012-04-13T02:37:53Z</time>
      </trkpt>
      <trkpt lat="43.199222" lon="-3.312094">
        <ele>332.0</ele>
        <time>2012-04-13T02:38:33Z</time>
      </trkpt>
      <trkpt lat="43.199289" lon="-3.312035">
        <ele>334.0</ele>
        <time>2012-04-13T02:39:13Z</time>
      </trkpt>
      <trkpt lat="43.199355" lon="-3.312078">
        <ele>342.0</ele>
        <time>2012-04-13T02:39:53Z</time>
      </trkpt>
      <trkpt lat="43.199371" lon="-3.312153">
        <ele>340.0</ele>
        <time>2012-04-13T02:40:33Z</time>
      </trkpt>
      <trkpt lat="43.199392" lon="-3.312340">
        <ele>340.0</ele>
        <time>2012-04-13T02:41:13Z</time>
      </trkpt>
      <trkpt lat="43.199426" lon="-3.312469">
        <ele>338.0</ele>
        <time>2012-04-13T02:41:53Z</time>
      </trkpt>
      <trkpt lat="43.199447" lon="-3.312550">
        <ele>338.0</ele>
        <time>2012-04-13T02:42:33Z</time>
      </trkpt>
      <trkpt lat="43.199461" lon="-3.312649">
        <ele>338.0</ele>
        <time>2012-04-13T02:43:13Z</time>
      </trkpt>
      <trkpt lat="43.199471" lon="-3.312743">
        <ele>338.0</ele>
        <time>2012-04-13T02:43:53Z</time>
      </trkpt>
      <trkpt lat="43.199490" lon="-3.312799">
        <ele>338.0</ele>
        <time>2012-04-13T02:44:33Z</time>
      </trkpt>
      <trkpt lat="43.199480" lon="-3.312877">
        <ele>338.0</ele>
        <time>2012-04-13T02:45:13Z</time>
      </trkpt>
      <trkpt lat="43.199459" lon="-3.312952">
        <ele>338.0</ele>
        <time>2012-04-13T02:45:53Z</time>
      </trkpt>
      <trkpt lat="43.199420" lon="-3.313124">
        <ele>338.0</ele>
        <time>2012-04-13T02:46:33Z</time>
      </trkpt>
      <trkpt lat="43.199420" lon="-3.313220">
        <ele>338.0</ele>
        <time>2012-04-13T02:47:13Z</time>
      </trkpt>
      <trkpt lat="43.199457" lon="-3.313319">
        <ele>338.0</ele>
        <time>2012-04-13T02:47:53Z</time>
      </trkpt>
      <trkpt lat="43.199531" lon="-3.313349">
        <ele>338.0</ele>
        <time>2012-04-13T02:48:33Z</time>
      </trkpt>
      <trkpt lat="43.199613" lon="-3.313276">
        <ele>350.0</ele>
        <time>2012-04-13T02:49:13Z</time>
      </trkpt>
      <trkpt lat="43.199692" lon="-3.313175">
        <ele>349.0</ele>
        <time>2012-04-13T02:49:53Z</time>
      </trkpt>
      <trkpt lat="43.199795" lon="-3.313132">
        <ele>349.0</ele>
        <time>2012-04-13T02:50:33Z</time>
      </trkpt>
      <trkpt lat="43.199879" lon="-3.313188">
        <ele>363.0</ele>
        <time>2012-04-13T02:51:13Z</time>
      </trkpt>
      <trkpt lat="43.199914" lon="-3.313244">
        <ele>363.0</ele>
        <time>2012-04-13T02:51:53Z</time>
      </trkpt>
      <trkpt lat="43.199885" lon="-3.313408">
        <ele>363.0</ele>
        <time>2012-04-13T02:52:33Z</time>
      </trkpt>
      <trkpt lat="43.199866" lon="-3.313550">
        <ele>363.0</ele>
        <time>2012-04-13T02:53:13Z</time>
      </trkpt>
      <trkpt lat="43.199893" lon="-3.313684">
        <ele>363.0</ele>
        <time>2012-04-13T02:53:53Z</time>
      </trkpt>
      <trkpt lat="43.199948" lon="-3.313794">
        <ele>362.0</ele>
        <time>2012-04-13T02:54:33Z</time>
      </trkpt>
      <trkpt lat="43.200018" lon="-3.313912">
        <ele>362.0</ele>
        <time>2012-04-13T02:55:13Z</time>
      </trkpt>
      <trkpt lat="43.200159" lon="-3.313934">
        <ele>374.0</ele>
        <time>2012-04-13T02:55:53Z</time>
      </trkpt>
      <trkpt lat="43.200261" lon="-3.313856">
        <ele>374.0</ele>
        <time>2012-04-13T02:56:33Z</time>
      </trkpt>
      <trkpt lat="43.200327" lon="-3.313767">
        <ele>374.0</ele>
        <time>2012-04-13T02:57:13Z</time>
      </trkpt>
      <trkpt lat="43.200392" lon="-3.313695">
        <ele>375.0</ele>
        <time>2012-04-13T02:57:53Z</time>
      </trkpt>
      <trkpt lat="43.200454" lon="-3.313644">
        <ele>384.0</ele>
        <time>2012-04-13T02:58:33Z</time>
      </trkpt>
      <trkpt lat="43.200605" lon="-3.313636">
        <ele>384.0</ele>
        <time>2012-04-13T02:59:13Z</time>
      </trkpt>
      <trkpt lat="43.200720" lon="-3.313663">
        <ele>391.0</ele>
        <time>2012-04-13T02:59:53Z</time>
      </trkpt>
      <trkpt lat="43.200822" lon="-3.313724">
        <ele>391.0</ele>
        <time>2012-04-13T03:00:33Z</time>
      </trkpt>
      <trkpt lat="43.200919" lon="-3.313797">
        <ele>388.0</ele>
        <time>2012-04-13T03:01:13Z</time>
      </trkpt>
      <trkpt lat="43.201123" lon="-3.313818">
        <ele>392.0</ele>
        <time>2012-04-13T03:01:53Z</time>
      </trkpt>
      <trkpt lat="43.201248" lon="-3.313840">
        <ele>392.0</ele>
        <time>2012-04-13T03:02:33Z</time>
      </trkpt>
      <trkpt lat="43.201361" lon="-3.313848">
        <ele>393.0</ele>
        <time>2012-04-13T03:03:13Z</time>
      </trkpt>
      <trkpt lat="43.201475" lon="-3.313877">
        <ele>393.0</ele>
        <time>2012-04-13T03:03:53Z</time>
      </trkpt>
      <trkpt lat="43.201516" lon="-3.313821">
        <ele>393.0</ele>
        <time>2012-04-13T03:04:33Z</time>
      </trkpt>
      <trkpt lat="43.201574" lon="-3.313695">
        <ele>399.0</ele>
        <time>2012-04-13T03:05:13Z</time>
      </trkpt>
      <trkpt lat="43.201604" lon="-3.313612">
        <ele>399.0</ele>
        <time>2012-04-13T03:05:53Z</time>
      </trkpt>
      <trkpt lat="43.201631" lon="-3.313427">
        <ele>405.0</ele>
        <time>2012-04-13T03:06:33Z</time>
      </trkpt>
      <trkpt lat="43.201643" lon="-3.313252">
        <ele>405.0</ele>
        <time>2012-04-13T03:07:13Z</time>
      </trkpt>
      <trkpt lat="43.201641" lon="-3.313113">
        <ele>412.0</ele>
        <time>2012-04-13T03:07:53Z</time>
      </trkpt>
      <trkpt lat="43.201639" lon="-3.312898">
        <ele>420.0</ele>
        <time>2012-04-13T03:08:33Z</time>
      </trkpt>
      <trkpt lat="43.201621" lon="-3.312737">
        <ele>420.0</ele>
        <time>2012-04-13T03:09:13Z</time>
      </trkpt>
      <trkpt lat="43.201610" lon="-3.312633">
        <ele>427.0</ele>
        <time>2012-04-13T03:09:53Z</time>
      </trkpt>
      <trkpt lat="43.201563" lon="-3.312542">
        <ele>427.0</ele>
        <time>2012-04-13T03:10:33Z</time>
      </trkpt>
      <trkpt lat="43.201518" lon="-3.312464">
        <ele>421.0</ele>
        <time>2012-04-13T03:11:13Z</time>
      </trkpt>
      <trkpt lat="43.201463" lon="-3.312402">
        <ele>421.0</ele>
        <time>2012-04-13T03:11:53Z</time>
      </trkpt>
      <trkpt lat="43.201453" lon="-3.312330">
        <ele>426.0</ele>
        <time>2012-04-13T03:12:33Z</time>
      </trkpt>
      <trkpt lat="43.201467" lon="-3.312244">
        <ele>426.0</ele>
        <time>2012-04-13T03:13:13Z</time>
      </trkpt>
      <trkpt lat="43.201500" lon="-3.312190">
        <ele>426.0</ele>
        <time>2012-04-13T03:13:53Z</time>
      </trkpt>
      <trkpt lat="43.201616" lon="-3.312356">
        <ele>433.0</ele>
        <time>2012-04-13T03:14:33Z</time>
      </trkpt>
      <trkpt lat="43.201819" lon="-3.312595">
        <ele>435.0</ele>
        <time>2012-04-13T03:15:13Z</time>
      </trkpt>
      <trkpt lat="43.202024" lon="-3.312759">
        <ele>427.0</ele>
        <time>2012-04-13T03:15:53Z</time>
      </trkpt>
      <trkpt lat="43.202167" lon="-3.312861">
        <ele>436.0</ele>
        <time>2012-04-13T03:16:33Z</time>
      </trkpt>
      <trkpt lat="43.202380" lon="-3.313014">
        <ele>439.0</ele>
        <time>2012-04-13T03:17:13Z</time>
      </trkpt>
      <trkpt lat="43.202462" lon="-3.313164">
        <ele>439.0</ele>
        <time>2012-04-13T03:17:53Z</time>
      </trkpt>
      <trkpt lat="43.202552" lon="-3.313311">
        <ele>431.0</ele>
        <time>2012-04-13T03:18:33Z</time>
      </trkpt>
      <trkpt lat="43.202703" lon="-3.313507">
        <ele>440.0</ele>
        <time>2012-04-13T03:19:13Z</time>
      </trkpt>
      <trkpt lat="43.202941" lon="-3.313759">
        <ele>448.0</ele>
        <time>2012-04-13T03:19:53Z</time>
      </trkpt>
      <trkpt lat="43.203053" lon="-3.313880">
        <ele>448.0</ele>
        <time>2012-04-13T03:20:33Z</time>
      </trkpt>
      <trkpt lat="43.203225" lon="-3.313982">
        <ele>457.0</ele>
        <time>2012-04-13T03:21:13Z</time>
      </trkpt>
      <trkpt lat="43.203360" lon="-3.314044">
        <ele>453.0</ele>
        <time>2012-04-13T03:21:53Z</time>
      </trkpt>
      <trkpt lat="43.203547" lon="-3.314194">
        <ele>460.0</ele>
        <time>2012-04-13T03:22:33Z</time>
      </trkpt>
      <trkpt lat="43.203625" lon="-3.314272">
        <ele>460.0</ele>
        <time>2012-04-13T03:23:13Z</time>
      </trkpt>
      <trkpt lat="43.203676" lon="-3.314349">
        <ele>456.0</ele>
        <time>2012-04-13T03:23:53Z</time>
      </trkpt>
      <trkpt lat="43.203727" lon="-3.314457">
        <ele>456.0</ele>
        <time>2012-04-13T03:24:33Z</time>
      </trkpt>
      <trkpt lat="43.203799" lon="-3.314615">
        <ele>458.0</ele>
        <time>2012-04-13T03:25:13Z</time>
      </trkpt>
      <trkpt lat="43.203844" lon="-3.314787">
        <ele>458.0</ele>
        <time>2012-04-13T03:25:53Z</time>
      </trkpt>
      <trkpt lat="43.203903" lon="-3.315025">
        <ele>455.0</ele>
        <time>2012-04-13T03:26:33Z</time>
      </trkpt>
      <trkpt lat="43.203970" lon="-3.315178">
        <ele>453.0</ele>
        <time>2012-04-13T03:27:13Z</time>
      </trkpt>
      <trkpt lat="43.204290" lon="-3.315508">
        <ele>455.0</ele>
        <time>2012-04-13T03:27:53Z</time>
      </trkpt>
      <trkpt lat="43.204634" lon="-3.315921">
        <ele>464.0</ele>
        <time>2012-04-13T03:28:33Z</time>
      </trkpt>
      <trkpt lat="43.204740" lon="-3.316120">
        <ele>465.0</ele>
        <time>2012-04-13T03:29:13Z</time>
      </trkpt>
      <trkpt lat="43.204804" lon="-3.316278">
        <ele>466.0</ele>
        <time>2012-04-13T03:29:53Z</time>
      </trkpt>
      <trkpt lat="43.204847" lon="-3.316412">
        <ele>466.0</ele>
        <time>2012-04-13T03:30:33Z</time>
      </trkpt>
      <trkpt lat="43.204886" lon="-3.316627">
        <ele>475.0</ele>
        <time>2012-04-13T03:31:13Z</time>
      </trkpt>
      <trkpt lat="43.204885" lon="-3.316720">
        <ele>475.0</ele>
        <time>2012-04-13T03:31:53Z</time>
      </trkpt>
      <trkpt lat="43.204857" lon="-3.316836">
        <ele>474.0</ele>
        <time>2012-04-13T03:32:33Z</time>
      </trkpt>
      <trkpt lat="43.204820" lon="-3.316881">
        <ele>474.0</ele>
        <time>2012-04-13T03:33:13Z</time>
      </trkpt>
      <trkpt lat="43.204728" lon="-3.317056">
        <ele>474.0</ele>
        <time>2012-04-13T03:33:53Z</time>
      </trkpt>
      <trkpt lat="43.204583" lon="-3.317203">
        <ele>478.0</ele>
        <time>2012-04-13T03:34:33Z</time>
      </trkpt>
      <trkpt lat="43.204241" lon="-3.317624">
        <ele>474.0</ele>
        <time>2012-04-13T03:35:13Z</time>
      </trkpt>
      <trkpt lat="43.204128" lon="-3.317777">
        <ele>476.0</ele>
        <time>2012-04-13T03:35:53Z</time>
      </trkpt>
      <trkpt lat="43.204067" lon="-3.317874">
        <ele>476.0</ele>
        <time>2012-04-13T03:36:33Z</time>
      </trkpt>
      <trkpt lat="43.204059" lon="-3.317989">
        <ele>476.0</ele>
        <time>2012-04-13T03:37:13Z</time>
      </trkpt>
      <trkpt lat="43.204091" lon="-3.318083">
        <ele>476.0</ele>
        <time>2012-04-13T03:37:53Z</time>
      </trkpt>
      <trkpt lat="43.204190" lon="-3.318115">
        <ele>476.0</ele>
        <time>2012-04-13T03:38:33Z</time>
      </trkpt>
      <trkpt lat="43.204255" lon="-3.318067">
        <ele>476.0</ele>
        <time>2012-04-13T03:39:13Z</time>
      </trkpt>
      <trkpt lat="43.204406" lon="-3.317949">
        <ele>483.0</ele>
        <time>2012-04-13T03:39:53Z</time>
      </trkpt>
      <trkpt lat="43.204550" lon="-3.317903">
        <ele>481.0</ele>
        <time>2012-04-13T03:40:33Z</time>
      </trkpt>
      <trkpt lat="43.204765" lon="-3.317871">
        <ele>485.0</ele>
        <time>2012-04-13T03:41:13Z</time>
      </trkpt>
      <trkpt lat="43.205111" lon="-3.317895">
        <ele>488.0</ele>
        <time>2012-04-13T03:41:53Z</time>
      </trkpt>
      <trkpt lat="43.205268" lon="-3.317989">
        <ele>494.0</ele>
        <time>2012-04-13T03:42:33Z</time>
      </trkpt>
      <trkpt lat="43.205297" lon="-3.318067">
        <ele>494.0</ele>
        <time>2012-04-13T03:43:13Z</time>
      </trkpt>
      <trkpt lat="43.205309" lon="-3.318147">
        <ele>494.0</ele>
        <time>2012-04-13T03:43:53Z</time>
      </trkpt>
      <trkpt lat="43.205291" lon="-3.318214">
        <ele>494.0</ele>
        <time>2012-04-13T03:44:33Z</time>
      </trkpt>
      <trkpt lat="43.205281" lon="-3.318373">
        <ele>494.0</ele>
        <time>2012-04-13T03:45:13Z</time>
      </trkpt>
      <trkpt lat="43.205258" lon="-3.318507">
        <ele>492.0</ele>
        <time>2012-04-13T03:45:53Z</time>
      </trkpt>
      <trkpt lat="43.205262" lon="-3.318577">
        <ele>492.0</ele>
        <time>2012-04-13T03:46:33Z</time>
      </trkpt>
      <trkpt lat="43.205258" lon="-3.318678">
        <ele>492.0</ele>
        <time>2012-04-13T03:47:13Z</time>
      </trkpt>
      <trkpt lat="43.205266" lon="-3.318754">
        <ele>488.0</ele>
        <time>2012-04-13T03:47:53Z</time>
      </trkpt>
      <trkpt lat="43.205303" lon="-3.318834">
        <ele>488.0</ele>
        <time>2012-04-13T03:48:33Z</time>
      </trkpt>
      <trkpt lat="43.205365" lon="-3.318872">
        <ele>488.0</ele>
        <time>2012-04-13T03:49:13Z</time>
      </trkpt>
      <trkpt lat="43.205491" lon="-3.318920">
        <ele>494.0</ele>
        <time>2012-04-13T03:49:53Z</time>
      </trkpt>
      <trkpt lat="43.205610" lon="-3.319030">
        <ele>489.0</ele>
        <time>2012-04-13T03:50:33Z</time>
      </trkpt>
      <trkpt lat="43.205739" lon="-3.319041">
        <ele>495.0</ele>
        <time>2012-04-13T03:51:13Z</time>
      </trkpt>
      <trkpt lat="43.205872" lon="-3.319081">
        <ele>495.0</ele>
        <time>2012-04-13T03:51:53Z</time>
      </trkpt>
      <trkpt lat="43.206013" lon="-3.319333">
        <ele>497.0</ele>
        <time>2012-04-13T03:52:33Z</time>
      </trkpt>
      <trkpt lat="43.206073" lon="-3.319424">
        <ele>497.0</ele>
        <time>2012-04-13T03:53:13Z</time>
      </trkpt>
      <trkpt lat="43.206179" lon="-3.319454">
        <ele>497.0</ele>
        <time>2012-04-13T03:53:53Z</time>
      </trkpt>
      <trkpt lat="43.206388" lon="-3.319429">
        <ele>505.0</ele>
        <time>2012-04-13T03:54:33Z</time>
      </trkpt>
      <trkpt lat="43.206714" lon="-3.319287">
        <ele>518.0</ele>
        <time>2012-04-13T03:55:13Z</time>
      </trkpt>
      <trkpt lat="43.206894" lon="-3.319172">
        <ele>526.0</ele>
        <time>2012-04-13T03:55:53Z</time>
      </trkpt>
      <trkpt lat="43.207006" lon="-3.319043">
        <ele>526.0</ele>
        <time>2012-04-13T03:56:33Z</time>
      </trkpt>
      <trkpt lat="43.207156" lon="-3.318807">
        <ele>534.0</ele>
        <time>2012-04-13T03:57:13Z</time>
      </trkpt>
      <trkpt lat="43.207236" lon="-3.318622">
        <ele>533.0</ele>
        <time>2012-04-13T03:57:53Z</time>
      </trkpt>
      <trkpt lat="43.207303" lon="-3.318480">
        <ele>533.0</ele>
        <time>2012-04-13T03:58:33Z</time>
      </trkpt>
      <trkpt lat="43.207346" lon="-3.318399">
        <ele>531.0</ele>
        <time>2012-04-13T03:59:13Z</time>
      </trkpt>
      <trkpt lat="43.207602" lon="-3.318477">
        <ele>538.0</ele>
        <time>2012-04-13T03:59:53Z</time>
      </trkpt>
      <trkpt lat="43.207946" lon="-3.318475">
        <ele>545.0</ele>
        <time>2012-04-13T04:00:33Z</time>
      </trkpt>
      <trkpt lat="43.208009" lon="-3.318442">
        <ele>545.0</ele>
        <time>2012-04-13T04:01:13Z</time>
      </trkpt>
      <trkpt lat="43.208036" lon="-3.318332">
        <ele>545.0</ele>
        <time>2012-04-13T04:01:53Z</time>
      </trkpt>
      <trkpt lat="43.208063" lon="-3.318206">
        <ele>545.0</ele>
        <time>2012-04-13T04:02:33Z</time>
      </trkpt>
      <trkpt lat="43.208056" lon="-3.318134">
        <ele>545.0</ele>
        <time>2012-04-13T04:03:13Z</time>
      </trkpt>
      <trkpt lat="43.208044" lon="-3.318062">
        <ele>545.0</ele>
        <time>2012-04-13T04:03:53Z</time>
      </trkpt>
      <trkpt lat="43.208059" lon="-3.317986">
        <ele>545.0</ele>
        <time>2012-04-13T04:04:33Z</time>
      </trkpt>
      <trkpt lat="43.208081" lon="-3.317930">
        <ele>545.0</ele>
        <time>2012-04-13T04:05:13Z</time>
      </trkpt>
      <trkpt lat="43.208108" lon="-3.317855">
        <ele>547.0</ele>
        <time>2012-04-13T04:05:53Z</time>
      </trkpt>
      <trkpt lat="43.208126" lon="-3.317820">
        <ele>547.0</ele>
        <time>2012-04-13T04:06:33Z</time>
      </trkpt>
      <trkpt lat="43.208157" lon="-3.317761">
        <ele>547.0</ele>
        <time>2012-04-13T04:07:13Z</time>
      </trkpt>
      <trkpt lat="43.208161" lon="-3.317686">
        <ele>547.0</ele>
        <time>2012-04-13T04:07:53Z</time>
      </trkpt>
      <trkpt lat="43.208149" lon="-3.317616">
        <ele>548.0</ele>
        <time>2012-04-13T04:08:33Z</time>
      </trkpt>
      <trkpt lat="43.208136" lon="-3.317488">
        <ele>548.0</ele>
        <time>2012-04-13T04:09:13Z</time>
      </trkpt>
      <trkpt lat="43.208120" lon="-3.317383">
        <ele>548.0</ele>
        <time>2012-04-13T04:09:53Z</time>
      </trkpt>
      <trkpt lat="43.208103" lon="-3.317249">
        <ele>551.0</ele>
        <time>2012-04-13T04:10:33Z</time>
      </trkpt>
      <trkpt lat="43.208063" lon="-3.317136">
        <ele>551.0</ele>
        <time>2012-04-13T04:11:13Z</time>
      </trkpt>
      <trkpt lat="43.208022" lon="-3.316863">
        <ele>553.0</ele>
        <time>2012-04-13T04:11:53Z</time>
      </trkpt>
      <trkpt lat="43.207999" lon="-3.316726">
        <ele>556.0</ele>
        <time>2012-04-13T04:12:33Z</time>
      </trkpt>
      <trkpt lat="43.207985" lon="-3.316581">
        <ele>556.0</ele>
        <time>2012-04-13T04:13:13Z</time>
      </trkpt>
      <trkpt lat="43.207983" lon="-3.316436">
        <ele>559.0</ele>
        <time>2012-04-13T04:13:53Z</time>
      </trkpt>
      <trkpt lat="43.207987" lon="-3.316302">
        <ele>559.0</ele>
        <time>2012-04-13T04:14:33Z</time>
      </trkpt>
      <trkpt lat="43.207987" lon="-3.316181">
        <ele>563.0</ele>
        <time>2012-04-13T04:15:13Z</time>
      </trkpt>
      <trkpt lat="43.207999" lon="-3.316047">
        <ele>563.0</ele>
        <time>2012-04-13T04:15:53Z</time>
      </trkpt>
      <trkpt lat="43.208044" lon="-3.315991">
        <ele>563.0</ele>
        <time>2012-04-13T04:16:33Z</time>
      </trkpt>
      <trkpt lat="43.208206" lon="-3.316128">
        <ele>567.0</ele>
        <time>2012-04-13T04:17:13Z</time>
      </trkpt>
      <trkpt lat="43.208468" lon="-3.316436">
        <ele>564.0</ele>
        <time>2012-04-13T04:17:53Z</time>
      </trkpt>
      <trkpt lat="43.208525" lon="-3.316527">
        <ele>564.0</ele>
        <time>2012-04-13T04:18:33Z</time>
      </trkpt>
      <trkpt lat="43.208617" lon="-3.316551">
        <ele>561.0</ele>
        <time>2012-04-13T04:19:13Z</time>
      </trkpt>
      <trkpt lat="43.208689" lon="-3.316498">
        <ele>564.0</ele>
        <time>2012-04-13T04:19:53Z</time>
      </trkpt>
      <trkpt lat="43.208841" lon="-3.316248">
        <ele>564.0</ele>
        <time>2012-04-13T04:20:33Z</time>
      </trkpt>
      <trkpt lat="43.209002" lon="-3.315926">
        <ele>568.0</ele>
        <time>2012-04-13T04:21:13Z</time>
      </trkpt>
      <trkpt lat="43.209096" lon="-3.315728">
        <ele>559.0</ele>
        <time>2012-04-13T04:21:53Z</time>
      </trkpt>
      <trkpt lat="43.209297" lon="-3.315074">
        <ele>571.0</ele>
        <time>2012-04-13T04:22:33Z</time>
      </trkpt>
      <trkpt lat="43.209428" lon="-3.314687">
        <ele>560.0</ele>
        <time>2012-04-13T04:23:13Z</time>
      </trkpt>
      <trkpt lat="43.209674" lon="-3.313958">
        <ele>551.0</ele>
        <time>2012-04-13T04:23:53Z</time>
      </trkpt>
      <trkpt lat="43.209870" lon="-3.313464">
        <ele>541.0</ele>
        <time>2012-04-13T04:24:33Z</time>
      </trkpt>
      <trkpt lat="43.210018" lon="-3.312949">
        <ele>545.0</ele>
        <time>2012-04-13T04:25:13Z</time>
      </trkpt>
      <trkpt lat="43.210120" lon="-3.312593">
        <ele>549.0</ele>
        <time>2012-04-13T04:25:53Z</time>
      </trkpt>
      <trkpt lat="43.210192" lon="-3.312343">
        <ele>536.0</ele>
        <time>2012-04-13T04:26:33Z</time>
      </trkpt>
      <trkpt lat="43.210267" lon="-3.311968">
        <ele>538.0</ele>
        <time>2012-04-13T04:27:13Z</time>
      </trkpt>
      <trkpt lat="43.210300" lon="-3.311758">
        <ele>539.0</ele>
        <time>2012-04-13T04:27:53Z</time>
      </trkpt>
      <trkpt lat="43.210296" lon="-3.311533">
        <ele>539.0</ele>
        <time>2012-04-13T04:28:33Z</time>
      </trkpt>
      <trkpt lat="43.210286" lon="-3.311332">
        <ele>539.0</ele>
        <time>2012-04-13T04:29:13Z</time>
      </trkpt>
      <trkpt lat="43.210271" lon="-3.311147">
        <ele>539.0</ele>
        <time>2012-04-13T04:29:53Z</time>
      </trkpt>
      <trkpt lat="43.210265" lon="-3.310905">
        <ele>538.0</ele>
        <time>2012-04-13T04:30:33Z</time>
      </trkpt>
      <trkpt lat="43.210245" lon="-3.310710">
        <ele>538.0</ele>
        <time>2012-04-13T04:31:13Z</time>
      </trkpt>
      <trkpt lat="43.210218" lon="-3.310543">
        <ele>537.0</ele>
        <time>2012-04-13T04:31:53Z</time>
      </trkpt>
      <trkpt lat="43.210167" lon="-3.310372">
        <ele>537.0</ele>
        <time>2012-04-13T04:32:33Z</time>
      </trkpt>
      <trkpt lat="43.210102" lon="-3.310264">
        <ele>544.0</ele>
        <time>2012-04-13T04:33:13Z</time>
      </trkpt>
      <trkpt lat="43.210042" lon="-3.310146">
        <ele>544.0</ele>
        <time>2012-04-13T04:33:53Z</time>
      </trkpt>
      <trkpt lat="43.209938" lon="-3.309988">
        <ele>542.0</ele>
        <time>2012-04-13T04:34:33Z</time>
      </trkpt>
      <trkpt lat="43.209915" lon="-3.309867">
        <ele>542.0</ele>
        <time>2012-04-13T04:35:13Z</time>
      </trkpt>
      <trkpt lat="43.209895" lon="-3.309800">
        <ele>539.0</ele>
        <time>2012-04-13T04:35:53Z</time>
      </trkpt>
      <trkpt lat="43.209913" lon="-3.309650">
        <ele>539.0</ele>
        <time>2012-04-13T04:36:33Z</time>
      </trkpt>
      <trkpt lat="43.209913" lon="-3.309540">
        <ele>536.0</ele>
        <time>2012-04-13T04:37:13Z</time>
      </trkpt>
      <trkpt lat="43.209891" lon="-3.309457">
        <ele>536.0</ele>
        <time>2012-04-13T04:37:53Z</time>
      </trkpt>
      <trkpt lat="43.209868" lon="-3.309336">
        <ele>536.0</ele>
        <time>2012-04-13T04:38:33Z</time>
      </trkpt>
      <trkpt lat="43.209852" lon="-3.309221">
        <ele>535.0</ele>
        <time>2012-04-13T04:39:13Z</time>
      </trkpt>
      <trkpt lat="43.209848" lon="-3.309049">
        <ele>535.0</ele>
        <time>2012-04-13T04:39:53Z</time>
      </trkpt>
      <trkpt lat="43.209846" lon="-3.308880">
        <ele>532.0</ele>
        <time>2012-04-13T04:40:33Z</time>
      </trkpt>
      <trkpt lat="43.209848" lon="-3.308752">
        <ele>532.0</ele>
        <time>2012-04-13T04:41:13Z</time>
      </trkpt>
      <trkpt lat="43.209897" lon="-3.308599">
        <ele>526.0</ele>
        <time>2012-04-13T04:41:53Z</time>
      </trkpt>
      <trkpt lat="43.210005" lon="-3.308478">
        <ele>526.0</ele>
        <time>2012-04-13T04:42:33Z</time>
      </trkpt>
      <trkpt lat="43.210048" lon="-3.308411">
        <ele>522.0</ele>
        <time>2012-04-13T04:43:13Z</time>
      </trkpt>
      <trkpt lat="43.210003" lon="-3.308325">
        <ele>522.0</ele>
        <time>2012-04-13T04:43:53Z</time>
      </trkpt>
      <trkpt lat="43.209858" lon="-3.308164">
        <ele>525.0</ele>
        <time>2012-04-13T04:44:33Z</time>
      </trkpt>
      <trkpt lat="43.209743" lon="-3.307966">
        <ele>525.0</ele>
        <time>2012-04-13T04:45:13Z</time>
      </trkpt>
      <trkpt lat="43.209635" lon="-3.307759">
        <ele>523.0</ele>
        <time>2012-04-13T04:45:53Z</time>
      </trkpt>
      <trkpt lat="43.209596" lon="-3.307609">
        <ele>520.0</ele>
        <time>2012-04-13T04:46:33Z</time>
      </trkpt>
      <trkpt lat="43.209588" lon="-3.307472">
        <ele>520.0</ele>
        <time>2012-04-13T04:47:13Z</time>
      </trkpt>
      <trkpt lat="43.209594" lon="-3.307295">
        <ele>519.0</ele>
        <time>2012-04-13T04:47:53Z</time>
      </trkpt>
      <trkpt lat="43.209590" lon="-3.307118">
        <ele>519.0</ele>
        <time>2012-04-13T04:48:33Z</time>
      </trkpt>
      <trkpt lat="43.209571" lon="-3.306928">
        <ele>527.0</ele>
        <time>2012-04-13T04:49:13Z</time>
      </trkpt>
      <trkpt lat="43.209616" lon="-3.306614">
        <ele>516.0</ele>
        <time>2012-04-13T04:49:53Z</time>
      </trkpt>
      <trkpt lat="43.209674" lon="-3.306279">
        <ele>515.0</ele>
        <time>2012-04-13T04:50:33Z</time>
      </trkpt>
      <trkpt lat="43.209715" lon="-3.306005">
        <ele>514.0</ele>
        <time>2012-04-13T04:51:13Z</time>
      </trkpt>
      <trkpt lat="43.209735" lon="-3.305731">
        <ele>513.0</ele>
        <time>2012-04-13T04:51:53Z</time>
      </trkpt>
      <trkpt lat="43.209760" lon="-3.305487">
        <ele>512.0</ele>
        <time>2012-04-13T04:52:33Z</time>
      </trkpt>
      <trkpt lat="43.209860" lon="-3.305096">
        <ele>508.0</ele>
        <time>2012-04-13T04:53:13Z</time>
      </trkpt>
      <trkpt lat="43.209911" lon="-3.304900">
        <ele>493.0</ele>
        <time>2012-04-13T04:53:53Z</time>
      </trkpt>
      <trkpt lat="43.209948" lon="-3.304712">
        <ele>490.0</ele>
        <time>2012-04-13T04:54:33Z</time>
      </trkpt>
      <trkpt lat="43.209946" lon="-3.304406">
        <ele>487.0</ele>
        <time>2012-04-13T04:55:13Z</time>
      </trkpt>
      <trkpt lat="43.209782" lon="-3.303623">
        <ele>492.0</ele>
        <time>2012-04-13T04:55:53Z</time>
      </trkpt>
      <trkpt lat="43.209782" lon="-3.303441">
        <ele>491.0</ele>
        <time>2012-04-13T04:56:33Z</time>
      </trkpt>
      <trkpt lat="43.209782" lon="-3.303119">
        <ele>491.0</ele>
        <time>2012-04-13T04:57:13Z</time>
      </trkpt>
      <trkpt lat="43.209782" lon="-3.302819">
        <ele>492.0</ele>
        <time>2012-04-13T04:57:53Z</time>
      </trkpt>
      <trkpt lat="43.209719" lon="-3.302583">
        <ele>497.0</ele>
        <time>2012-04-13T04:58:33Z</time>
      </trkpt>
      <trkpt lat="43.209461" lon="-3.302164">
        <ele>516.0</ele>
        <time>2012-04-13T04:59:13Z</time>
      </trkpt>
      <trkpt lat="43.209422" lon="-3.301799">
        <ele>527.0</ele>
        <time>2012-04-13T04:59:53Z</time>
      </trkpt>
      <trkpt lat="43.209704" lon="-3.301864">
        <ele>509.0</ele>
        <time>2012-04-13T05:00:33Z</time>
      </trkpt>
      <trkpt lat="43.210423" lon="-3.301950">
        <ele>489.0</ele>
        <time>2012-04-13T05:01:13Z</time>
      </trkpt>
      <trkpt lat="43.210939" lon="-3.301992">
        <ele>483.0</ele>
        <time>2012-04-13T05:01:53Z</time>
      </trkpt>
      <trkpt lat="43.211283" lon="-3.301821">
        <ele>473.0</ele>
        <time>2012-04-13T05:02:33Z</time>
      </trkpt>
      <trkpt lat="43.211596" lon="-3.301359">
        <ele>491.0</ele>
        <time>2012-04-13T05:03:13Z</time>
      </trkpt>
      <trkpt lat="43.211963" lon="-3.300769">
        <ele>503.0</ele>
        <time>2012-04-13T05:03:53Z</time>
      </trkpt>
      <trkpt lat="43.212229" lon="-3.300405">
        <ele>513.0</ele>
        <time>2012-04-13T05:04:33Z</time>
      </trkpt>
      <trkpt lat="43.212503" lon="-3.300083">
        <ele>511.0</ele>
        <time>2012-04-13T05:05:13Z</time>
      </trkpt>
      <trkpt lat="43.212941" lon="-3.300115">
        <ele>503.0</ele>
        <time>2012-04-13T05:05:53Z</time>
      </trkpt>
      <trkpt lat="43.213692" lon="-3.300211">
        <ele>491.0</ele>
        <time>2012-04-13T05:06:33Z</time>
      </trkpt>
      <trkpt lat="43.214122" lon="-3.300169">
        <ele>492.0</ele>
        <time>2012-04-13T05:07:13Z</time>
      </trkpt>
      <trkpt lat="43.214481" lon="-3.300287">
        <ele>495.0</ele>
        <time>2012-04-13T05:07:53Z</time>
      </trkpt>
      <trkpt lat="43.214786" lon="-3.300630">
        <ele>494.0</ele>
        <time>2012-04-13T05:08:33Z</time>
      </trkpt>
      <trkpt lat="43.215044" lon="-3.300898">
        <ele>491.0</ele>
        <time>2012-04-13T05:09:13Z</time>
      </trkpt>
      <trkpt lat="43.215482" lon="-3.301027">
        <ele>479.0</ele>
        <time>2012-04-13T05:09:53Z</time>
      </trkpt>
      <trkpt lat="43.215865" lon="-3.301016">
        <ele>472.0</ele>
        <time>2012-04-13T05:10:33Z</time>
      </trkpt>
      <trkpt lat="43.216342" lon="-3.300694">
        <ele>477.0</ele>
        <time>2012-04-13T05:11:13Z</time>
      </trkpt>
      <trkpt lat="43.216514" lon="-3.300362">
        <ele>487.0</ele>
        <time>2012-04-13T05:11:53Z</time>
      </trkpt>
      <trkpt lat="43.216663" lon="-3.300018">
        <ele>489.0</ele>
        <time>2012-04-13T05:12:33Z</time>
      </trkpt>
      <trkpt lat="43.216983" lon="-3.299986">
        <ele>480.0</ele>
        <time>2012-04-13T05:13:13Z</time>
      </trkpt>
      <trkpt lat="43.217398" lon="-3.300126">
        <ele>469.0</ele>
        <time>2012-04-13T05:13:53Z</time>
      </trkpt>
      <trkpt lat="43.217535" lon="-3.300101">
        <ele>469.0</ele>
        <time>2012-04-13T05:14:33Z</time>
      </trkpt>
      <trkpt lat="43.217748" lon="-3.299946">
        <ele>467.0</ele>
        <time>2012-04-13T05:15:13Z</time>
      </trkpt>
      <trkpt lat="43.217843" lon="-3.299857">
        <ele>471.0</ele>
        <time>2012-04-13T05:15:53Z</time>
      </trkpt>
      <trkpt lat="43.217900" lon="-3.299734">
        <ele>471.0</ele>
        <time>2012-04-13T05:16:33Z</time>
      </trkpt>
      <trkpt lat="43.217976" lon="-3.299549">
        <ele>475.0</ele>
        <time>2012-04-13T05:17:13Z</time>
      </trkpt>
      <trkpt lat="43.218094" lon="-3.299450">
        <ele>475.0</ele>
        <time>2012-04-13T05:17:53Z</time>
      </trkpt>
      <trkpt lat="43.218223" lon="-3.299412">
        <ele>477.0</ele>
        <time>2012-04-13T05:18:33Z</time>
      </trkpt>
      <trkpt lat="43.218467" lon="-3.299404">
        <ele>477.0</ele>
        <time>2012-04-13T05:19:13Z</time>
      </trkpt>
      <trkpt lat="43.218778" lon="-3.299468">
        <ele>486.0</ele>
        <time>2012-04-13T05:19:53Z</time>
      </trkpt>
      <trkpt lat="43.218973" lon="-3.299527">
        <ele>486.0</ele>
        <time>2012-04-13T05:20:33Z</time>
      </trkpt>
      <trkpt lat="43.219133" lon="-3.299643">
        <ele>484.0</ele>
        <time>2012-04-13T05:21:13Z</time>
      </trkpt>
      <trkpt lat="43.219399" lon="-3.299817">
        <ele>483.0</ele>
        <time>2012-04-13T05:21:53Z</time>
      </trkpt>
      <trkpt lat="43.219581" lon="-3.299852">
        <ele>483.0</ele>
        <time>2012-04-13T05:22:33Z</time>
      </trkpt>
      <trkpt lat="43.219718" lon="-3.299967">
        <ele>479.0</ele>
        <time>2012-04-13T05:23:13Z</time>
      </trkpt>
      <trkpt lat="43.219812" lon="-3.300193">
        <ele>476.0</ele>
        <time>2012-04-13T05:23:53Z</time>
      </trkpt>
      <trkpt lat="43.219898" lon="-3.300321">
        <ele>479.0</ele>
        <time>2012-04-13T05:24:33Z</time>
      </trkpt>
      <trkpt lat="43.220025" lon="-3.300426">
        <ele>476.0</ele>
        <time>2012-04-13T05:25:13Z</time>
      </trkpt>
      <trkpt lat="43.220228" lon="-3.300506">
        <ele>480.0</ele>
        <time>2012-04-13T05:25:53Z</time>
      </trkpt>
      <trkpt lat="43.220453" lon="-3.300482">
        <ele>486.0</ele>
        <time>2012-04-13T05:26:33Z</time>
      </trkpt>
      <trkpt lat="43.220619" lon="-3.300426">
        <ele>486.0</ele>
        <time>2012-04-13T05:27:13Z</time>
      </trkpt>
      <trkpt lat="43.220809" lon="-3.300321">
        <ele>496.0</ele>
        <time>2012-04-13T05:27:53Z</time>
      </trkpt>
      <trkpt lat="43.221008" lon="-3.300160">
        <ele>498.0</ele>
        <time>2012-04-13T05:28:33Z</time>
      </trkpt>
      <trkpt lat="43.221137" lon="-3.300075">
        <ele>506.0</ele>
        <time>2012-04-13T05:29:13Z</time>
      </trkpt>
      <trkpt lat="43.221395" lon="-3.300008">
        <ele>505.0</ele>
        <time>2012-04-13T05:29:53Z</time>
      </trkpt>
      <trkpt lat="43.221561" lon="-3.299973">
        <ele>502.0</ele>
        <time>2012-04-13T05:30:33Z</time>
      </trkpt>
      <trkpt lat="43.221731" lon="-3.299879">
        <ele>502.0</ele>
        <time>2012-04-13T05:31:13Z</time>
      </trkpt>
      <trkpt lat="43.221946" lon="-3.299680">
        <ele>507.0</ele>
        <time>2012-04-13T05:31:53Z</time>
      </trkpt>
      <trkpt lat="43.222171" lon="-3.299527">
        <ele>510.0</ele>
        <time>2012-04-13T05:32:33Z</time>
      </trkpt>
      <trkpt lat="43.222384" lon="-3.299278">
        <ele>511.0</ele>
        <time>2012-04-13T05:33:13Z</time>
      </trkpt>
      <trkpt lat="43.222515" lon="-3.299117">
        <ele>511.0</ele>
        <time>2012-04-13T05:33:53Z</time>
      </trkpt>
      <trkpt lat="43.222652" lon="-3.298924">
        <ele>516.0</ele>
        <time>2012-04-13T05:34:33Z</time>
      </trkpt>
      <trkpt lat="43.222847" lon="-3.298728">
        <ele>527.0</ele>
        <time>2012-04-13T05:35:13Z</time>
      </trkpt>
      <trkpt lat="43.222992" lon="-3.298664">
        <ele>521.0</ele>
        <time>2012-04-13T05:35:53Z</time>
      </trkpt>
      <trkpt lat="43.223121" lon="-3.298562">
        <ele>521.0</ele>
        <time>2012-04-13T05:36:33Z</time>
      </trkpt>
      <trkpt lat="43.223189" lon="-3.298436">
        <ele>530.0</ele>
        <time>2012-04-13T05:37:13Z</time>
      </trkpt>
      <trkpt lat="43.223322" lon="-3.298184">
        <ele>529.0</ele>
        <time>2012-04-13T05:37:53Z</time>
      </trkpt>
      <trkpt lat="43.223477" lon="-3.297996">
        <ele>520.0</ele>
        <time>2012-04-13T05:38:33Z</time>
      </trkpt>
      <trkpt lat="43.223658" lon="-3.297797">
        <ele>527.0</ele>
        <time>2012-04-13T05:39:13Z</time>
      </trkpt>
      <trkpt lat="43.223801" lon="-3.297663">
        <ele>519.0</ele>
        <time>2012-04-13T05:39:53Z</time>
      </trkpt>
      <trkpt lat="43.223907" lon="-3.297628">
        <ele>524.0</ele>
        <time>2012-04-13T05:40:33Z</time>
      </trkpt>
      <trkpt lat="43.224051" lon="-3.297580">
        <ele>518.0</ele>
        <time>2012-04-13T05:41:13Z</time>
      </trkpt>
      <trkpt lat="43.224163" lon="-3.297524">
        <ele>518.0</ele>
        <time>2012-04-13T05:41:53Z</time>
      </trkpt>
      <trkpt lat="43.224317" lon="-3.297403">
        <ele>514.0</ele>
        <time>2012-04-13T05:42:33Z</time>
      </trkpt>
      <trkpt lat="43.224424" lon="-3.297328">
        <ele>519.0</ele>
        <time>2012-04-13T05:43:13Z</time>
      </trkpt>
      <trkpt lat="43.224510" lon="-3.297285">
        <ele>519.0</ele>
        <time>2012-04-13T05:43:53Z</time>
      </trkpt>
      <trkpt lat="43.224634" lon="-3.297266">
        <ele>517.0</ele>
        <time>2012-04-13T05:44:33Z</time>
      </trkpt>
      <trkpt lat="43.224976" lon="-3.297395">
        <ele>508.0</ele>
        <time>2012-04-13T05:45:13Z</time>
      </trkpt>
      <trkpt lat="43.225316" lon="-3.297521">
        <ele>504.0</ele>
        <time>2012-04-13T05:45:53Z</time>
      </trkpt>
      <trkpt lat="43.225564" lon="-3.297567">
        <ele>501.0</ele>
        <time>2012-04-13T05:46:33Z</time>
      </trkpt>
      <trkpt lat="43.225793" lon="-3.297586">
        <ele>500.0</ele>
        <time>2012-04-13T05:47:13Z</time>
      </trkpt>
      <trkpt lat="43.225908" lon="-3.297564">
        <ele>500.0</ele>
        <time>2012-04-13T05:47:53Z</time>
      </trkpt>
      <trkpt lat="43.226047" lon="-3.297492">
        <ele>498.0</ele>
        <time>2012-04-13T05:48:33Z</time>
      </trkpt>
      <trkpt lat="43.226195" lon="-3.297379">
        <ele>498.0</ele>
        <time>2012-04-13T05:49:13Z</time>
      </trkpt>
      <trkpt lat="43.226322" lon="-3.297312">
        <ele>502.0</ele>
        <time>2012-04-13T05:49:53Z</time>
      </trkpt>
      <trkpt lat="43.226455" lon="-3.297320">
        <ele>502.0</ele>
        <time>2012-04-13T05:50:33Z</time>
      </trkpt>
      <trkpt lat="43.226793" lon="-3.297446">
        <ele>496.0</ele>
        <time>2012-04-13T05:51:13Z</time>
      </trkpt>
      <trkpt lat="43.227030" lon="-3.297494">
        <ele>498.0</ele>
        <time>2012-04-13T05:51:53Z</time>
      </trkpt>
      <trkpt lat="43.227317" lon="-3.297484">
        <ele>501.0</ele>
        <time>2012-04-13T05:52:33Z</time>
      </trkpt>
      <trkpt lat="43.227669" lon="-3.297462">
        <ele>508.0</ele>
        <time>2012-04-13T05:53:13Z</time>
      </trkpt>
      <trkpt lat="43.227919" lon="-3.297518">
        <ele>510.0</ele>
        <time>2012-04-13T05:53:53Z</time>
      </trkpt>
      <trkpt lat="43.228212" lon="-3.297677">
        <ele>503.0</ele>
        <time>2012-04-13T05:54:33Z</time>
      </trkpt>
      <trkpt lat="43.228408" lon="-3.297795">
        <ele>503.0</ele>
        <time>2012-04-13T05:55:13Z</time>
      </trkpt>
      <trkpt lat="43.228550" lon="-3.297843">
        <ele>502.0</ele>
        <time>2012-04-13T05:55:53Z</time>
      </trkpt>
      <trkpt lat="43.228716" lon="-3.297827">
        <ele>502.0</ele>
        <time>2012-04-13T05:56:33Z</time>
      </trkpt>
      <trkpt lat="43.228904" lon="-3.297792">
        <ele>499.0</ele>
        <time>2012-04-13T05:57:13Z</time>
      </trkpt>
      <trkpt lat="43.229230" lon="-3.297784">
        <ele>497.0</ele>
        <time>2012-04-13T05:57:53Z</time>
      </trkpt>
      <trkpt lat="43.229621" lon="-3.297712">
        <ele>493.0</ele>
        <time>2012-04-13T05:58:33Z</time>
      </trkpt>
      <trkpt lat="43.229998" lon="-3.297543">
        <ele>493.0</ele>
        <time>2012-04-13T05:59:13Z</time>
      </trkpt>
      <trkpt lat="43.230288" lon="-3.297414">
        <ele>485.0</ele>
        <time>2012-04-13T05:59:53Z</time>
      </trkpt>
      <trkpt lat="43.230417" lon="-3.297352">
        <ele>488.0</ele>
        <time>2012-04-13T06:00:33Z</time>
      </trkpt>
      <trkpt lat="43.230508" lon="-3.297223">
        <ele>479.0</ele>
        <time>2012-04-13T06:01:13Z</time>
      </trkpt>
      <trkpt lat="43.230667" lon="-3.297012">
        <ele>480.0</ele>
        <time>2012-04-13T06:01:53Z</time>
      </trkpt>
      <trkpt lat="43.230819" lon="-3.296754">
        <ele>471.0</ele>
        <time>2012-04-13T06:02:33Z</time>
      </trkpt>
      <trkpt lat="43.231009" lon="-3.296539">
        <ele>462.0</ele>
        <time>2012-04-13T06:03:13Z</time>
      </trkpt>
      <trkpt lat="43.231261" lon="-3.296301">
        <ele>454.0</ele>
        <time>2012-04-13T06:03:53Z</time>
      </trkpt>
      <trkpt lat="43.231517" lon="-3.296041">
        <ele>455.0</ele>
        <time>2012-04-13T06:04:33Z</time>
      </trkpt>
      <trkpt lat="43.231786" lon="-3.295799">
        <ele>447.0</ele>
        <time>2012-04-13T06:05:13Z</time>
      </trkpt>
      <trkpt lat="43.232007" lon="-3.295560">
        <ele>441.0</ele>
        <time>2012-04-13T06:05:53Z</time>
      </trkpt>
      <trkpt lat="43.232449" lon="-3.295088">
        <ele>434.0</ele>
        <time>2012-04-13T06:06:33Z</time>
      </trkpt>
      <trkpt lat="43.232644" lon="-3.294976">
        <ele>432.0</ele>
        <time>2012-04-13T06:07:13Z</time>
      </trkpt>
      <trkpt lat="43.233037" lon="-3.295080">
        <ele>431.0</ele>
        <time>2012-04-13T06:07:53Z</time>
      </trkpt>
      <trkpt lat="43.233387" lon="-3.295139">
        <ele>426.0</ele>
        <time>2012-04-13T06:08:33Z</time>
      </trkpt>
      <trkpt lat="43.233743" lon="-3.295134">
        <ele>433.0</ele>
        <time>2012-04-13T06:09:13Z</time>
      </trkpt>
      <trkpt lat="43.234118" lon="-3.295129">
        <ele>436.0</ele>
        <time>2012-04-13T06:09:53Z</time>
      </trkpt>
      <trkpt lat="43.234290" lon="-3.295062">
        <ele>436.0</ele>
        <time>2012-04-13T06:10:33Z</time>
      </trkpt>
      <trkpt lat="43.234405" lon="-3.294922">
        <ele>437.0</ele>
        <time>2012-04-13T06:11:13Z</time>
      </trkpt>
      <trkpt lat="43.234540" lon="-3.294740">
        <ele>440.0</ele>
        <time>2012-04-13T06:11:53Z</time>
      </trkpt>
      <trkpt lat="43.234782" lon="-3.294455">
        <ele>439.0</ele>
        <time>2012-04-13T06:12:33Z</time>
      </trkpt>
      <trkpt lat="43.235013" lon="-3.294214">
        <ele>436.0</ele>
        <time>2012-04-13T06:13:13Z</time>
      </trkpt>
      <trkpt lat="43.235259" lon="-3.294109">
        <ele>431.0</ele>
        <time>2012-04-13T06:13:53Z</time>
      </trkpt>
      <trkpt lat="43.235556" lon="-3.294053">
        <ele>426.0</ele>
        <time>2012-04-13T06:14:33Z</time>
      </trkpt>
      <trkpt lat="43.235998" lon="-3.293975">
        <ele>423.0</ele>
        <time>2012-04-13T06:15:13Z</time>
      </trkpt>
      <trkpt lat="43.236641" lon="-3.293841">
        <ele>419.0</ele>
        <time>2012-04-13T06:15:53Z</time>
      </trkpt>
      <trkpt lat="43.236969" lon="-3.293699">
        <ele>421.0</ele>
        <time>2012-04-13T06:16:33Z</time>
      </trkpt>
      <trkpt lat="43.237186" lon="-3.293592">
        <ele>420.0</ele>
        <time>2012-04-13T06:17:13Z</time>
      </trkpt>
      <trkpt lat="43.237350" lon="-3.293541">
        <ele>420.0</ele>
        <time>2012-04-13T06:17:53Z</time>
      </trkpt>
      <trkpt lat="43.237450" lon="-3.293396">
        <ele>423.0</ele>
        <time>2012-04-13T06:18:33Z</time>
      </trkpt>
      <trkpt lat="43.237493" lon="-3.293305">
        <ele>423.0</ele>
        <time>2012-04-13T06:19:13Z</time>
      </trkpt>
      <trkpt lat="43.237524" lon="-3.293208">
        <ele>423.0</ele>
        <time>2012-04-13T06:19:53Z</time>
      </trkpt>
      <trkpt lat="43.237618" lon="-3.293160">
        <ele>424.0</ele>
        <time>2012-04-13T06:20:33Z</time>
      </trkpt>
      <trkpt lat="43.237739" lon="-3.293187">
        <ele>424.0</ele>
        <time>2012-04-13T06:21:13Z</time>
      </trkpt>
      <trkpt lat="43.237835" lon="-3.293144">
        <ele>424.0</ele>
        <time>2012-04-13T06:21:53Z</time>
      </trkpt>
      <trkpt lat="43.237940" lon="-3.293066">
        <ele>422.0</ele>
        <time>2012-04-13T06:22:33Z</time>
      </trkpt>
      <trkpt lat="43.238077" lon="-3.293004">
        <ele>422.0</ele>
        <time>2012-04-13T06:23:13Z</time>
      </trkpt>
      <trkpt lat="43.238202" lon="-3.292948">
        <ele>421.0</ele>
        <time>2012-04-13T06:23:53Z</time>
      </trkpt>
      <trkpt lat="43.238389" lon="-3.292900">
        <ele>422.0</ele>
        <time>2012-04-13T06:24:33Z</time>
      </trkpt>
      <trkpt lat="43.238567" lon="-3.292868">
        <ele>422.0</ele>
        <time>2012-04-13T06:25:13Z</time>
      </trkpt>
      <trkpt lat="43.238747" lon="-3.292851">
        <ele>422.0</ele>
        <time>2012-04-13T06:25:53Z</time>
      </trkpt>
      <trkpt lat="43.238894" lon="-3.292868">
        <ele>421.0</ele>
        <time>2012-04-13T06:26:33Z</time>
      </trkpt>
      <trkpt lat="43.239042" lon="-3.292830">
        <ele>420.0</ele>
        <time>2012-04-13T06:27:13Z</time>
      </trkpt>
      <trkpt lat="43.239171" lon="-3.292809">
        <ele>420.0</ele>
        <time>2012-04-13T06:27:53Z</time>
      </trkpt>
      <trkpt lat="43.239337" lon="-3.292827">
        <ele>420.0</ele>
        <time>2012-04-13T06:28:33Z</time>
      </trkpt>
      <trkpt lat="43.239505" lon="-3.292878">
        <ele>420.0</ele>
        <time>2012-04-13T06:29:13Z</time>
      </trkpt>
      <trkpt lat="43.239632" lon="-3.292862">
        <ele>422.0</ele>
        <time>2012-04-13T06:29:53Z</time>
      </trkpt>
      <trkpt lat="43.239769" lon="-3.292817">
        <ele>422.0</ele>
        <time>2012-04-13T06:30:33Z</time>
      </trkpt>
      <trkpt lat="43.239890" lon="-3.292709">
        <ele>423.0</ele>
        <time>2012-04-13T06:31:13Z</time>
      </trkpt>
      <trkpt lat="43.240003" lon="-3.292602">
        <ele>423.0</ele>
        <time>2012-04-13T06:31:53Z</time>
      </trkpt>
      <trkpt lat="43.240097" lon="-3.292505">
        <ele>423.0</ele>
        <time>2012-04-13T06:32:33Z</time>
      </trkpt>
      <trkpt lat="43.240175" lon="-3.292412">
        <ele>422.0</ele>
        <time>2012-04-13T06:33:13Z</time>
      </trkpt>
      <trkpt lat="43.240246" lon="-3.292336">
        <ele>420.0</ele>
        <time>2012-04-13T06:33:53Z</time>
      </trkpt>
      <trkpt lat="43.240402" lon="-3.292320">
        <ele>420.0</ele>
        <time>2012-04-13T06:34:33Z</time>
      </trkpt>
      <trkpt lat="43.240492" lon="-3.292353">
        <ele>418.0</ele>
        <time>2012-04-13T06:35:13Z</time>
      </trkpt>
      <trkpt lat="43.240621" lon="-3.292446">
        <ele>418.0</ele>
        <time>2012-04-13T06:35:53Z</time>
      </trkpt>
      <trkpt lat="43.240723" lon="-3.292559">
        <ele>418.0</ele>
        <time>2012-04-13T06:36:33Z</time>
      </trkpt>
      <trkpt lat="43.240791" lon="-3.292637">
        <ele>418.0</ele>
        <time>2012-04-13T06:37:13Z</time>
      </trkpt>
      <trkpt lat="43.241023" lon="-3.292720">
        <ele>418.0</ele>
        <time>2012-04-13T06:37:53Z</time>
      </trkpt>
      <trkpt lat="43.241205" lon="-3.292854">
        <ele>418.0</ele>
        <time>2012-04-13T06:38:33Z</time>
      </trkpt>
      <trkpt lat="43.241352" lon="-3.292983">
        <ele>415.0</ele>
        <time>2012-04-13T06:39:13Z</time>
      </trkpt>
      <trkpt lat="43.241559" lon="-3.293130">
        <ele>417.0</ele>
        <time>2012-04-13T06:39:53Z</time>
      </trkpt>
      <trkpt lat="43.241711" lon="-3.293203">
        <ele>415.0</ele>
        <time>2012-04-13T06:40:33Z</time>
      </trkpt>
      <trkpt lat="43.241950" lon="-3.293195">
        <ele>420.0</ele>
        <time>2012-04-13T06:41:13Z</time>
      </trkpt>
      <trkpt lat="43.242129" lon="-3.293149">
        <ele>427.0</ele>
        <time>2012-04-13T06:41:53Z</time>
      </trkpt>
      <trkpt lat="43.242250" lon="-3.293222">
        <ele>426.0</ele>
        <time>2012-04-13T06:42:33Z</time>
      </trkpt>
      <trkpt lat="43.242426" lon="-3.293291">
        <ele>433.0</ele>
        <time>2012-04-13T06:43:13Z</time>
      </trkpt>
      <trkpt lat="43.242534" lon="-3.293334">
        <ele>433.0</ele>
        <time>2012-04-13T06:43:53Z</time>
      </trkpt>
      <trkpt lat="43.242641" lon="-3.293391">
        <ele>440.0</ele>
        <time>2012-04-13T06:44:33Z</time>
      </trkpt>
      <trkpt lat="43.242725" lon="-3.293442">
        <ele>440.0</ele>
        <time>2012-04-13T06:45:13Z</time>
      </trkpt>
      <trkpt lat="43.242790" lon="-3.293635">
        <ele>441.0</ele>
        <time>2012-04-13T06:45:53Z</time>
      </trkpt>
      <trkpt lat="43.242827" lon="-3.293798">
        <ele>442.0</ele>
        <time>2012-04-13T06:46:33Z</time>
      </trkpt>
      <trkpt lat="43.242850" lon="-3.293962">
        <ele>442.0</ele>
        <time>2012-04-13T06:47:13Z</time>
      </trkpt>
      <trkpt lat="43.242887" lon="-3.294134">
        <ele>442.0</ele>
        <time>2012-04-13T06:47:53Z</time>
      </trkpt>
      <trkpt lat="43.242884" lon="-3.294262">
        <ele>442.0</ele>
        <time>2012-04-13T06:48:33Z</time>
      </trkpt>
      <trkpt lat="43.242919" lon="-3.294509">
        <ele>451.0</ele>
        <time>2012-04-13T06:49:13Z</time>
      </trkpt>
      <trkpt lat="43.242960" lon="-3.294718">
        <ele>453.0</ele>
        <time>2012-04-13T06:49:53Z</time>
      </trkpt>
      <trkpt lat="43.243009" lon="-3.294944">
        <ele>454.0</ele>
        <time>2012-04-13T06:50:33Z</time>
      </trkpt>
      <trkpt lat="43.243046" lon="-3.295078">
        <ele>454.0</ele>
        <time>2012-04-13T06:51:13Z</time>
      </trkpt>
      <trkpt lat="43.243079" lon="-3.295247">
        <ele>455.0</ele>
        <time>2012-04-13T06:51:53Z</time>
      </trkpt>
      <trkpt lat="43.243122" lon="-3.295335">
        <ele>455.0</ele>
        <time>2012-04-13T06:52:33Z</time>
      </trkpt>
      <trkpt lat="43.243122" lon="-3.295421">
        <ele>455.0</ele>
        <time>2012-04-13T06:53:13Z</time>
      </trkpt>
      <trkpt lat="43.243118" lon="-3.295488">
        <ele>455.0</ele>
        <time>2012-04-13T06:53:53Z</time>
      </trkpt>
      <trkpt lat="43.243083" lon="-3.295542">
        <ele>455.0</ele>
        <time>2012-04-13T06:54:33Z</time>
      </trkpt>
      <trkpt lat="43.243069" lon="-3.295636">
        <ele>455.0</ele>
        <time>2012-04-13T06:55:13Z</time>
      </trkpt>
      <trkpt lat="43.243065" lon="-3.295735">
        <ele>456.0</ele>
        <time>2012-04-13T06:55:53Z</time>
      </trkpt>
      <trkpt lat="43.243065" lon="-3.295850">
        <ele>456.0</ele>
        <time>2012-04-13T06:56:33Z</time>
      </trkpt>
      <trkpt lat="43.243163" lon="-3.295984">
        <ele>457.0</ele>
        <time>2012-04-13T06:57:13Z</time>
      </trkpt>
      <trkpt lat="43.243364" lon="-3.296086">
        <ele>462.0</ele>
        <time>2012-04-13T06:57:53Z</time>
      </trkpt>
      <trkpt lat="43.243569" lon="-3.296110">
        <ele>465.0</ele>
        <time>2012-04-13T06:58:33Z</time>
      </trkpt>
      <trkpt lat="43.243819" lon="-3.296161">
        <ele>466.0</ele>
        <time>2012-04-13T06:59:13Z</time>
      </trkpt>
      <trkpt lat="43.244171" lon="-3.296338">
        <ele>467.0</ele>
        <time>2012-04-13T06:59:53Z</time>
      </trkpt>
      <trkpt lat="43.244445" lon="-3.296590">
        <ele>471.0</ele>
        <time>2012-04-13T07:00:33Z</time>
      </trkpt>
      <trkpt lat="43.244781" lon="-3.296998">
        <ele>476.0</ele>
        <time>2012-04-13T07:01:13Z</time>
      </trkpt>
      <trkpt lat="43.244976" lon="-3.296971">
        <ele>480.0</ele>
        <time>2012-04-13T07:01:53Z</time>
      </trkpt>
      <trkpt lat="43.245134" lon="-3.296936">
        <ele>480.0</ele>
        <time>2012-04-13T07:02:33Z</time>
      </trkpt>
      <trkpt lat="43.245265" lon="-3.296880">
        <ele>482.0</ele>
        <time>2012-04-13T07:03:13Z</time>
      </trkpt>
      <trkpt lat="43.245418" lon="-3.296802">
        <ele>481.0</ele>
        <time>2012-04-13T07:03:53Z</time>
      </trkpt>
      <trkpt lat="43.245650" lon="-3.296805">
        <ele>481.0</ele>
        <time>2012-04-13T07:04:33Z</time>
      </trkpt>
      <trkpt lat="43.245865" lon="-3.296856">
        <ele>482.0</ele>
        <time>2012-04-13T07:05:13Z</time>
      </trkpt>
      <trkpt lat="43.246021" lon="-3.296961">
        <ele>481.0</ele>
        <time>2012-04-13T07:05:53Z</time>
      </trkpt>
      <trkpt lat="43.246242" lon="-3.297103">
        <ele>483.0</ele>
        <time>2012-04-13T07:06:33Z</time>
      </trkpt>
      <trkpt lat="43.246576" lon="-3.297240">
        <ele>479.0</ele>
        <time>2012-04-13T07:07:13Z</time>
      </trkpt>
      <trkpt lat="43.246779" lon="-3.297347">
        <ele>479.0</ele>
        <time>2012-04-13T07:07:53Z</time>
      </trkpt>
      <trkpt lat="43.246965" lon="-3.297390">
        <ele>480.0</ele>
        <time>2012-04-13T07:08:33Z</time>
      </trkpt>
      <trkpt lat="43.247145" lon="-3.297470">
        <ele>478.0</ele>
        <time>2012-04-13T07:09:13Z</time>
      </trkpt>
      <trkpt lat="43.247213" lon="-3.297564">
        <ele>478.0</ele>
        <time>2012-04-13T07:09:53Z</time>
      </trkpt>
      <trkpt lat="43.247297" lon="-3.297650">
        <ele>480.0</ele>
        <time>2012-04-13T07:10:33Z</time>
      </trkpt>
      <trkpt lat="43.247379" lon="-3.297733">
        <ele>478.0</ele>
        <time>2012-04-13T07:11:13Z</time>
      </trkpt>
      <trkpt lat="43.247477" lon="-3.297814">
        <ele>478.0</ele>
        <time>2012-04-13T07:11:53Z</time>
      </trkpt>
      <trkpt lat="43.247592" lon="-3.297881">
        <ele>478.0</ele>
        <time>2012-04-13T07:12:33Z</time>
      </trkpt>
      <trkpt lat="43.247663" lon="-3.297948">
        <ele>478.0</ele>
        <time>2012-04-13T07:13:13Z</time>
      </trkpt>
      <trkpt lat="43.247719" lon="-3.298039">
        <ele>478.0</ele>
        <time>2012-04-13T07:13:53Z</time>
      </trkpt>
      <trkpt lat="43.247760" lon="-3.298133">
        <ele>478.0</ele>
        <time>2012-04-13T07:14:33Z</time>
      </trkpt>
      <trkpt lat="43.247793" lon="-3.298205">
        <ele>479.0</ele>
        <time>2012-04-13T07:15:13Z</time>
      </trkpt>
      <trkpt lat="43.247860" lon="-3.298320">
        <ele>479.0</ele>
        <time>2012-04-13T07:15:53Z</time>
      </trkpt>
      <trkpt lat="43.247942" lon="-3.298540">
        <ele>480.0</ele>
        <time>2012-04-13T07:16:33Z</time>
      </trkpt>
      <trkpt lat="43.248047" lon="-3.298634">
        <ele>480.0</ele>
        <time>2012-04-13T07:17:13Z</time>
      </trkpt>
      <trkpt lat="43.248139" lon="-3.298760">
        <ele>481.0</ele>
        <time>2012-04-13T07:17:53Z</time>
      </trkpt>
      <trkpt lat="43.248251" lon="-3.298951">
        <ele>481.0</ele>
        <time>2012-04-13T07:18:33Z</time>
      </trkpt>
      <trkpt lat="43.248456" lon="-3.299329">
        <ele>482.0</ele>
        <time>2012-04-13T07:19:13Z</time>
      </trkpt>
      <trkpt lat="43.248632" lon="-3.299619">
        <ele>484.0</ele>
        <time>2012-04-13T07:19:53Z</time>
      </trkpt>
      <trkpt lat="43.248786" lon="-3.299916">
        <ele>487.0</ele>
        <time>2012-04-13T07:20:33Z</time>
      </trkpt>
      <trkpt lat="43.248878" lon="-3.300107">
        <ele>487.0</ele>
        <time>2012-04-13T07:21:13Z</time>
      </trkpt>
      <trkpt lat="43.248923" lon="-3.300236">
        <ele>488.0</ele>
        <time>2012-04-13T07:21:53Z</time>
      </trkpt>
      <trkpt lat="43.248991" lon="-3.300421">
        <ele>489.0</ele>
        <time>2012-04-13T07:22:33Z</time>
      </trkpt>
      <trkpt lat="43.249026" lon="-3.300651">
        <ele>489.0</ele>
        <time>2012-04-13T07:23:13Z</time>
      </trkpt>
      <trkpt lat="43.248995" lon="-3.300732">
        <ele>489.0</ele>
        <time>2012-04-13T07:23:53Z</time>
      </trkpt>
      <trkpt lat="43.249011" lon="-3.300874">
        <ele>489.0</ele>
        <time>2012-04-13T07:24:33Z</time>
      </trkpt>
      <trkpt lat="43.249136" lon="-3.301198">
        <ele>493.0</ele>
        <time>2012-04-13T07:25:13Z</time>
      </trkpt>
      <trkpt lat="43.249216" lon="-3.301397">
        <ele>492.0</ele>
        <time>2012-04-13T07:25:53Z</time>
      </trkpt>
      <trkpt lat="43.249376" lon="-3.301722">
        <ele>497.0</ele>
        <time>2012-04-13T07:26:33Z</time>
      </trkpt>
      <trkpt lat="43.249476" lon="-3.301896">
        <ele>498.0</ele>
        <time>2012-04-13T07:27:13Z</time>
      </trkpt>
      <trkpt lat="43.249573" lon="-3.302035">
        <ele>498.0</ele>
        <time>2012-04-13T07:27:53Z</time>
      </trkpt>
      <trkpt lat="43.249645" lon="-3.302215">
        <ele>504.0</ele>
        <time>2012-04-13T07:28:33Z</time>
      </trkpt>
      <trkpt lat="43.249716" lon="-3.302389">
        <ele>505.0</ele>
        <time>2012-04-13T07:29:13Z</time>
      </trkpt>
      <trkpt lat="43.249856" lon="-3.302644">
        <ele>507.0</ele>
        <time>2012-04-13T07:29:53Z</time>
      </trkpt>
      <trkpt lat="43.249929" lon="-3.302805">
        <ele>511.0</ele>
        <time>2012-04-13T07:30:33Z</time>
      </trkpt>
      <trkpt lat="43.250087" lon="-3.303044">
        <ele>514.0</ele>
        <time>2012-04-13T07:31:13Z</time>
      </trkpt>
      <trkpt lat="43.250280" lon="-3.303342">
        <ele>521.0</ele>
        <time>2012-04-13T07:31:53Z</time>
      </trkpt>
      <trkpt lat="43.250411" lon="-3.303543">
        <ele>525.0</ele>
        <time>2012-04-13T07:32:33Z</time>
      </trkpt>
      <trkpt lat="43.250603" lon="-3.303661">
        <ele>530.0</ele>
        <time>2012-04-13T07:33:13Z</time>
      </trkpt>
      <trkpt lat="43.250859" lon="-3.303859">
        <ele>540.0</ele>
        <time>2012-04-13T07:33:53Z</time>
      </trkpt>
      <trkpt lat="43.251033" lon="-3.304009">
        <ele>546.0</ele>
        <time>2012-04-13T07:34:33Z</time>
      </trkpt>
      <trkpt lat="43.251136" lon="-3.304157">
        <ele>551.0</ele>
        <time>2012-04-13T07:35:13Z</time>
      </trkpt>
      <trkpt lat="43.251288" lon="-3.304396">
        <ele>562.0</ele>
        <time>2012-04-13T07:35:53Z</time>
      </trkpt>
      <trkpt lat="43.251378" lon="-3.304527">
        <ele>562.0</ele>
        <time>2012-04-13T07:36:33Z</time>
      </trkpt>
      <trkpt lat="43.251480" lon="-3.304551">
        <ele>562.0</ele>
        <time>2012-04-13T07:37:13Z</time>
      </trkpt>
      <trkpt lat="43.251642" lon="-3.304495">
        <ele>568.0</ele>
        <time>2012-04-13T07:37:53Z</time>
      </trkpt>
      <trkpt lat="43.252041" lon="-3.304455">
        <ele>575.0</ele>
        <time>2012-04-13T07:38:33Z</time>
      </trkpt>
      <trkpt lat="43.252238" lon="-3.304422">
        <ele>583.0</ele>
        <time>2012-04-13T07:39:13Z</time>
      </trkpt>
      <trkpt lat="43.252412" lon="-3.304417">
        <ele>591.0</ele>
        <time>2012-04-13T07:39:53Z</time>
      </trkpt>
      <trkpt lat="43.252623" lon="-3.304433">
        <ele>591.0</ele>
        <time>2012-04-13T07:40:33Z</time>
      </trkpt>
      <trkpt lat="43.252844" lon="-3.304500">
        <ele>598.0</ele>
        <time>2012-04-13T07:41:13Z</time>
      </trkpt>
      <trkpt lat="43.253047" lon="-3.304573">
        <ele>605.0</ele>
        <time>2012-04-13T07:41:53Z</time>
      </trkpt>
      <trkpt lat="43.253183" lon="-3.304565">
        <ele>605.0</ele>
        <time>2012-04-13T07:42:33Z</time>
      </trkpt>
      <trkpt lat="43.253301" lon="-3.304565">
        <ele>612.0</ele>
        <time>2012-04-13T07:43:13Z</time>
      </trkpt>
      <trkpt lat="43.253346" lon="-3.304642">
        <ele>616.0</ele>
        <time>2012-04-13T07:43:53Z</time>
      </trkpt>
      <trkpt lat="43.253424" lon="-3.304608">
        <ele>616.0</ele>
        <time>2012-04-13T07:44:33Z</time>
      </trkpt>
      <trkpt lat="43.253400" lon="-3.304675">
        <ele>616.0</ele>
        <time>2012-04-13T07:45:13Z</time>
      </trkpt>
      <trkpt lat="43.253488" lon="-3.304645">
        <ele>619.0</ele>
        <time>2012-04-13T07:45:53Z</time>
      </trkpt>
      <trkpt lat="43.253488" lon="-3.304769">
        <ele>619.0</ele>
        <time>2012-04-13T07:46:33Z</time>
      </trkpt>
      <trkpt lat="43.253609" lon="-3.304803">
        <ele>619.0</ele>
        <time>2012-04-13T07:47:13Z</time>
      </trkpt>
      <trkpt lat="43.253826" lon="-3.304806">
        <ele>620.0</ele>
        <time>2012-04-13T07:47:53Z</time>
      </trkpt>
      <trkpt lat="43.254020" lon="-3.304798">
        <ele>620.0</ele>
        <time>2012-04-13T07:48:33Z</time>
      </trkpt>
      <trkpt lat="43.254086" lon="-3.304728">
        <ele>618.0</ele>
        <time>2012-04-13T07:49:13Z</time>
      </trkpt>
      <trkpt lat="43.254281" lon="-3.304524">
        <ele>620.0</ele>
        <time>2012-04-13T07:49:53Z</time>
      </trkpt>
      <trkpt lat="43.254369" lon="-3.304414">
        <ele>618.0</ele>
        <time>2012-04-13T07:50:33Z</time>
      </trkpt>
      <trkpt lat="43.254461" lon="-3.304299">
        <ele>620.0</ele>
        <time>2012-04-13T07:51:13Z</time>
      </trkpt>
      <trkpt lat="43.254557" lon="-3.304165">
        <ele>620.0</ele>
        <time>2012-04-13T07:51:53Z</time>
      </trkpt>
      <trkpt lat="43.254670" lon="-3.304111">
        <ele>618.0</ele>
        <time>2012-04-13T07:52:33Z</time>
      </trkpt>
      <trkpt lat="43.254821" lon="-3.303950">
        <ele>622.0</ele>
        <time>2012-04-13T07:53:13Z</time>
      </trkpt>
      <trkpt lat="43.254973" lon="-3.303942">
        <ele>620.0</ele>
        <time>2012-04-13T07:53:53Z</time>
      </trkpt>
      <trkpt lat="43.255137" lon="-3.303969">
        <ele>620.0</ele>
        <time>2012-04-13T07:54:33Z</time>
      </trkpt>
      <trkpt lat="43.255217" lon="-3.304020">
        <ele>618.0</ele>
        <time>2012-04-13T07:55:13Z</time>
      </trkpt>
      <trkpt lat="43.255268" lon="-3.304079">
        <ele>611.0</ele>
        <time>2012-04-13T07:55:53Z</time>
      </trkpt>
      <trkpt lat="43.255481" lon="-3.304001">
        <ele>512.0</ele>
        <time>2012-04-13T07:56:33Z</time>
      </trkpt>
      <trkpt lat="43.255633" lon="-3.303897">
        <ele>512.0</ele>
        <time>2012-04-13T07:57:13Z</time>
      </trkpt>
      <trkpt lat="43.255840" lon="-3.303739">
        <ele>617.0</ele>
        <time>2012-04-13T07:57:53Z</time>
      </trkpt>
      <trkpt lat="43.255985" lon="-3.303685">
        <ele>613.0</ele>
        <time>2012-04-13T07:58:33Z</time>
      </trkpt>
      <trkpt lat="43.256137" lon="-3.303583">
        <ele>613.0</ele>
        <time>2012-04-13T07:59:13Z</time>
      </trkpt>
      <trkpt lat="43.256291" lon="-3.303583">
        <ele>611.0</ele>
        <time>2012-04-13T07:59:53Z</time>
      </trkpt>
      <trkpt lat="43.256458" lon="-3.303516">
        <ele>611.0</ele>
        <time>2012-04-13T08:00:33Z</time>
      </trkpt>
      <trkpt lat="43.256657" lon="-3.303516">
        <ele>611.0</ele>
        <time>2012-04-13T08:01:13Z</time>
      </trkpt>
      <trkpt lat="43.256856" lon="-3.303575">
        <ele>613.0</ele>
        <time>2012-04-13T08:01:53Z</time>
      </trkpt>
      <trkpt lat="43.257171" lon="-3.303709">
        <ele>616.0</ele>
        <time>2012-04-13T08:02:33Z</time>
      </trkpt>
      <trkpt lat="43.257413" lon="-3.303827">
        <ele>619.0</ele>
        <time>2012-04-13T08:03:13Z</time>
      </trkpt>
      <trkpt lat="43.257708" lon="-3.303964">
        <ele>625.0</ele>
        <time>2012-04-13T08:03:53Z</time>
      </trkpt>
      <trkpt lat="43.257928" lon="-3.304189">
        <ele>630.0</ele>
        <time>2012-04-13T08:04:33Z</time>
      </trkpt>
      <trkpt lat="43.258094" lon="-3.304363">
        <ele>627.0</ele>
        <time>2012-04-13T08:05:13Z</time>
      </trkpt>
      <trkpt lat="43.258298" lon="-3.304600">
        <ele>630.0</ele>
        <time>2012-04-13T08:05:53Z</time>
      </trkpt>
      <trkpt lat="43.258526" lon="-3.304680">
        <ele>636.0</ele>
        <time>2012-04-13T08:06:33Z</time>
      </trkpt>
      <trkpt lat="43.258690" lon="-3.304782">
        <ele>636.0</ele>
        <time>2012-04-13T08:07:13Z</time>
      </trkpt>
      <trkpt lat="43.258815" lon="-3.305029">
        <ele>636.0</ele>
        <time>2012-04-13T08:07:53Z</time>
      </trkpt>
      <trkpt lat="43.258972" lon="-3.305286">
        <ele>631.0</ele>
        <time>2012-04-13T08:08:33Z</time>
      </trkpt>
      <trkpt lat="43.259140" lon="-3.305426">
        <ele>626.0</ele>
        <time>2012-04-13T08:09:13Z</time>
      </trkpt>
      <trkpt lat="43.259429" lon="-3.305570">
        <ele>627.0</ele>
        <time>2012-04-13T08:09:53Z</time>
      </trkpt>
      <trkpt lat="43.259761" lon="-3.305748">
        <ele>621.0</ele>
        <time>2012-04-13T08:10:33Z</time>
      </trkpt>
      <trkpt lat="43.260046" lon="-3.305807">
        <ele>622.0</ele>
        <time>2012-04-13T08:11:13Z</time>
      </trkpt>
      <trkpt lat="43.260269" lon="-3.305941">
        <ele>623.0</ele>
        <time>2012-04-13T08:11:53Z</time>
      </trkpt>
      <trkpt lat="43.260519" lon="-3.306166">
        <ele>624.0</ele>
        <time>2012-04-13T08:12:33Z</time>
      </trkpt>
      <trkpt lat="43.260921" lon="-3.306397">
        <ele>628.0</ele>
        <time>2012-04-13T08:13:13Z</time>
      </trkpt>
      <trkpt lat="43.261269" lon="-3.306547">
        <ele>638.0</ele>
        <time>2012-04-13T08:13:53Z</time>
      </trkpt>
      <trkpt lat="43.261816" lon="-3.306836">
        <ele>646.0</ele>
        <time>2012-04-13T08:14:33Z</time>
      </trkpt>
      <trkpt lat="43.262335" lon="-3.307046">
        <ele>649.0</ele>
        <time>2012-04-13T08:15:13Z</time>
      </trkpt>
      <trkpt lat="43.262648" lon="-3.307158">
        <ele>656.0</ele>
        <time>2012-04-13T08:15:53Z</time>
      </trkpt>
      <trkpt lat="43.263081" lon="-3.307357">
        <ele>659.0</ele>
        <time>2012-04-13T08:16:33Z</time>
      </trkpt>
      <trkpt lat="43.263390" lon="-3.307550">
        <ele>662.0</ele>
        <time>2012-04-13T08:17:13Z</time>
      </trkpt>
      <trkpt lat="43.263734" lon="-3.307797">
        <ele>660.0</ele>
        <time>2012-04-13T08:17:53Z</time>
      </trkpt>
      <trkpt lat="43.264187" lon="-3.308065">
        <ele>660.0</ele>
        <time>2012-04-13T08:18:33Z</time>
      </trkpt>
      <trkpt lat="43.264417" lon="-3.308151">
        <ele>658.0</ele>
        <time>2012-04-13T08:19:13Z</time>
      </trkpt>
      <trkpt lat="43.264765" lon="-3.308285">
        <ele>656.0</ele>
        <time>2012-04-13T08:19:53Z</time>
      </trkpt>
      <trkpt lat="43.265159" lon="-3.308483">
        <ele>650.0</ele>
        <time>2012-04-13T08:20:33Z</time>
      </trkpt>
      <trkpt lat="43.265386" lon="-3.308698">
        <ele>650.0</ele>
        <time>2012-04-13T08:21:13Z</time>
      </trkpt>
      <trkpt lat="43.265745" lon="-3.309068">
        <ele>659.0</ele>
        <time>2012-04-13T08:21:53Z</time>
      </trkpt>
      <trkpt lat="43.265964" lon="-3.309320">
        <ele>661.0</ele>
        <time>2012-04-13T08:22:33Z</time>
      </trkpt>
      <trkpt lat="43.266132" lon="-3.309508">
        <ele>671.0</ele>
        <time>2012-04-13T08:23:13Z</time>
      </trkpt>
      <trkpt lat="43.266605" lon="-3.309792">
        <ele>697.0</ele>
        <time>2012-04-13T08:23:53Z</time>
      </trkpt>
      <trkpt lat="43.266937" lon="-3.309980">
        <ele>710.0</ele>
        <time>2012-04-13T08:24:33Z</time>
      </trkpt>
      <trkpt lat="43.267206" lon="-3.310130">
        <ele>719.0</ele>
        <time>2012-04-13T08:25:13Z</time>
      </trkpt>
      <trkpt lat="43.267398" lon="-3.310313">
        <ele>728.0</ele>
        <time>2012-04-13T08:25:53Z</time>
      </trkpt>
      <trkpt lat="43.267632" lon="-3.310581">
        <ele>728.0</ele>
        <time>2012-04-13T08:26:33Z</time>
      </trkpt>
      <trkpt lat="43.268031" lon="-3.311090">
        <ele>731.0</ele>
        <time>2012-04-13T08:27:13Z</time>
      </trkpt>
      <trkpt lat="43.268249" lon="-3.311466">
        <ele>732.0</ele>
        <time>2012-04-13T08:27:53Z</time>
      </trkpt>
      <trkpt lat="43.268331" lon="-3.311933">
        <ele>732.0</ele>
        <time>2012-04-13T08:28:33Z</time>
      </trkpt>
      <trkpt lat="43.268273" lon="-3.312137">
        <ele>732.0</ele>
        <time>2012-04-13T08:29:13Z</time>
      </trkpt>
      <trkpt lat="43.268394" lon="-3.312260">
        <ele>732.0</ele>
        <time>2012-04-13T08:29:53Z</time>
      </trkpt>
      <trkpt lat="43.268468" lon="-3.312469">
        <ele>730.0</ele>
        <time>2012-04-13T08:30:33Z</time>
      </trkpt>
      <trkpt lat="43.268406" lon="-3.312625">
        <ele>730.0</ele>
        <time>2012-04-13T08:31:13Z</time>
      </trkpt>
      <trkpt lat="43.268554" lon="-3.312748">
        <ele>730.0</ele>
        <time>2012-04-13T08:31:53Z</time>
      </trkpt>
      <trkpt lat="43.268495" lon="-3.312882">
        <ele>730.0</ele>
        <time>2012-04-13T08:32:33Z</time>
      </trkpt>
      <trkpt lat="43.268652" lon="-3.313048">
        <ele>725.0</ele>
        <time>2012-04-13T08:33:13Z</time>
      </trkpt>
      <trkpt lat="43.268874" lon="-3.313102">
        <ele>727.0</ele>
        <time>2012-04-13T08:33:53Z</time>
      </trkpt>
      <trkpt lat="43.269007" lon="-3.312979">
        <ele>727.0</ele>
        <time>2012-04-13T08:34:33Z</time>
      </trkpt>
      <trkpt lat="43.269206" lon="-3.312909">
        <ele>730.0</ele>
        <time>2012-04-13T08:35:13Z</time>
      </trkpt>
      <trkpt lat="43.269331" lon="-3.313000">
        <ele>721.0</ele>
        <time>2012-04-13T08:35:53Z</time>
      </trkpt>
      <trkpt lat="43.269534" lon="-3.312646">
        <ele>727.0</ele>
        <time>2012-04-13T08:36:33Z</time>
      </trkpt>
      <trkpt lat="43.269655" lon="-3.312335">
        <ele>731.0</ele>
        <time>2012-04-13T08:37:13Z</time>
      </trkpt>
      <trkpt lat="43.269777" lon="-3.312094">
        <ele>731.0</ele>
        <time>2012-04-13T08:37:53Z</time>
      </trkpt>
      <trkpt lat="43.270144" lon="-3.311595">
        <ele>735.0</ele>
        <time>2012-04-13T08:38:33Z</time>
      </trkpt>
      <trkpt lat="43.270335" lon="-3.311546">
        <ele>735.0</ele>
        <time>2012-04-13T08:39:13Z</time>
      </trkpt>
      <trkpt lat="43.270401" lon="-3.311375">
        <ele>739.0</ele>
        <time>2012-04-13T08:39:53Z</time>
      </trkpt>
      <trkpt lat="43.270343" lon="-3.311300">
        <ele>739.0</ele>
        <time>2012-04-13T08:40:33Z</time>
      </trkpt>
      <trkpt lat="43.270405" lon="-3.311192">
        <ele>742.0</ele>
        <time>2012-04-13T08:41:13Z</time>
      </trkpt>
      <trkpt lat="43.270327" lon="-3.311214">
        <ele>742.0</ele>
        <time>2012-04-13T08:41:53Z</time>
      </trkpt>
      <trkpt lat="43.270382" lon="-3.311069">
        <ele>742.0</ele>
        <time>2012-04-13T08:42:33Z</time>
      </trkpt>
      <trkpt lat="43.270234" lon="-3.311015">
        <ele>742.0</ele>
        <time>2012-04-13T08:43:13Z</time>
      </trkpt>
      <trkpt lat="43.270339" lon="-3.310903">
        <ele>745.0</ele>
        <time>2012-04-13T08:43:53Z</time>
      </trkpt>
      <trkpt lat="43.270230" lon="-3.310854">
        <ele>745.0</ele>
        <time>2012-04-13T08:44:33Z</time>
      </trkpt>
      <trkpt lat="43.270300" lon="-3.310726">
        <ele>745.0</ele>
        <time>2012-04-13T08:45:13Z</time>
      </trkpt>
      <trkpt lat="43.270198" lon="-3.310683">
        <ele>748.0</ele>
        <time>2012-04-13T08:45:53Z</time>
      </trkpt>
      <trkpt lat="43.270234" lon="-3.310543">
        <ele>748.0</ele>
        <time>2012-04-13T08:46:33Z</time>
      </trkpt>
      <trkpt lat="43.270261" lon="-3.310415">
        <ele>750.0</ele>
        <time>2012-04-13T08:47:13Z</time>
      </trkpt>
      <trkpt lat="43.270550" lon="-3.310232">
        <ele>756.0</ele>
        <time>2012-04-13T08:47:53Z</time>
      </trkpt>
      <trkpt lat="43.270667" lon="-3.310082">
        <ele>756.0</ele>
        <time>2012-04-13T08:48:33Z</time>
      </trkpt>
      <trkpt lat="43.271210" lon="-3.309776">
        <ele>777.0</ele>
        <time>2012-04-13T08:49:13Z</time>
      </trkpt>
      <trkpt lat="43.271452" lon="-3.309642">
        <ele>791.0</ele>
        <time>2012-04-13T08:49:53Z</time>
      </trkpt>
      <trkpt lat="43.271831" lon="-3.309390">
        <ele>808.0</ele>
        <time>2012-04-13T08:50:33Z</time>
      </trkpt>
      <trkpt lat="43.272011" lon="-3.308875">
        <ele>799.0</ele>
        <time>2012-04-13T08:51:13Z</time>
      </trkpt>
      <trkpt lat="43.272300" lon="-3.309154">
        <ele>807.0</ele>
        <time>2012-04-13T08:51:53Z</time>
      </trkpt>
      <trkpt lat="43.272819" lon="-3.309680">
        <ele>818.0</ele>
        <time>2012-04-13T08:52:33Z</time>
      </trkpt>
      <trkpt lat="43.273120" lon="-3.309948">
        <ele>819.0</ele>
        <time>2012-04-13T08:53:13Z</time>
      </trkpt>
      <trkpt lat="43.273483" lon="-3.310179">
        <ele>823.0</ele>
        <time>2012-04-13T08:53:53Z</time>
      </trkpt>
      <trkpt lat="43.273667" lon="-3.310103">
        <ele>823.0</ele>
        <time>2012-04-13T08:54:33Z</time>
      </trkpt>
      <trkpt lat="43.273725" lon="-3.309969">
        <ele>823.0</ele>
        <time>2012-04-13T08:55:13Z</time>
      </trkpt>
      <trkpt lat="43.273843" lon="-3.309873">
        <ele>826.0</ele>
        <time>2012-04-13T08:55:53Z</time>
      </trkpt>
      <trkpt lat="43.274061" lon="-3.309819">
        <ele>823.0</ele>
        <time>2012-04-13T08:56:33Z</time>
      </trkpt>
      <trkpt lat="43.274280" lon="-3.310039">
        <ele>827.0</ele>
        <time>2012-04-13T08:57:13Z</time>
      </trkpt>
      <trkpt lat="43.274553" lon="-3.310436">
        <ele>829.0</ele>
        <time>2012-04-13T08:57:53Z</time>
      </trkpt>
      <trkpt lat="43.274799" lon="-3.310838">
        <ele>826.0</ele>
        <time>2012-04-13T08:58:33Z</time>
      </trkpt>
      <trkpt lat="43.275010" lon="-3.311294">
        <ele>825.0</ele>
        <time>2012-04-13T08:59:13Z</time>
      </trkpt>
      <trkpt lat="43.275128" lon="-3.311563">
        <ele>824.0</ele>
        <time>2012-04-13T08:59:53Z</time>
      </trkpt>
      <trkpt lat="43.275217" lon="-3.311740">
        <ele>823.0</ele>
        <time>2012-04-13T09:00:33Z</time>
      </trkpt>
      <trkpt lat="43.275299" lon="-3.311911">
        <ele>822.0</ele>
        <time>2012-04-13T09:01:13Z</time>
      </trkpt>
      <trkpt lat="43.275389" lon="-3.312024">
        <ele>822.0</ele>
        <time>2012-04-13T09:01:53Z</time>
      </trkpt>
      <trkpt lat="43.275862" lon="-3.312292">
        <ele>821.0</ele>
        <time>2012-04-13T09:02:33Z</time>
      </trkpt>
      <trkpt lat="43.276100" lon="-3.312303">
        <ele>819.0</ele>
        <time>2012-04-13T09:03:13Z</time>
      </trkpt>
      <trkpt lat="43.276237" lon="-3.312265">
        <ele>819.0</ele>
        <time>2012-04-13T09:03:53Z</time>
      </trkpt>
      <trkpt lat="43.276541" lon="-3.312163">
        <ele>812.0</ele>
        <time>2012-04-13T09:04:33Z</time>
      </trkpt>
      <trkpt lat="43.276744" lon="-3.312088">
        <ele>812.0</ele>
        <time>2012-04-13T09:05:13Z</time>
      </trkpt>
      <trkpt lat="43.276924" lon="-3.311954">
        <ele>803.0</ele>
        <time>2012-04-13T09:05:53Z</time>
      </trkpt>
      <trkpt lat="43.277065" lon="-3.311831">
        <ele>803.0</ele>
        <time>2012-04-13T09:06:33Z</time>
      </trkpt>
      <trkpt lat="43.277182" lon="-3.311616">
        <ele>794.0</ele>
        <time>2012-04-13T09:07:13Z</time>
      </trkpt>
      <trkpt lat="43.277428" lon="-3.311241">
        <ele>786.0</ele>
        <time>2012-04-13T09:07:53Z</time>
      </trkpt>
      <trkpt lat="43.277639" lon="-3.310860">
        <ele>785.0</ele>
        <time>2012-04-13T09:08:33Z</time>
      </trkpt>
      <trkpt lat="43.277838" lon="-3.310543">
        <ele>788.0</ele>
        <time>2012-04-13T09:09:13Z</time>
      </trkpt>
      <trkpt lat="43.278041" lon="-3.310291">
        <ele>786.0</ele>
        <time>2012-04-13T09:09:53Z</time>
      </trkpt>
      <trkpt lat="43.278182" lon="-3.310044">
        <ele>781.0</ele>
        <time>2012-04-13T09:10:33Z</time>
      </trkpt>
      <trkpt lat="43.278354" lon="-3.309771">
        <ele>776.0</ele>
        <time>2012-04-13T09:11:13Z</time>
      </trkpt>
      <trkpt lat="43.278658" lon="-3.309470">
        <ele>773.0</ele>
        <time>2012-04-13T09:11:53Z</time>
      </trkpt>
      <trkpt lat="43.278971" lon="-3.309240">
        <ele>771.0</ele>
        <time>2012-04-13T09:12:33Z</time>
      </trkpt>
      <trkpt lat="43.279291" lon="-3.308945">
        <ele>770.0</ele>
        <time>2012-04-13T09:13:13Z</time>
      </trkpt>
      <trkpt lat="43.279541" lon="-3.308698">
        <ele>771.0</ele>
        <time>2012-04-13T09:13:53Z</time>
      </trkpt>
      <trkpt lat="43.279861" lon="-3.308526">
        <ele>772.0</ele>
        <time>2012-04-13T09:14:33Z</time>
      </trkpt>
      <trkpt lat="43.280224" lon="-3.308473">
        <ele>763.0</ele>
        <time>2012-04-13T09:15:13Z</time>
      </trkpt>
      <trkpt lat="43.280591" lon="-3.308516">
        <ele>759.0</ele>
        <time>2012-04-13T09:15:53Z</time>
      </trkpt>
      <trkpt lat="43.280927" lon="-3.308601">
        <ele>757.0</ele>
        <time>2012-04-13T09:16:33Z</time>
      </trkpt>
      <trkpt lat="43.281208" lon="-3.308333">
        <ele>752.0</ele>
        <time>2012-04-13T09:17:13Z</time>
      </trkpt>
      <trkpt lat="43.281544" lon="-3.308167">
        <ele>750.0</ele>
        <time>2012-04-13T09:17:53Z</time>
      </trkpt>
      <trkpt lat="43.281841" lon="-3.308092">
        <ele>752.0</ele>
        <time>2012-04-13T09:18:33Z</time>
      </trkpt>
      <trkpt lat="43.282247" lon="-3.308001">
        <ele>752.0</ele>
        <time>2012-04-13T09:19:13Z</time>
      </trkpt>
      <trkpt lat="43.282439" lon="-3.307883">
        <ele>749.0</ele>
        <time>2012-04-13T09:19:53Z</time>
      </trkpt>
      <trkpt lat="43.282603" lon="-3.307920">
        <ele>751.0</ele>
        <time>2012-04-13T09:20:33Z</time>
      </trkpt>
      <trkpt lat="43.282802" lon="-3.307915">
        <ele>747.0</ele>
        <time>2012-04-13T09:21:13Z</time>
      </trkpt>
      <trkpt lat="43.282938" lon="-3.307866">
        <ele>743.0</ele>
        <time>2012-04-13T09:21:53Z</time>
      </trkpt>
      <trkpt lat="43.283098" lon="-3.307775">
        <ele>743.0</ele>
        <time>2012-04-13T09:22:33Z</time>
      </trkpt>
      <trkpt lat="43.283274" lon="-3.307625">
        <ele>739.0</ele>
        <time>2012-04-13T09:23:13Z</time>
      </trkpt>
      <trkpt lat="43.283423" lon="-3.307362">
        <ele>739.0</ele>
        <time>2012-04-13T09:23:53Z</time>
      </trkpt>
      <trkpt lat="43.283544" lon="-3.307185">
        <ele>736.0</ele>
        <time>2012-04-13T09:24:33Z</time>
      </trkpt>
      <trkpt lat="43.283626" lon="-3.307014">
        <ele>733.0</ele>
        <time>2012-04-13T09:25:13Z</time>
      </trkpt>
      <trkpt lat="43.283676" lon="-3.306633">
        <ele>729.0</ele>
        <time>2012-04-13T09:25:53Z</time>
      </trkpt>
      <trkpt lat="43.283700" lon="-3.306386">
        <ele>724.0</ele>
        <time>2012-04-13T09:26:33Z</time>
      </trkpt>
      <trkpt lat="43.283758" lon="-3.306010">
        <ele>724.0</ele>
        <time>2012-04-13T09:27:13Z</time>
      </trkpt>
      <trkpt lat="43.283833" lon="-3.305785">
        <ele>720.0</ele>
        <time>2012-04-13T09:27:53Z</time>
      </trkpt>
      <trkpt lat="43.283973" lon="-3.305474">
        <ele>716.0</ele>
        <time>2012-04-13T09:28:33Z</time>
      </trkpt>
      <trkpt lat="43.284395" lon="-3.305592">
        <ele>721.0</ele>
        <time>2012-04-13T09:29:13Z</time>
      </trkpt>
      <trkpt lat="43.284645" lon="-3.305828">
        <ele>723.0</ele>
        <time>2012-04-13T09:29:53Z</time>
      </trkpt>
      <trkpt lat="43.284817" lon="-3.306144">
        <ele>727.0</ele>
        <time>2012-04-13T09:30:33Z</time>
      </trkpt>
      <trkpt lat="43.284953" lon="-3.306552">
        <ele>733.0</ele>
        <time>2012-04-13T09:31:13Z</time>
      </trkpt>
      <trkpt lat="43.285106" lon="-3.306842">
        <ele>737.0</ele>
        <time>2012-04-13T09:31:53Z</time>
      </trkpt>
      <trkpt lat="43.285078" lon="-3.307266">
        <ele>739.0</ele>
        <time>2012-04-13T09:32:33Z</time>
      </trkpt>
      <trkpt lat="43.285098" lon="-3.307593">
        <ele>740.0</ele>
        <time>2012-04-13T09:33:13Z</time>
      </trkpt>
      <trkpt lat="43.285000" lon="-3.307968">
        <ele>740.0</ele>
        <time>2012-04-13T09:33:53Z</time>
      </trkpt>
      <trkpt lat="43.285125" lon="-3.308204">
        <ele>738.0</ele>
        <time>2012-04-13T09:34:33Z</time>
      </trkpt>
      <trkpt lat="43.285285" lon="-3.308430">
        <ele>737.0</ele>
        <time>2012-04-13T09:35:13Z</time>
      </trkpt>
      <trkpt lat="43.285297" lon="-3.308569">
        <ele>735.0</ele>
        <time>2012-04-13T09:35:53Z</time>
      </trkpt>
      <trkpt lat="43.285317" lon="-3.309229">
        <ele>728.0</ele>
        <time>2012-04-13T09:36:33Z</time>
      </trkpt>
      <trkpt lat="43.285266" lon="-3.309411">
        <ele>724.0</ele>
        <time>2012-04-13T09:37:13Z</time>
      </trkpt>
      <trkpt lat="43.285145" lon="-3.309572">
        <ele>724.0</ele>
        <time>2012-04-13T09:37:53Z</time>
      </trkpt>
      <trkpt lat="43.285016" lon="-3.309460">
        <ele>722.0</ele>
        <time>2012-04-13T09:38:33Z</time>
      </trkpt>
      <trkpt lat="43.284821" lon="-3.309390">
        <ele>717.0</ele>
        <time>2012-04-13T09:39:13Z</time>
      </trkpt>
      <trkpt lat="43.284707" lon="-3.309272">
        <ele>723.0</ele>
        <time>2012-04-13T09:39:53Z</time>
      </trkpt>
      <trkpt lat="43.284657" lon="-3.309261">
        <ele>723.0</ele>
        <time>2012-04-13T09:40:33Z</time>
      </trkpt>
      <trkpt lat="43.284594" lon="-3.309342">
        <ele>717.0</ele>
        <time>2012-04-13T09:41:13Z</time>
      </trkpt>
      <trkpt lat="43.284469" lon="-3.309326">
        <ele>712.0</ele>
        <time>2012-04-13T09:41:53Z</time>
      </trkpt>
      <trkpt lat="43.284297" lon="-3.309213">
        <ele>714.0</ele>
        <time>2012-04-13T09:42:33Z</time>
      </trkpt>
      <trkpt lat="43.284215" lon="-3.309186">
        <ele>714.0</ele>
        <time>2012-04-13T09:43:13Z</time>
      </trkpt>
      <trkpt lat="43.284184" lon="-3.309057">
        <ele>714.0</ele>
        <time>2012-04-13T09:43:53Z</time>
      </trkpt>
      <trkpt lat="43.284098" lon="-3.308864">
        <ele>720.0</ele>
        <time>2012-04-13T09:44:33Z</time>
      </trkpt>
      <trkpt lat="43.284047" lon="-3.308725">
        <ele>725.0</ele>
        <time>2012-04-13T09:45:13Z</time>
      </trkpt>
      <trkpt lat="43.283997" lon="-3.308575">
        <ele>723.0</ele>
        <time>2012-04-13T09:45:53Z</time>
      </trkpt>
      <trkpt lat="43.283942" lon="-3.308355">
        <ele>728.0</ele>
        <time>2012-04-13T09:46:33Z</time>
      </trkpt>
      <trkpt lat="43.283942" lon="-3.308113">
        <ele>732.0</ele>
        <time>2012-04-13T09:47:13Z</time>
      </trkpt>
      <trkpt lat="43.283868" lon="-3.307979">
        <ele>732.0</ele>
        <time>2012-04-13T09:47:53Z</time>
      </trkpt>
      <trkpt lat="43.283778" lon="-3.307893">
        <ele>734.0</ele>
        <time>2012-04-13T09:48:33Z</time>
      </trkpt>
      <trkpt lat="43.283719" lon="-3.307845">
        <ele>736.0</ele>
        <time>2012-04-13T09:49:13Z</time>
      </trkpt>
      <trkpt lat="43.283634" lon="-3.307786">
        <ele>736.0</ele>
        <time>2012-04-13T09:49:53Z</time>
      </trkpt>
      <trkpt lat="43.283528" lon="-3.307748">
        <ele>736.0</ele>
        <time>2012-04-13T09:50:33Z</time>
      </trkpt>
      <trkpt lat="43.283407" lon="-3.307754">
        <ele>739.0</ele>
        <time>2012-04-13T09:51:13Z</time>
      </trkpt>
      <trkpt lat="43.283309" lon="-3.307925">
        <ele>736.0</ele>
        <time>2012-04-13T09:51:53Z</time>
      </trkpt>
      <trkpt lat="43.283243" lon="-3.308038">
        <ele>736.0</ele>
        <time>2012-04-13T09:52:33Z</time>
      </trkpt>
      <trkpt lat="43.283192" lon="-3.308172">
        <ele>742.0</ele>
        <time>2012-04-13T09:53:13Z</time>
      </trkpt>
      <trkpt lat="43.283098" lon="-3.308499">
        <ele>734.0</ele>
        <time>2012-04-13T09:53:53Z</time>
      </trkpt>
      <trkpt lat="43.282997" lon="-3.308698">
        <ele>734.0</ele>
        <time>2012-04-13T09:54:33Z</time>
      </trkpt>
      <trkpt lat="43.282868" lon="-3.308945">
        <ele>737.0</ele>
        <time>2012-04-13T09:55:13Z</time>
      </trkpt>
      <trkpt lat="43.282728" lon="-3.309143">
        <ele>732.0</ele>
        <time>2012-04-13T09:55:53Z</time>
      </trkpt>
      <trkpt lat="43.282329" lon="-3.309583">
        <ele>740.0</ele>
        <time>2012-04-13T09:56:33Z</time>
      </trkpt>
      <trkpt lat="43.282153" lon="-3.309755">
        <ele>735.0</ele>
        <time>2012-04-13T09:57:13Z</time>
      </trkpt>
      <trkpt lat="43.282021" lon="-3.309846">
        <ele>740.0</ele>
        <time>2012-04-13T09:57:53Z</time>
      </trkpt>
      <trkpt lat="43.281743" lon="-3.309969">
        <ele>739.0</ele>
        <time>2012-04-13T09:58:33Z</time>
      </trkpt>
      <trkpt lat="43.281579" lon="-3.310023">
        <ele>739.0</ele>
        <time>2012-04-13T09:59:13Z</time>
      </trkpt>
      <trkpt lat="43.281329" lon="-3.310146">
        <ele>739.0</ele>
        <time>2012-04-13T09:59:53Z</time>
      </trkpt>
      <trkpt lat="43.281165" lon="-3.310211">
        <ele>744.0</ele>
        <time>2012-04-13T10:00:33Z</time>
      </trkpt>
      <trkpt lat="43.281052" lon="-3.310280">
        <ele>744.0</ele>
        <time>2012-04-13T10:01:13Z</time>
      </trkpt>
      <trkpt lat="43.280923" lon="-3.310361">
        <ele>750.0</ele>
        <time>2012-04-13T10:01:53Z</time>
      </trkpt>
      <trkpt lat="43.280767" lon="-3.310447">
        <ele>745.0</ele>
        <time>2012-04-13T10:02:33Z</time>
      </trkpt>
      <trkpt lat="43.280666" lon="-3.310549">
        <ele>750.0</ele>
        <time>2012-04-13T10:03:13Z</time>
      </trkpt>
      <trkpt lat="43.280462" lon="-3.310779">
        <ele>745.0</ele>
        <time>2012-04-13T10:03:53Z</time>
      </trkpt>
      <trkpt lat="43.280302" lon="-3.310908">
        <ele>749.0</ele>
        <time>2012-04-13T10:04:33Z</time>
      </trkpt>
      <trkpt lat="43.280103" lon="-3.311149">
        <ele>748.0</ele>
        <time>2012-04-13T10:05:13Z</time>
      </trkpt>
      <trkpt lat="43.279974" lon="-3.311289">
        <ele>743.0</ele>
        <time>2012-04-13T10:05:53Z</time>
      </trkpt>
      <trkpt lat="43.279896" lon="-3.311396">
        <ele>743.0</ele>
        <time>2012-04-13T10:06:33Z</time>
      </trkpt>
      <trkpt lat="43.279888" lon="-3.311445">
        <ele>743.0</ele>
        <time>2012-04-13T10:07:13Z</time>
      </trkpt>
      <trkpt lat="43.279685" lon="-3.311611">
        <ele>744.0</ele>
        <time>2012-04-13T10:07:53Z</time>
      </trkpt>
      <trkpt lat="43.279638" lon="-3.311686">
        <ele>744.0</ele>
        <time>2012-04-13T10:08:33Z</time>
      </trkpt>
      <trkpt lat="43.279588" lon="-3.311911">
        <ele>739.0</ele>
        <time>2012-04-13T10:09:13Z</time>
      </trkpt>
      <trkpt lat="43.279549" lon="-3.311992">
        <ele>745.0</ele>
        <time>2012-04-13T10:09:53Z</time>
      </trkpt>
      <trkpt lat="43.279420" lon="-3.312244">
        <ele>742.0</ele>
        <time>2012-04-13T10:10:33Z</time>
      </trkpt>
      <trkpt lat="43.279330" lon="-3.312560">
        <ele>738.0</ele>
        <time>2012-04-13T10:11:13Z</time>
      </trkpt>
      <trkpt lat="43.279236" lon="-3.312834">
        <ele>744.0</ele>
        <time>2012-04-13T10:11:53Z</time>
      </trkpt>
      <trkpt lat="43.279150" lon="-3.313124">
        <ele>741.0</ele>
        <time>2012-04-13T10:12:33Z</time>
      </trkpt>
      <trkpt lat="43.279072" lon="-3.313263">
        <ele>738.0</ele>
        <time>2012-04-13T10:13:13Z</time>
      </trkpt>
      <trkpt lat="43.278955" lon="-3.313403">
        <ele>748.0</ele>
        <time>2012-04-13T10:13:53Z</time>
      </trkpt>
      <trkpt lat="43.278846" lon="-3.313730">
        <ele>746.0</ele>
        <time>2012-04-13T10:14:33Z</time>
      </trkpt>
      <trkpt lat="43.278768" lon="-3.313891">
        <ele>743.0</ele>
        <time>2012-04-13T10:15:13Z</time>
      </trkpt>
      <trkpt lat="43.278705" lon="-3.314089">
        <ele>751.0</ele>
        <time>2012-04-13T10:15:53Z</time>
      </trkpt>
      <trkpt lat="43.278752" lon="-3.314379">
        <ele>739.0</ele>
        <time>2012-04-13T10:16:33Z</time>
      </trkpt>
      <trkpt lat="43.278748" lon="-3.314642">
        <ele>748.0</ele>
        <time>2012-04-13T10:17:13Z</time>
      </trkpt>
      <trkpt lat="43.278650" lon="-3.314851">
        <ele>748.0</ele>
        <time>2012-04-13T10:17:53Z</time>
      </trkpt>
      <trkpt lat="43.278529" lon="-3.315237">
        <ele>746.0</ele>
        <time>2012-04-13T10:18:33Z</time>
      </trkpt>
      <trkpt lat="43.278467" lon="-3.315382">
        <ele>756.0</ele>
        <time>2012-04-13T10:19:13Z</time>
      </trkpt>
      <trkpt lat="43.278451" lon="-3.315720">
        <ele>756.0</ele>
        <time>2012-04-13T10:19:53Z</time>
      </trkpt>
      <trkpt lat="43.278350" lon="-3.316069">
        <ele>756.0</ele>
        <time>2012-04-13T10:20:33Z</time>
      </trkpt>
      <trkpt lat="43.278502" lon="-3.316262">
        <ele>746.0</ele>
        <time>2012-04-13T10:21:13Z</time>
      </trkpt>
      <trkpt lat="43.278564" lon="-3.316428">
        <ele>746.0</ele>
        <time>2012-04-13T10:21:53Z</time>
      </trkpt>
      <trkpt lat="43.278623" lon="-3.316557">
        <ele>746.0</ele>
        <time>2012-04-13T10:22:33Z</time>
      </trkpt>
      <trkpt lat="43.278619" lon="-3.316825">
        <ele>746.0</ele>
        <time>2012-04-13T10:23:13Z</time>
      </trkpt>
      <trkpt lat="43.278537" lon="-3.317179">
        <ele>745.0</ele>
        <time>2012-04-13T10:23:53Z</time>
      </trkpt>
      <trkpt lat="43.278369" lon="-3.317469">
        <ele>753.0</ele>
        <time>2012-04-13T10:24:33Z</time>
      </trkpt>
      <trkpt lat="43.278178" lon="-3.317721">
        <ele>758.0</ele>
        <time>2012-04-13T10:25:13Z</time>
      </trkpt>
      <trkpt lat="43.277990" lon="-3.317876">
        <ele>758.0</ele>
        <time>2012-04-13T10:25:53Z</time>
      </trkpt>
      <trkpt lat="43.277795" lon="-3.318032">
        <ele>761.0</ele>
        <time>2012-04-13T10:26:33Z</time>
      </trkpt>
      <trkpt lat="43.277553" lon="-3.318043">
        <ele>767.0</ele>
        <time>2012-04-13T10:27:13Z</time>
      </trkpt>
      <trkpt lat="43.277412" lon="-3.318027">
        <ele>767.0</ele>
        <time>2012-04-13T10:27:53Z</time>
      </trkpt>
      <trkpt lat="43.277299" lon="-3.318043">
        <ele>770.0</ele>
        <time>2012-04-13T10:28:33Z</time>
      </trkpt>
      <trkpt lat="43.277170" lon="-3.318166">
        <ele>770.0</ele>
        <time>2012-04-13T10:29:13Z</time>
      </trkpt>
      <trkpt lat="43.277108" lon="-3.318418">
        <ele>767.0</ele>
        <time>2012-04-13T10:29:53Z</time>
      </trkpt>
      <trkpt lat="43.277069" lon="-3.318869">
        <ele>761.0</ele>
        <time>2012-04-13T10:30:33Z</time>
      </trkpt>
      <trkpt lat="43.277080" lon="-3.319314">
        <ele>753.0</ele>
        <time>2012-04-13T10:31:13Z</time>
      </trkpt>
      <trkpt lat="43.277084" lon="-3.319550">
        <ele>750.0</ele>
        <time>2012-04-13T10:31:53Z</time>
      </trkpt>
      <trkpt lat="43.276987" lon="-3.319872">
        <ele>745.0</ele>
        <time>2012-04-13T10:32:33Z</time>
      </trkpt>
      <trkpt lat="43.276877" lon="-3.320124">
        <ele>745.0</ele>
        <time>2012-04-13T10:33:13Z</time>
      </trkpt>
      <trkpt lat="43.276737" lon="-3.320280">
        <ele>742.0</ele>
        <time>2012-04-13T10:33:53Z</time>
      </trkpt>
      <trkpt lat="43.276690" lon="-3.320301">
        <ele>742.0</ele>
        <time>2012-04-13T10:34:33Z</time>
      </trkpt>
      <trkpt lat="43.276655" lon="-3.320366">
        <ele>742.0</ele>
        <time>2012-04-13T10:35:13Z</time>
      </trkpt>
      <trkpt lat="43.276612" lon="-3.320382">
        <ele>742.0</ele>
        <time>2012-04-13T10:35:53Z</time>
      </trkpt>
      <trkpt lat="43.276577" lon="-3.320371">
        <ele>742.0</ele>
        <time>2012-04-13T10:36:33Z</time>
      </trkpt>
      <trkpt lat="43.276514" lon="-3.320446">
        <ele>735.0</ele>
        <time>2012-04-13T10:37:13Z</time>
      </trkpt>
      <trkpt lat="43.276487" lon="-3.320516">
        <ele>735.0</ele>
        <time>2012-04-13T10:37:53Z</time>
      </trkpt>
      <trkpt lat="43.276475" lon="-3.320473">
        <ele>735.0</ele>
        <time>2012-04-13T10:38:33Z</time>
      </trkpt>
      <trkpt lat="43.276424" lon="-3.320467">
        <ele>735.0</ele>
        <time>2012-04-13T10:39:13Z</time>
      </trkpt>
      <trkpt lat="43.276381" lon="-3.320441">
        <ele>735.0</ele>
        <time>2012-04-13T10:39:53Z</time>
      </trkpt>
      <trkpt lat="43.276370" lon="-3.320473">
        <ele>735.0</ele>
        <time>2012-04-13T10:40:33Z</time>
      </trkpt>
      <trkpt lat="43.276303" lon="-3.320441">
        <ele>735.0</ele>
        <time>2012-04-13T10:41:13Z</time>
      </trkpt>
      <trkpt lat="43.276280" lon="-3.320382">
        <ele>739.0</ele>
        <time>2012-04-13T10:41:53Z</time>
      </trkpt>
      <trkpt lat="43.276233" lon="-3.320285">
        <ele>735.0</ele>
        <time>2012-04-13T10:42:33Z</time>
      </trkpt>
      <trkpt lat="43.276194" lon="-3.320151">
        <ele>735.0</ele>
        <time>2012-04-13T10:43:13Z</time>
      </trkpt>
      <trkpt lat="43.276123" lon="-3.320060">
        <ele>739.0</ele>
        <time>2012-04-13T10:43:53Z</time>
      </trkpt>
      <trkpt lat="43.276061" lon="-3.319947">
        <ele>739.0</ele>
        <time>2012-04-13T10:44:33Z</time>
      </trkpt>
      <trkpt lat="43.275995" lon="-3.319861">
        <ele>739.0</ele>
        <time>2012-04-13T10:45:13Z</time>
      </trkpt>
      <trkpt lat="43.275889" lon="-3.319759">
        <ele>737.0</ele>
        <time>2012-04-13T10:45:53Z</time>
      </trkpt>
      <trkpt lat="43.275713" lon="-3.319792">
        <ele>737.0</ele>
        <time>2012-04-13T10:46:33Z</time>
      </trkpt>
      <trkpt lat="43.275620" lon="-3.319759">
        <ele>733.0</ele>
        <time>2012-04-13T10:47:13Z</time>
      </trkpt>
      <trkpt lat="43.275616" lon="-3.319738">
        <ele>733.0</ele>
        <time>2012-04-13T10:47:53Z</time>
      </trkpt>
      <trkpt lat="43.275545" lon="-3.319652">
        <ele>733.0</ele>
        <time>2012-04-13T10:48:33Z</time>
      </trkpt>
      <trkpt lat="43.275370" lon="-3.319550">
        <ele>730.0</ele>
        <time>2012-04-13T10:49:13Z</time>
      </trkpt>
      <trkpt lat="43.275167" lon="-3.319432">
        <ele>730.0</ele>
        <time>2012-04-13T10:49:53Z</time>
      </trkpt>
      <trkpt lat="43.275057" lon="-3.319309">
        <ele>724.0</ele>
        <time>2012-04-13T10:50:33Z</time>
      </trkpt>
      <trkpt lat="43.274893" lon="-3.319196">
        <ele>728.0</ele>
        <time>2012-04-13T10:51:13Z</time>
      </trkpt>
      <trkpt lat="43.274831" lon="-3.319105">
        <ele>718.0</ele>
        <time>2012-04-13T10:51:53Z</time>
      </trkpt>
      <trkpt lat="43.274694" lon="-3.318783">
        <ele>721.0</ele>
        <time>2012-04-13T10:52:33Z</time>
      </trkpt>
      <trkpt lat="43.274616" lon="-3.318386">
        <ele>729.0</ele>
        <time>2012-04-13T10:53:13Z</time>
      </trkpt>
      <trkpt lat="43.274624" lon="-3.318252">
        <ele>729.0</ele>
        <time>2012-04-13T10:53:53Z</time>
      </trkpt>
      <trkpt lat="43.274604" lon="-3.318112">
        <ele>733.0</ele>
        <time>2012-04-13T10:54:33Z</time>
      </trkpt>
      <trkpt lat="43.274557" lon="-3.317952">
        <ele>722.0</ele>
        <time>2012-04-13T10:55:13Z</time>
      </trkpt>
      <trkpt lat="43.274514" lon="-3.317753">
        <ele>725.0</ele>
        <time>2012-04-13T10:55:53Z</time>
      </trkpt>
      <trkpt lat="43.274471" lon="-3.317522">
        <ele>727.0</ele>
        <time>2012-04-13T10:56:33Z</time>
      </trkpt>
      <trkpt lat="43.274467" lon="-3.317442">
        <ele>727.0</ele>
        <time>2012-04-13T10:57:13Z</time>
      </trkpt>
      <trkpt lat="43.274417" lon="-3.317415">
        <ele>727.0</ele>
        <time>2012-04-13T10:57:53Z</time>
      </trkpt>
      <trkpt lat="43.274370" lon="-3.317378">
        <ele>727.0</ele>
        <time>2012-04-13T10:58:33Z</time>
      </trkpt>
      <trkpt lat="43.274335" lon="-3.317308">
        <ele>728.0</ele>
        <time>2012-04-13T10:59:13Z</time>
      </trkpt>
      <trkpt lat="43.274327" lon="-3.317249">
        <ele>728.0</ele>
        <time>2012-04-13T10:59:53Z</time>
      </trkpt>
      <trkpt lat="43.274354" lon="-3.317002">
        <ele>730.0</ele>
        <time>2012-04-13T11:00:33Z</time>
      </trkpt>
      <trkpt lat="43.274409" lon="-3.316836">
        <ele>730.0</ele>
        <time>2012-04-13T11:01:13Z</time>
      </trkpt>
      <trkpt lat="43.274491" lon="-3.316653">
        <ele>731.0</ele>
        <time>2012-04-13T11:01:53Z</time>
      </trkpt>
      <trkpt lat="43.274577" lon="-3.316535">
        <ele>731.0</ele>
        <time>2012-04-13T11:02:33Z</time>
      </trkpt>
      <trkpt lat="43.274635" lon="-3.316412">
        <ele>743.0</ele>
        <time>2012-04-13T11:03:13Z</time>
      </trkpt>
      <trkpt lat="43.274671" lon="-3.316305">
        <ele>743.0</ele>
        <time>2012-04-13T11:03:53Z</time>
      </trkpt>
      <trkpt lat="43.274616" lon="-3.316192">
        <ele>744.0</ele>
        <time>2012-04-13T11:04:33Z</time>
      </trkpt>
      <trkpt lat="43.274553" lon="-3.316063">
        <ele>733.0</ele>
        <time>2012-04-13T11:05:13Z</time>
      </trkpt>
      <trkpt lat="43.274448" lon="-3.315854">
        <ele>734.0</ele>
        <time>2012-04-13T11:05:53Z</time>
      </trkpt>
      <trkpt lat="43.274378" lon="-3.315725">
        <ele>734.0</ele>
        <time>2012-04-13T11:06:33Z</time>
      </trkpt>
      <trkpt lat="43.274307" lon="-3.315666">
        <ele>736.0</ele>
        <time>2012-04-13T11:07:13Z</time>
      </trkpt>
      <trkpt lat="43.274225" lon="-3.315613">
        <ele>726.0</ele>
        <time>2012-04-13T11:07:53Z</time>
      </trkpt>
      <trkpt lat="43.274143" lon="-3.315473">
        <ele>726.0</ele>
        <time>2012-04-13T11:08:33Z</time>
      </trkpt>
      <trkpt lat="43.274104" lon="-3.315312">
        <ele>729.0</ele>
        <time>2012-04-13T11:09:13Z</time>
      </trkpt>
      <trkpt lat="43.274077" lon="-3.315243">
        <ele>729.0</ele>
        <time>2012-04-13T11:09:53Z</time>
      </trkpt>
      <trkpt lat="43.273995" lon="-3.315151">
        <ele>718.0</ele>
        <time>2012-04-13T11:10:33Z</time>
      </trkpt>
      <trkpt lat="43.273874" lon="-3.315103">
        <ele>721.0</ele>
        <time>2012-04-13T11:11:13Z</time>
      </trkpt>
      <trkpt lat="43.273819" lon="-3.314980">
        <ele>721.0</ele>
        <time>2012-04-13T11:11:53Z</time>
      </trkpt>
      <trkpt lat="43.273846" lon="-3.314862">
        <ele>721.0</ele>
        <time>2012-04-13T11:12:33Z</time>
      </trkpt>
      <trkpt lat="43.273866" lon="-3.314776">
        <ele>724.0</ele>
        <time>2012-04-13T11:13:13Z</time>
      </trkpt>
      <trkpt lat="43.274026" lon="-3.314454">
        <ele>727.0</ele>
        <time>2012-04-13T11:13:53Z</time>
      </trkpt>
      <trkpt lat="43.274061" lon="-3.314352">
        <ele>736.0</ele>
        <time>2012-04-13T11:14:33Z</time>
      </trkpt>
      <trkpt lat="43.274018" lon="-3.314175">
        <ele>730.0</ele>
        <time>2012-04-13T11:15:13Z</time>
      </trkpt>
      <trkpt lat="43.273971" lon="-3.313982">
        <ele>734.0</ele>
        <time>2012-04-13T11:15:53Z</time>
      </trkpt>
      <trkpt lat="43.273850" lon="-3.313628">
        <ele>739.0</ele>
        <time>2012-04-13T11:16:33Z</time>
      </trkpt>
      <trkpt lat="43.273690" lon="-3.313494">
        <ele>732.0</ele>
        <time>2012-04-13T11:17:13Z</time>
      </trkpt>
      <trkpt lat="43.273526" lon="-3.313451">
        <ele>738.0</ele>
        <time>2012-04-13T11:17:53Z</time>
      </trkpt>
      <trkpt lat="43.273366" lon="-3.313526">
        <ele>724.0</ele>
        <time>2012-04-13T11:18:33Z</time>
      </trkpt>
      <trkpt lat="43.273237" lon="-3.313526">
        <ele>724.0</ele>
        <time>2012-04-13T11:19:13Z</time>
      </trkpt>
      <trkpt lat="43.273124" lon="-3.313526">
        <ele>717.0</ele>
        <time>2012-04-13T11:19:53Z</time>
      </trkpt>
      <trkpt lat="43.272933" lon="-3.313580">
        <ele>717.0</ele>
        <time>2012-04-13T11:20:33Z</time>
      </trkpt>
      <trkpt lat="43.272804" lon="-3.313580">
        <ele>712.0</ele>
        <time>2012-04-13T11:21:13Z</time>
      </trkpt>
      <trkpt lat="43.272749" lon="-3.313537">
        <ele>712.0</ele>
        <time>2012-04-13T11:21:53Z</time>
      </trkpt>
      <trkpt lat="43.272651" lon="-3.313537">
        <ele>712.0</ele>
        <time>2012-04-13T11:22:33Z</time>
      </trkpt>
      <trkpt lat="43.272476" lon="-3.313601">
        <ele>709.0</ele>
        <time>2012-04-13T11:23:13Z</time>
      </trkpt>
      <trkpt lat="43.272015" lon="-3.313558">
        <ele>697.0</ele>
        <time>2012-04-13T11:23:53Z</time>
      </trkpt>
      <trkpt lat="43.271792" lon="-3.313521">
        <ele>692.0</ele>
        <time>2012-04-13T11:24:33Z</time>
      </trkpt>
      <trkpt lat="43.271511" lon="-3.313601">
        <ele>688.0</ele>
        <time>2012-04-13T11:25:13Z</time>
      </trkpt>
      <trkpt lat="43.271292" lon="-3.313526">
        <ele>688.0</ele>
        <time>2012-04-13T11:25:53Z</time>
      </trkpt>
      <trkpt lat="43.271144" lon="-3.313494">
        <ele>686.0</ele>
        <time>2012-04-13T11:26:33Z</time>
      </trkpt>
      <trkpt lat="43.270964" lon="-3.313236">
        <ele>693.0</ele>
        <time>2012-04-13T11:27:13Z</time>
      </trkpt>
      <trkpt lat="43.270839" lon="-3.313140">
        <ele>702.0</ele>
        <time>2012-04-13T11:27:53Z</time>
      </trkpt>
      <trkpt lat="43.270698" lon="-3.313038">
        <ele>702.0</ele>
        <time>2012-04-13T11:28:33Z</time>
      </trkpt>
      <trkpt lat="43.270511" lon="-3.312989">
        <ele>703.0</ele>
        <time>2012-04-13T11:29:13Z</time>
      </trkpt>
      <trkpt lat="43.270335" lon="-3.313204">
        <ele>700.0</ele>
        <time>2012-04-13T11:29:53Z</time>
      </trkpt>
      <trkpt lat="43.270214" lon="-3.313301">
        <ele>700.0</ele>
        <time>2012-04-13T11:30:33Z</time>
      </trkpt>
      <trkpt lat="43.270093" lon="-3.313338">
        <ele>704.0</ele>
        <time>2012-04-13T11:31:13Z</time>
      </trkpt>
      <trkpt lat="43.269991" lon="-3.313344">
        <ele>704.0</ele>
        <time>2012-04-13T11:31:53Z</time>
      </trkpt>
      <trkpt lat="43.269855" lon="-3.313403">
        <ele>709.0</ele>
        <time>2012-04-13T11:32:33Z</time>
      </trkpt>
      <trkpt lat="43.269741" lon="-3.313580">
        <ele>701.0</ele>
        <time>2012-04-13T11:33:13Z</time>
      </trkpt>
      <trkpt lat="43.269706" lon="-3.313617">
        <ele>701.0</ele>
        <time>2012-04-13T11:33:53Z</time>
      </trkpt>
      <trkpt lat="43.269577" lon="-3.313649">
        <ele>707.0</ele>
        <time>2012-04-13T11:34:33Z</time>
      </trkpt>
      <trkpt lat="43.269452" lon="-3.313998">
        <ele>699.0</ele>
        <time>2012-04-13T11:35:13Z</time>
      </trkpt>
      <trkpt lat="43.269304" lon="-3.314186">
        <ele>697.0</ele>
        <time>2012-04-13T11:35:53Z</time>
      </trkpt>
      <trkpt lat="43.269152" lon="-3.314255">
        <ele>697.0</ele>
        <time>2012-04-13T11:36:33Z</time>
      </trkpt>
      <trkpt lat="43.269038" lon="-3.314438">
        <ele>690.0</ele>
        <time>2012-04-13T11:37:13Z</time>
      </trkpt>
      <trkpt lat="43.268882" lon="-3.314846">
        <ele>685.0</ele>
        <time>2012-04-13T11:37:53Z</time>
      </trkpt>
      <trkpt lat="43.268757" lon="-3.315006">
        <ele>677.0</ele>
        <time>2012-04-13T11:38:33Z</time>
      </trkpt>
      <trkpt lat="43.268515" lon="-3.315296">
        <ele>670.0</ele>
        <time>2012-04-13T11:39:13Z</time>
      </trkpt>
      <trkpt lat="43.268292" lon="-3.315559">
        <ele>663.0</ele>
        <time>2012-04-13T11:39:53Z</time>
      </trkpt>
      <trkpt lat="43.268128" lon="-3.315639">
        <ele>661.0</ele>
        <time>2012-04-13T11:40:33Z</time>
      </trkpt>
      <trkpt lat="43.267925" lon="-3.315591">
        <ele>661.0</ele>
        <time>2012-04-13T11:41:13Z</time>
      </trkpt>
      <trkpt lat="43.267659" lon="-3.315602">
        <ele>656.0</ele>
        <time>2012-04-13T11:41:53Z</time>
      </trkpt>
      <trkpt lat="43.267495" lon="-3.315570">
        <ele>647.0</ele>
        <time>2012-04-13T11:42:33Z</time>
      </trkpt>
      <trkpt lat="43.267355" lon="-3.315484">
        <ele>636.0</ele>
        <time>2012-04-13T11:43:13Z</time>
      </trkpt>
      <trkpt lat="43.267281" lon="-3.315548">
        <ele>636.0</ele>
        <time>2012-04-13T11:43:53Z</time>
      </trkpt>
      <trkpt lat="43.267308" lon="-3.315645">
        <ele>636.0</ele>
        <time>2012-04-13T11:44:33Z</time>
      </trkpt>
      <trkpt lat="43.267406" lon="-3.315774">
        <ele>643.0</ele>
        <time>2012-04-13T11:45:13Z</time>
      </trkpt>
      <trkpt lat="43.267605" lon="-3.315886">
        <ele>643.0</ele>
        <time>2012-04-13T11:45:53Z</time>
      </trkpt>
      <trkpt lat="43.267745" lon="-3.316020">
        <ele>642.0</ele>
        <time>2012-04-13T11:46:33Z</time>
      </trkpt>
      <trkpt lat="43.267988" lon="-3.316181">
        <ele>644.0</ele>
        <time>2012-04-13T11:47:13Z</time>
      </trkpt>
      <trkpt lat="43.268116" lon="-3.316310">
        <ele>636.0</ele>
        <time>2012-04-13T11:47:53Z</time>
      </trkpt>
      <trkpt lat="43.268312" lon="-3.316380">
        <ele>636.0</ele>
        <time>2012-04-13T11:48:33Z</time>
      </trkpt>
      <trkpt lat="43.268648" lon="-3.316385">
        <ele>635.0</ele>
        <time>2012-04-13T11:49:13Z</time>
      </trkpt>
      <trkpt lat="43.268710" lon="-3.316487">
        <ele>635.0</ele>
        <time>2012-04-13T11:49:53Z</time>
      </trkpt>
      <trkpt lat="43.268644" lon="-3.316562">
        <ele>626.0</ele>
        <time>2012-04-13T11:50:33Z</time>
      </trkpt>
      <trkpt lat="43.268566" lon="-3.316696">
        <ele>626.0</ele>
        <time>2012-04-13T11:51:13Z</time>
      </trkpt>
      <trkpt lat="43.268390" lon="-3.316916">
        <ele>618.0</ele>
        <time>2012-04-13T11:51:53Z</time>
      </trkpt>
      <trkpt lat="43.268253" lon="-3.316997">
        <ele>618.0</ele>
        <time>2012-04-13T11:52:33Z</time>
      </trkpt>
      <trkpt lat="43.268144" lon="-3.317056">
        <ele>617.0</ele>
        <time>2012-04-13T11:53:13Z</time>
      </trkpt>
      <trkpt lat="43.268105" lon="-3.317142">
        <ele>607.0</ele>
        <time>2012-04-13T11:53:53Z</time>
      </trkpt>
      <trkpt lat="43.268171" lon="-3.317222">
        <ele>607.0</ele>
        <time>2012-04-13T11:54:33Z</time>
      </trkpt>
      <trkpt lat="43.268370" lon="-3.317292">
        <ele>609.0</ele>
        <time>2012-04-13T11:55:13Z</time>
      </trkpt>
      <trkpt lat="43.268562" lon="-3.317297">
        <ele>608.0</ele>
        <time>2012-04-13T11:55:53Z</time>
      </trkpt>
      <trkpt lat="43.268730" lon="-3.317152">
        <ele>608.0</ele>
        <time>2012-04-13T11:56:33Z</time>
      </trkpt>
      <trkpt lat="43.268882" lon="-3.317190">
        <ele>605.0</ele>
        <time>2012-04-13T11:57:13Z</time>
      </trkpt>
      <trkpt lat="43.268874" lon="-3.317399">
        <ele>596.0</ele>
        <time>2012-04-13T11:57:53Z</time>
      </trkpt>
      <trkpt lat="43.268808" lon="-3.317667">
        <ele>587.0</ele>
        <time>2012-04-13T11:58:33Z</time>
      </trkpt>
      <trkpt lat="43.268726" lon="-3.317801">
        <ele>589.0</ele>
        <time>2012-04-13T11:59:13Z</time>
      </trkpt>
      <trkpt lat="43.268636" lon="-3.317941">
        <ele>579.0</ele>
        <time>2012-04-13T11:59:53Z</time>
      </trkpt>
      <trkpt lat="43.268542" lon="-3.318048">
        <ele>579.0</ele>
        <time>2012-04-13T12:00:33Z</time>
      </trkpt>
      <trkpt lat="43.268402" lon="-3.318086">
        <ele>578.0</ele>
        <time>2012-04-13T12:01:13Z</time>
      </trkpt>
      <trkpt lat="43.268218" lon="-3.318027">
        <ele>578.0</ele>
        <time>2012-04-13T12:01:53Z</time>
      </trkpt>
      <trkpt lat="43.267976" lon="-3.317871">
        <ele>586.0</ele>
        <time>2012-04-13T12:02:33Z</time>
      </trkpt>
      <trkpt lat="43.267698" lon="-3.317791">
        <ele>581.0</ele>
        <time>2012-04-13T12:03:13Z</time>
      </trkpt>
      <trkpt lat="43.267480" lon="-3.317732">
        <ele>577.0</ele>
        <time>2012-04-13T12:03:53Z</time>
      </trkpt>
      <trkpt lat="43.267222" lon="-3.317694">
        <ele>577.0</ele>
        <time>2012-04-13T12:04:33Z</time>
      </trkpt>
      <trkpt lat="43.266952" lon="-3.317935">
        <ele>567.0</ele>
        <time>2012-04-13T12:05:13Z</time>
      </trkpt>
      <trkpt lat="43.266800" lon="-3.318166">
        <ele>571.0</ele>
        <time>2012-04-13T12:05:53Z</time>
      </trkpt>
      <trkpt lat="43.266534" lon="-3.318547">
        <ele>549.0</ele>
        <time>2012-04-13T12:06:33Z</time>
      </trkpt>
      <trkpt lat="43.266495" lon="-3.318627">
        <ele>553.0</ele>
        <time>2012-04-13T12:07:13Z</time>
      </trkpt>
      <trkpt lat="43.266222" lon="-3.318885">
        <ele>545.0</ele>
        <time>2012-04-13T12:07:53Z</time>
      </trkpt>
      <trkpt lat="43.265890" lon="-3.319105">
        <ele>538.0</ele>
        <time>2012-04-13T12:08:33Z</time>
      </trkpt>
      <trkpt lat="43.265531" lon="-3.319378">
        <ele>533.0</ele>
        <time>2012-04-13T12:09:13Z</time>
      </trkpt>
      <trkpt lat="43.265257" lon="-3.319470">
        <ele>536.0</ele>
        <time>2012-04-13T12:09:53Z</time>
      </trkpt>
      <trkpt lat="43.265007" lon="-3.319534">
        <ele>539.0</ele>
        <time>2012-04-13T12:10:33Z</time>
      </trkpt>
      <trkpt lat="43.264804" lon="-3.319609">
        <ele>536.0</ele>
        <time>2012-04-13T12:11:13Z</time>
      </trkpt>
      <trkpt lat="43.264491" lon="-3.319877">
        <ele>534.0</ele>
        <time>2012-04-13T12:11:53Z</time>
      </trkpt>
      <trkpt lat="43.264476" lon="-3.319851">
        <ele>537.0</ele>
        <time>2012-04-13T12:12:33Z</time>
      </trkpt>
      <trkpt lat="43.264472" lon="-3.319609">
        <ele>537.0</ele>
        <time>2012-04-13T12:13:13Z</time>
      </trkpt>
      <trkpt lat="43.264577" lon="-3.319105">
        <ele>539.0</ele>
        <time>2012-04-13T12:13:53Z</time>
      </trkpt>
      <trkpt lat="43.264656" lon="-3.318949">
        <ele>543.0</ele>
        <time>2012-04-13T12:14:33Z</time>
      </trkpt>
      <trkpt lat="43.264695" lon="-3.318745">
        <ele>544.0</ele>
        <time>2012-04-13T12:15:13Z</time>
      </trkpt>
      <trkpt lat="43.264714" lon="-3.318568">
        <ele>544.0</ele>
        <time>2012-04-13T12:15:53Z</time>
      </trkpt>
      <trkpt lat="43.264722" lon="-3.318440">
        <ele>545.0</ele>
        <time>2012-04-13T12:16:33Z</time>
      </trkpt>
      <trkpt lat="43.264866" lon="-3.318043">
        <ele>552.0</ele>
        <time>2012-04-13T12:17:13Z</time>
      </trkpt>
      <trkpt lat="43.264921" lon="-3.317839">
        <ele>554.0</ele>
        <time>2012-04-13T12:17:53Z</time>
      </trkpt>
      <trkpt lat="43.264980" lon="-3.317624">
        <ele>554.0</ele>
        <time>2012-04-13T12:18:33Z</time>
      </trkpt>
      <trkpt lat="43.265019" lon="-3.317442">
        <ele>554.0</ele>
        <time>2012-04-13T12:19:13Z</time>
      </trkpt>
      <trkpt lat="43.265003" lon="-3.316970">
        <ele>552.0</ele>
        <time>2012-04-13T12:19:53Z</time>
      </trkpt>
      <trkpt lat="43.265003" lon="-3.316804">
        <ele>550.0</ele>
        <time>2012-04-13T12:20:33Z</time>
      </trkpt>
      <trkpt lat="43.264937" lon="-3.316412">
        <ele>548.0</ele>
        <time>2012-04-13T12:21:13Z</time>
      </trkpt>
      <trkpt lat="43.264972" lon="-3.316144">
        <ele>546.0</ele>
        <time>2012-04-13T12:21:53Z</time>
      </trkpt>
      <trkpt lat="43.264972" lon="-3.315876">
        <ele>544.0</ele>
        <time>2012-04-13T12:22:33Z</time>
      </trkpt>
      <trkpt lat="43.264949" lon="-3.315709">
        <ele>544.0</ele>
        <time>2012-04-13T12:23:13Z</time>
      </trkpt>
      <trkpt lat="43.265034" lon="-3.315570">
        <ele>544.0</ele>
        <time>2012-04-13T12:23:53Z</time>
      </trkpt>
      <trkpt lat="43.265101" lon="-3.315377">
        <ele>545.0</ele>
        <time>2012-04-13T12:24:33Z</time>
      </trkpt>
      <trkpt lat="43.265113" lon="-3.315275">
        <ele>545.0</ele>
        <time>2012-04-13T12:25:13Z</time>
      </trkpt>
      <trkpt lat="43.265152" lon="-3.315049">
        <ele>557.0</ele>
        <time>2012-04-13T12:25:53Z</time>
      </trkpt>
      <trkpt lat="43.265132" lon="-3.314974">
        <ele>545.0</ele>
        <time>2012-04-13T12:26:33Z</time>
      </trkpt>
      <trkpt lat="43.264949" lon="-3.314878">
        <ele>545.0</ele>
        <time>2012-04-13T12:27:13Z</time>
      </trkpt>
      <trkpt lat="43.264870" lon="-3.314770">
        <ele>547.0</ele>
        <time>2012-04-13T12:27:53Z</time>
      </trkpt>
      <trkpt lat="43.264784" lon="-3.314470">
        <ele>537.0</ele>
        <time>2012-04-13T12:28:33Z</time>
      </trkpt>
      <trkpt lat="43.264562" lon="-3.314433">
        <ele>524.0</ele>
        <time>2012-04-13T12:29:13Z</time>
      </trkpt>
      <trkpt lat="43.264355" lon="-3.314379">
        <ele>524.0</ele>
        <time>2012-04-13T12:29:53Z</time>
      </trkpt>
      <trkpt lat="43.264218" lon="-3.314293">
        <ele>515.0</ele>
        <time>2012-04-13T12:30:33Z</time>
      </trkpt>
      <trkpt lat="43.264140" lon="-3.314041">
        <ele>515.0</ele>
        <time>2012-04-13T12:31:13Z</time>
      </trkpt>
      <trkpt lat="43.264054" lon="-3.313901">
        <ele>520.0</ele>
        <time>2012-04-13T12:31:53Z</time>
      </trkpt>
      <trkpt lat="43.264019" lon="-3.313719">
        <ele>516.0</ele>
        <time>2012-04-13T12:32:33Z</time>
      </trkpt>
      <trkpt lat="43.264015" lon="-3.313226">
        <ele>521.0</ele>
        <time>2012-04-13T12:33:13Z</time>
      </trkpt>
      <trkpt lat="43.263917" lon="-3.313086">
        <ele>526.0</ele>
        <time>2012-04-13T12:33:53Z</time>
      </trkpt>
      <trkpt lat="43.263581" lon="-3.313193">
        <ele>516.0</ele>
        <time>2012-04-13T12:34:33Z</time>
      </trkpt>
      <trkpt lat="43.263312" lon="-3.313226">
        <ele>495.0</ele>
        <time>2012-04-13T12:35:13Z</time>
      </trkpt>
      <trkpt lat="43.262909" lon="-3.313209">
        <ele>481.0</ele>
        <time>2012-04-13T12:35:53Z</time>
      </trkpt>
      <trkpt lat="43.262597" lon="-3.313263">
        <ele>483.0</ele>
        <time>2012-04-13T12:36:33Z</time>
      </trkpt>
      <trkpt lat="43.262476" lon="-3.313124">
        <ele>495.0</ele>
        <time>2012-04-13T12:37:13Z</time>
      </trkpt>
      <trkpt lat="43.262280" lon="-3.312947">
        <ele>495.0</ele>
        <time>2012-04-13T12:37:53Z</time>
      </trkpt>
      <trkpt lat="43.262093" lon="-3.312930">
        <ele>495.0</ele>
        <time>2012-04-13T12:38:33Z</time>
      </trkpt>
      <trkpt lat="43.261941" lon="-3.312989">
        <ele>493.0</ele>
        <time>2012-04-13T12:39:13Z</time>
      </trkpt>
      <trkpt lat="43.261382" lon="-3.313236">
        <ele>476.0</ele>
        <time>2012-04-13T12:39:53Z</time>
      </trkpt>
      <trkpt lat="43.261081" lon="-3.313285">
        <ele>474.0</ele>
        <time>2012-04-13T12:40:33Z</time>
      </trkpt>
      <trkpt lat="43.260925" lon="-3.313317">
        <ele>476.0</ele>
        <time>2012-04-13T12:41:13Z</time>
      </trkpt>
      <trkpt lat="43.260362" lon="-3.313558">
        <ele>461.0</ele>
        <time>2012-04-13T12:41:53Z</time>
      </trkpt>
      <trkpt lat="43.260061" lon="-3.313542">
        <ele>460.0</ele>
        <time>2012-04-13T12:42:33Z</time>
      </trkpt>
      <trkpt lat="43.259835" lon="-3.313515">
        <ele>456.0</ele>
        <time>2012-04-13T12:43:13Z</time>
      </trkpt>
      <trkpt lat="43.259651" lon="-3.313413">
        <ele>464.0</ele>
        <time>2012-04-13T12:43:53Z</time>
      </trkpt>
      <trkpt lat="43.259585" lon="-3.313263">
        <ele>464.0</ele>
        <time>2012-04-13T12:44:33Z</time>
      </trkpt>
      <trkpt lat="43.259358" lon="-3.312770">
        <ele>461.0</ele>
        <time>2012-04-13T12:45:13Z</time>
      </trkpt>
      <trkpt lat="43.259272" lon="-3.312512">
        <ele>446.0</ele>
        <time>2012-04-13T12:45:53Z</time>
      </trkpt>
      <trkpt lat="43.259261" lon="-3.312163">
        <ele>447.0</ele>
        <time>2012-04-13T12:46:33Z</time>
      </trkpt>
      <trkpt lat="43.259272" lon="-3.312024">
        <ele>446.0</ele>
        <time>2012-04-13T12:47:13Z</time>
      </trkpt>
      <trkpt lat="43.259347" lon="-3.311900">
        <ele>464.0</ele>
        <time>2012-04-13T12:47:53Z</time>
      </trkpt>
      <trkpt lat="43.259409" lon="-3.311788">
        <ele>461.0</ele>
        <time>2012-04-13T12:48:33Z</time>
      </trkpt>
      <trkpt lat="43.259495" lon="-3.311584">
        <ele>461.0</ele>
        <time>2012-04-13T12:49:13Z</time>
      </trkpt>
      <trkpt lat="43.259534" lon="-3.311348">
        <ele>459.0</ele>
        <time>2012-04-13T12:49:53Z</time>
      </trkpt>
      <trkpt lat="43.259515" lon="-3.311133">
        <ele>457.0</ele>
        <time>2012-04-13T12:50:33Z</time>
      </trkpt>
      <trkpt lat="43.259397" lon="-3.310978">
        <ele>457.0</ele>
        <time>2012-04-13T12:51:13Z</time>
      </trkpt>
      <trkpt lat="43.259304" lon="-3.310715">
        <ele>446.0</ele>
        <time>2012-04-13T12:51:53Z</time>
      </trkpt>
      <trkpt lat="43.259366" lon="-3.310559">
        <ele>461.0</ele>
        <time>2012-04-13T12:52:33Z</time>
      </trkpt>
      <trkpt lat="43.259354" lon="-3.310377">
        <ele>465.0</ele>
        <time>2012-04-13T12:53:13Z</time>
      </trkpt>
      <trkpt lat="43.259104" lon="-3.310130">
        <ele>460.0</ele>
        <time>2012-04-13T12:53:53Z</time>
      </trkpt>
      <trkpt lat="43.258952" lon="-3.309921">
        <ele>448.0</ele>
        <time>2012-04-13T12:54:33Z</time>
      </trkpt>
      <trkpt lat="43.258749" lon="-3.309883">
        <ele>437.0</ele>
        <time>2012-04-13T12:55:13Z</time>
      </trkpt>
      <trkpt lat="43.258440" lon="-3.309975">
        <ele>431.0</ele>
        <time>2012-04-13T12:55:53Z</time>
      </trkpt>
      <trkpt lat="43.258089" lon="-3.310044">
        <ele>427.0</ele>
        <time>2012-04-13T12:56:33Z</time>
      </trkpt>
      <trkpt lat="43.257690" lon="-3.310200">
        <ele>418.0</ele>
        <time>2012-04-13T12:57:13Z</time>
      </trkpt>
      <trkpt lat="43.257616" lon="-3.310189">
        <ele>417.0</ele>
        <time>2012-04-13T12:57:53Z</time>
      </trkpt>
      <trkpt lat="43.257546" lon="-3.310141">
        <ele>417.0</ele>
        <time>2012-04-13T12:58:33Z</time>
      </trkpt>
      <trkpt lat="43.257135" lon="-3.309808">
        <ele>428.0</ele>
        <time>2012-04-13T12:59:13Z</time>
      </trkpt>
      <trkpt lat="43.256838" lon="-3.309583">
        <ele>432.0</ele>
        <time>2012-04-13T12:59:53Z</time>
      </trkpt>
      <trkpt lat="43.256686" lon="-3.309664">
        <ele>420.0</ele>
        <time>2012-04-13T13:00:33Z</time>
      </trkpt>
      <trkpt lat="43.256479" lon="-3.309771">
        <ele>416.0</ele>
        <time>2012-04-13T13:01:13Z</time>
      </trkpt>
      <trkpt lat="43.256276" lon="-3.309712">
        <ele>416.0</ele>
        <time>2012-04-13T13:01:53Z</time>
      </trkpt>
      <trkpt lat="43.255998" lon="-3.309680">
        <ele>413.0</ele>
        <time>2012-04-13T13:02:33Z</time>
      </trkpt>
      <trkpt lat="43.255795" lon="-3.309588">
        <ele>412.0</ele>
        <time>2012-04-13T13:03:13Z</time>
      </trkpt>
      <trkpt lat="43.255557" lon="-3.309519">
        <ele>424.0</ele>
        <time>2012-04-13T13:03:53Z</time>
      </trkpt>
      <trkpt lat="43.255241" lon="-3.309487">
        <ele>429.0</ele>
        <time>2012-04-13T13:04:33Z</time>
      </trkpt>
      <trkpt lat="43.254869" lon="-3.309326">
        <ele>436.0</ele>
        <time>2012-04-13T13:05:13Z</time>
      </trkpt>
      <trkpt lat="43.254678" lon="-3.309240">
        <ele>456.0</ele>
        <time>2012-04-13T13:05:53Z</time>
      </trkpt>
      <trkpt lat="43.254358" lon="-3.309331">
        <ele>454.0</ele>
        <time>2012-04-13T13:06:33Z</time>
      </trkpt>
      <trkpt lat="43.254049" lon="-3.309470">
        <ele>464.0</ele>
        <time>2012-04-13T13:07:13Z</time>
      </trkpt>
      <trkpt lat="43.253697" lon="-3.309851">
        <ele>476.0</ele>
        <time>2012-04-13T13:07:53Z</time>
      </trkpt>
      <trkpt lat="43.253572" lon="-3.310028">
        <ele>468.0</ele>
        <time>2012-04-13T13:08:33Z</time>
      </trkpt>
      <trkpt lat="43.253361" lon="-3.310152">
        <ele>469.0</ele>
        <time>2012-04-13T13:09:13Z</time>
      </trkpt>
      <trkpt lat="43.253017" lon="-3.310350">
        <ele>474.0</ele>
        <time>2012-04-13T13:09:53Z</time>
      </trkpt>
      <trkpt lat="43.252853" lon="-3.310677">
        <ele>469.0</ele>
        <time>2012-04-13T13:10:33Z</time>
      </trkpt>
      <trkpt lat="43.252799" lon="-3.311015">
        <ele>455.0</ele>
        <time>2012-04-13T13:11:13Z</time>
      </trkpt>
      <trkpt lat="43.252674" lon="-3.311005">
        <ele>455.0</ele>
        <time>2012-04-13T13:11:53Z</time>
      </trkpt>
      <trkpt lat="43.252584" lon="-3.310871">
        <ele>459.0</ele>
        <time>2012-04-13T13:12:33Z</time>
      </trkpt>
      <trkpt lat="43.252529" lon="-3.310667">
        <ele>466.0</ele>
        <time>2012-04-13T13:13:13Z</time>
      </trkpt>
      <trkpt lat="43.252322" lon="-3.310372">
        <ele>468.0</ele>
        <time>2012-04-13T13:13:53Z</time>
      </trkpt>
      <trkpt lat="43.251998" lon="-3.309674">
        <ele>476.0</ele>
        <time>2012-04-13T13:14:33Z</time>
      </trkpt>
      <trkpt lat="43.251865" lon="-3.309492">
        <ele>484.0</ele>
        <time>2012-04-13T13:15:13Z</time>
      </trkpt>
      <trkpt lat="43.251580" lon="-3.309331">
        <ele>478.0</ele>
        <time>2012-04-13T13:15:53Z</time>
      </trkpt>
      <trkpt lat="43.251408" lon="-3.309224">
        <ele>482.0</ele>
        <time>2012-04-13T13:16:33Z</time>
      </trkpt>
      <trkpt lat="43.251212" lon="-3.309197">
        <ele>479.0</ele>
        <time>2012-04-13T13:17:13Z</time>
      </trkpt>
      <trkpt lat="43.251052" lon="-3.309336">
        <ele>471.0</ele>
        <time>2012-04-13T13:17:53Z</time>
      </trkpt>
      <trkpt lat="43.250911" lon="-3.309567">
        <ele>470.0</ele>
        <time>2012-04-13T13:18:33Z</time>
      </trkpt>
      <trkpt lat="43.250708" lon="-3.309760">
        <ele>463.0</ele>
        <time>2012-04-13T13:19:13Z</time>
      </trkpt>
      <trkpt lat="43.250634" lon="-3.309964">
        <ele>454.0</ele>
        <time>2012-04-13T13:19:53Z</time>
      </trkpt>
      <trkpt lat="43.250525" lon="-3.309959">
        <ele>454.0</ele>
        <time>2012-04-13T13:20:33Z</time>
      </trkpt>
      <trkpt lat="43.250404" lon="-3.309969">
        <ele>452.0</ele>
        <time>2012-04-13T13:21:13Z</time>
      </trkpt>
      <trkpt lat="43.250040" lon="-3.309916">
        <ele>449.0</ele>
        <time>2012-04-13T13:21:53Z</time>
      </trkpt>
      <trkpt lat="43.249802" lon="-3.309867">
        <ele>448.0</ele>
        <time>2012-04-13T13:22:33Z</time>
      </trkpt>
      <trkpt lat="43.249575" lon="-3.309701">
        <ele>457.0</ele>
        <time>2012-04-13T13:23:13Z</time>
      </trkpt>
      <trkpt lat="43.249376" lon="-3.309551">
        <ele>467.0</ele>
        <time>2012-04-13T13:23:53Z</time>
      </trkpt>
      <trkpt lat="43.249196" lon="-3.309572">
        <ele>464.0</ele>
        <time>2012-04-13T13:24:33Z</time>
      </trkpt>
      <trkpt lat="43.248923" lon="-3.309765">
        <ele>450.0</ele>
        <time>2012-04-13T13:25:13Z</time>
      </trkpt>
      <trkpt lat="43.248696" lon="-3.309942">
        <ele>438.0</ele>
        <time>2012-04-13T13:25:53Z</time>
      </trkpt>
      <trkpt lat="43.248469" lon="-3.309964">
        <ele>436.0</ele>
        <time>2012-04-13T13:26:33Z</time>
      </trkpt>
      <trkpt lat="43.248071" lon="-3.309969">
        <ele>436.0</ele>
        <time>2012-04-13T13:27:13Z</time>
      </trkpt>
      <trkpt lat="43.247801" lon="-3.309991">
        <ele>437.0</ele>
        <time>2012-04-13T13:27:53Z</time>
      </trkpt>
      <trkpt lat="43.247520" lon="-3.310098">
        <ele>438.0</ele>
        <time>2012-04-13T13:28:33Z</time>
      </trkpt>
      <trkpt lat="43.247168" lon="-3.310377">
        <ele>433.0</ele>
        <time>2012-04-13T13:29:13Z</time>
      </trkpt>
      <trkpt lat="43.246977" lon="-3.310382">
        <ele>434.0</ele>
        <time>2012-04-13T13:29:53Z</time>
      </trkpt>
      <trkpt lat="43.246527" lon="-3.310280">
        <ele>433.0</ele>
        <time>2012-04-13T13:30:33Z</time>
      </trkpt>
      <trkpt lat="43.245875" lon="-3.310323">
        <ele>432.0</ele>
        <time>2012-04-13T13:31:13Z</time>
      </trkpt>
      <trkpt lat="43.245629" lon="-3.310302">
        <ele>431.0</ele>
        <time>2012-04-13T13:31:53Z</time>
      </trkpt>
      <trkpt lat="43.245433" lon="-3.310495">
        <ele>430.0</ele>
        <time>2012-04-13T13:32:33Z</time>
      </trkpt>
      <trkpt lat="43.245328" lon="-3.310640">
        <ele>429.0</ele>
        <time>2012-04-13T13:33:13Z</time>
      </trkpt>
      <trkpt lat="43.244749" lon="-3.311369">
        <ele>429.0</ele>
        <time>2012-04-13T13:33:53Z</time>
      </trkpt>
      <trkpt lat="43.244366" lon="-3.311772">
        <ele>428.0</ele>
        <time>2012-04-13T13:34:33Z</time>
      </trkpt>
      <trkpt lat="43.243800" lon="-3.312002">
        <ele>424.0</ele>
        <time>2012-04-13T13:35:13Z</time>
      </trkpt>
      <trkpt lat="43.243632" lon="-3.312013">
        <ele>421.0</ele>
        <time>2012-04-13T13:35:53Z</time>
      </trkpt>
      <trkpt lat="43.243417" lon="-3.312008">
        <ele>420.0</ele>
        <time>2012-04-13T13:36:33Z</time>
      </trkpt>
    </trkseg>
  </trk></gpx>